<?xml version="1.0" encoding="UTF-8" standalone="no" ?>
<gpx xmlns="http://www.topografix.com/GPX/1/1" xmlns:xsi="http://www.w3.org/2001/XMLSchema-instance" xsi:schemaLocation="http://www.topografix.com/GPX/1/1 http://www.topografix.com/GPX/1/1/gpx.xsd" version="1.1" creator="VisuGPX - https://www.visugpx.com">
  <metadata>
    <name>Le mont d'Or depuis Super Longevilles</name>
    <desc><![CDATA[Randonnée pédestre effectuée le 21 mai 2014]]></desc>
  </metadata>
  <trk>
    <name><![CDATA[20181204155947-bDvik]]></name>
    <trkseg>
      <trkpt lat="46.74362" lon="6.34116">
        <ele>1188</ele>
        <time>2014-05-21T07:41:44Z</time>
      </trkpt>
      <trkpt lat="46.74364" lon="6.34123">
        <ele>1189</ele>
        <time>2014-05-21T07:41:52Z</time>
      </trkpt>
      <trkpt lat="46.74366" lon="6.3413">
        <ele>1190</ele>
        <time>2014-05-21T07:41:57Z</time>
      </trkpt>
      <trkpt lat="46.74368" lon="6.34136">
        <ele>1190</ele>
        <time>2014-05-21T07:42:04Z</time>
      </trkpt>
      <trkpt lat="46.74368" lon="6.34143">
        <ele>1190</ele>
        <time>2014-05-21T07:42:12Z</time>
      </trkpt>
      <trkpt lat="46.74367" lon="6.3415">
        <ele>1190</ele>
        <time>2014-05-21T07:42:18Z</time>
      </trkpt>
      <trkpt lat="46.74364" lon="6.34153">
        <ele>1190</ele>
        <time>2014-05-21T07:42:28Z</time>
      </trkpt>
      <trkpt lat="46.7436" lon="6.34155">
        <ele>1191</ele>
        <time>2014-05-21T07:42:50Z</time>
      </trkpt>
      <trkpt lat="46.74359" lon="6.34164">
        <ele>1192</ele>
        <time>2014-05-21T07:43:03Z</time>
      </trkpt>
      <trkpt lat="46.74356" lon="6.3417">
        <ele>1193</ele>
        <time>2014-05-21T07:43:08Z</time>
      </trkpt>
      <trkpt lat="46.74352" lon="6.34166">
        <ele>1193</ele>
        <time>2014-05-21T07:43:12Z</time>
      </trkpt>
      <trkpt lat="46.74349" lon="6.34161">
        <ele>1194</ele>
        <time>2014-05-21T07:43:16Z</time>
      </trkpt>
      <trkpt lat="46.74345" lon="6.34156">
        <ele>1195</ele>
        <time>2014-05-21T07:43:20Z</time>
      </trkpt>
      <trkpt lat="46.74341" lon="6.34152">
        <ele>1196</ele>
        <time>2014-05-21T07:43:24Z</time>
      </trkpt>
      <trkpt lat="46.74336" lon="6.34149">
        <ele>1196</ele>
        <time>2014-05-21T07:43:28Z</time>
      </trkpt>
      <trkpt lat="46.74332" lon="6.34146">
        <ele>1195</ele>
        <time>2014-05-21T07:43:32Z</time>
      </trkpt>
      <trkpt lat="46.74326" lon="6.34145">
        <ele>1194</ele>
        <time>2014-05-21T07:43:37Z</time>
      </trkpt>
      <trkpt lat="46.74322" lon="6.34142">
        <ele>1193</ele>
        <time>2014-05-21T07:43:41Z</time>
      </trkpt>
      <trkpt lat="46.74317" lon="6.34139">
        <ele>1192</ele>
        <time>2014-05-21T07:43:45Z</time>
      </trkpt>
      <trkpt lat="46.74312" lon="6.34135">
        <ele>1191</ele>
        <time>2014-05-21T07:43:49Z</time>
      </trkpt>
      <trkpt lat="46.74303" lon="6.34134">
        <ele>1190</ele>
        <time>2014-05-21T07:43:57Z</time>
      </trkpt>
      <trkpt lat="46.74293" lon="6.34133">
        <ele>1190</ele>
        <time>2014-05-21T07:44:06Z</time>
      </trkpt>
      <trkpt lat="46.74284" lon="6.34136">
        <ele>1189</ele>
        <time>2014-05-21T07:44:14Z</time>
      </trkpt>
      <trkpt lat="46.74274" lon="6.34136">
        <ele>1188</ele>
        <time>2014-05-21T07:44:23Z</time>
      </trkpt>
      <trkpt lat="46.74266" lon="6.3413">
        <ele>1189</ele>
        <time>2014-05-21T07:44:32Z</time>
      </trkpt>
      <trkpt lat="46.74261" lon="6.34119">
        <ele>1191</ele>
        <time>2014-05-21T07:44:41Z</time>
      </trkpt>
      <trkpt lat="46.7426" lon="6.34106">
        <ele>1193</ele>
        <time>2014-05-21T07:44:48Z</time>
      </trkpt>
      <trkpt lat="46.7426" lon="6.34092">
        <ele>1195</ele>
        <time>2014-05-21T07:44:57Z</time>
      </trkpt>
      <trkpt lat="46.74257" lon="6.34078">
        <ele>1197</ele>
        <time>2014-05-21T07:45:04Z</time>
      </trkpt>
      <trkpt lat="46.74259" lon="6.34065">
        <ele>1199</ele>
        <time>2014-05-21T07:45:10Z</time>
      </trkpt>
      <trkpt lat="46.74258" lon="6.3405">
        <ele>1200</ele>
        <time>2014-05-21T07:45:18Z</time>
      </trkpt>
      <trkpt lat="46.74253" lon="6.34039">
        <ele>1201</ele>
        <time>2014-05-21T07:45:23Z</time>
      </trkpt>
      <trkpt lat="46.74248" lon="6.34028">
        <ele>1202</ele>
        <time>2014-05-21T07:45:28Z</time>
      </trkpt>
      <trkpt lat="46.74245" lon="6.34014">
        <ele>1201</ele>
        <time>2014-05-21T07:45:36Z</time>
      </trkpt>
      <trkpt lat="46.74247" lon="6.34001">
        <ele>1199</ele>
        <time>2014-05-21T07:45:43Z</time>
      </trkpt>
      <trkpt lat="46.74249" lon="6.33987">
        <ele>1195</ele>
        <time>2014-05-21T07:45:51Z</time>
      </trkpt>
      <trkpt lat="46.74254" lon="6.33975">
        <ele>1193</ele>
        <time>2014-05-21T07:46:02Z</time>
      </trkpt>
      <trkpt lat="46.74256" lon="6.33961">
        <ele>1193</ele>
        <time>2014-05-21T07:46:10Z</time>
      </trkpt>
      <trkpt lat="46.74256" lon="6.33953">
        <ele>1192</ele>
        <time>2014-05-21T07:46:15Z</time>
      </trkpt>
      <trkpt lat="46.74258" lon="6.33945">
        <ele>1191</ele>
        <time>2014-05-21T07:46:20Z</time>
      </trkpt>
      <trkpt lat="46.7426" lon="6.33937">
        <ele>1192</ele>
        <time>2014-05-21T07:46:24Z</time>
      </trkpt>
      <trkpt lat="46.74261" lon="6.33929">
        <ele>1192</ele>
        <time>2014-05-21T07:46:28Z</time>
      </trkpt>
      <trkpt lat="46.74262" lon="6.3392">
        <ele>1192</ele>
        <time>2014-05-21T07:46:32Z</time>
      </trkpt>
      <trkpt lat="46.74264" lon="6.33912">
        <ele>1192</ele>
        <time>2014-05-21T07:46:36Z</time>
      </trkpt>
      <trkpt lat="46.74264" lon="6.33905">
        <ele>1192</ele>
        <time>2014-05-21T07:46:40Z</time>
      </trkpt>
      <trkpt lat="46.74265" lon="6.33898">
        <ele>1192</ele>
        <time>2014-05-21T07:46:44Z</time>
      </trkpt>
      <trkpt lat="46.74264" lon="6.3389">
        <ele>1191</ele>
        <time>2014-05-21T07:46:48Z</time>
      </trkpt>
      <trkpt lat="46.74264" lon="6.33882">
        <ele>1190</ele>
        <time>2014-05-21T07:46:53Z</time>
      </trkpt>
      <trkpt lat="46.74265" lon="6.33874">
        <ele>1189</ele>
        <time>2014-05-21T07:46:57Z</time>
      </trkpt>
      <trkpt lat="46.74264" lon="6.33867">
        <ele>1187</ele>
        <time>2014-05-21T07:47:01Z</time>
      </trkpt>
      <trkpt lat="46.74263" lon="6.3386">
        <ele>1186</ele>
        <time>2014-05-21T07:47:05Z</time>
      </trkpt>
      <trkpt lat="46.74262" lon="6.33852">
        <ele>1183</ele>
        <time>2014-05-21T07:47:10Z</time>
      </trkpt>
      <trkpt lat="46.74262" lon="6.33837">
        <ele>1182</ele>
        <time>2014-05-21T07:47:18Z</time>
      </trkpt>
      <trkpt lat="46.74263" lon="6.33822">
        <ele>1183</ele>
        <time>2014-05-21T07:47:25Z</time>
      </trkpt>
      <trkpt lat="46.74266" lon="6.3381">
        <ele>1186</ele>
        <time>2014-05-21T07:47:33Z</time>
      </trkpt>
      <trkpt lat="46.74263" lon="6.33796">
        <ele>1189</ele>
        <time>2014-05-21T07:47:48Z</time>
      </trkpt>
      <trkpt lat="46.74263" lon="6.33782">
        <ele>1190</ele>
        <time>2014-05-21T07:47:56Z</time>
      </trkpt>
      <trkpt lat="46.7426" lon="6.33769">
        <ele>1191</ele>
        <time>2014-05-21T07:48:04Z</time>
      </trkpt>
      <trkpt lat="46.74258" lon="6.33756">
        <ele>1193</ele>
        <time>2014-05-21T07:48:11Z</time>
      </trkpt>
      <trkpt lat="46.74255" lon="6.33744">
        <ele>1194</ele>
        <time>2014-05-21T07:48:21Z</time>
      </trkpt>
      <trkpt lat="46.74253" lon="6.3373">
        <ele>1194</ele>
        <time>2014-05-21T07:48:28Z</time>
      </trkpt>
      <trkpt lat="46.74251" lon="6.33717">
        <ele>1195</ele>
        <time>2014-05-21T07:48:33Z</time>
      </trkpt>
      <trkpt lat="46.74248" lon="6.33704">
        <ele>1196</ele>
        <time>2014-05-21T07:48:40Z</time>
      </trkpt>
      <trkpt lat="46.74241" lon="6.33695">
        <ele>1196</ele>
        <time>2014-05-21T07:48:50Z</time>
      </trkpt>
      <trkpt lat="46.74237" lon="6.33682">
        <ele>1196</ele>
        <time>2014-05-21T07:49:00Z</time>
      </trkpt>
      <trkpt lat="46.74234" lon="6.3367">
        <ele>1197</ele>
        <time>2014-05-21T07:49:09Z</time>
      </trkpt>
      <trkpt lat="46.74231" lon="6.33656">
        <ele>1198</ele>
        <time>2014-05-21T07:49:15Z</time>
      </trkpt>
      <trkpt lat="46.74226" lon="6.33644">
        <ele>1199</ele>
        <time>2014-05-21T07:49:23Z</time>
      </trkpt>
      <trkpt lat="46.74221" lon="6.33633">
        <ele>1200</ele>
        <time>2014-05-21T07:49:32Z</time>
      </trkpt>
      <trkpt lat="46.74216" lon="6.33621">
        <ele>1199</ele>
        <time>2014-05-21T07:49:42Z</time>
      </trkpt>
      <trkpt lat="46.74211" lon="6.33609">
        <ele>1199</ele>
        <time>2014-05-21T07:49:50Z</time>
      </trkpt>
      <trkpt lat="46.74204" lon="6.336">
        <ele>1198</ele>
        <time>2014-05-21T07:49:59Z</time>
      </trkpt>
      <trkpt lat="46.74197" lon="6.3359">
        <ele>1198</ele>
        <time>2014-05-21T07:50:07Z</time>
      </trkpt>
      <trkpt lat="46.7419" lon="6.33581">
        <ele>1199</ele>
        <time>2014-05-21T07:50:16Z</time>
      </trkpt>
      <trkpt lat="46.74182" lon="6.33575">
        <ele>1200</ele>
        <time>2014-05-21T07:50:26Z</time>
      </trkpt>
      <trkpt lat="46.74174" lon="6.33567">
        <ele>1201</ele>
        <time>2014-05-21T07:50:34Z</time>
      </trkpt>
      <trkpt lat="46.74166" lon="6.3356">
        <ele>1201</ele>
        <time>2014-05-21T07:50:42Z</time>
      </trkpt>
      <trkpt lat="46.74157" lon="6.33556">
        <ele>1200</ele>
        <time>2014-05-21T07:50:52Z</time>
      </trkpt>
      <trkpt lat="46.74149" lon="6.33549">
        <ele>1201</ele>
        <time>2014-05-21T07:51:03Z</time>
      </trkpt>
      <trkpt lat="46.74139" lon="6.33548">
        <ele>1201</ele>
        <time>2014-05-21T07:51:13Z</time>
      </trkpt>
      <trkpt lat="46.74131" lon="6.33544">
        <ele>1200</ele>
        <time>2014-05-21T07:51:22Z</time>
      </trkpt>
      <trkpt lat="46.74123" lon="6.33535">
        <ele>1201</ele>
        <time>2014-05-21T07:51:27Z</time>
      </trkpt>
      <trkpt lat="46.74114" lon="6.33531">
        <ele>1202</ele>
        <time>2014-05-21T07:51:39Z</time>
      </trkpt>
      <trkpt lat="46.74107" lon="6.33523">
        <ele>1203</ele>
        <time>2014-05-21T07:51:46Z</time>
      </trkpt>
      <trkpt lat="46.74098" lon="6.33517">
        <ele>1206</ele>
        <time>2014-05-21T07:51:54Z</time>
      </trkpt>
      <trkpt lat="46.7409" lon="6.33509">
        <ele>1209</ele>
        <time>2014-05-21T07:52:04Z</time>
      </trkpt>
      <trkpt lat="46.74081" lon="6.33503">
        <ele>1209</ele>
        <time>2014-05-21T07:52:16Z</time>
      </trkpt>
      <trkpt lat="46.74074" lon="6.33493">
        <ele>1210</ele>
        <time>2014-05-21T07:52:25Z</time>
      </trkpt>
      <trkpt lat="46.7407" lon="6.33481">
        <ele>1211</ele>
        <time>2014-05-21T07:52:35Z</time>
      </trkpt>
      <trkpt lat="46.74067" lon="6.33467">
        <ele>1210</ele>
        <time>2014-05-21T07:52:44Z</time>
      </trkpt>
      <trkpt lat="46.74061" lon="6.33457">
        <ele>1210</ele>
        <time>2014-05-21T07:52:53Z</time>
      </trkpt>
      <trkpt lat="46.74053" lon="6.33449">
        <ele>1214</ele>
        <time>2014-05-21T07:53:01Z</time>
      </trkpt>
      <trkpt lat="46.74047" lon="6.33439">
        <ele>1215</ele>
        <time>2014-05-21T07:53:10Z</time>
      </trkpt>
      <trkpt lat="46.74039" lon="6.3343">
        <ele>1214</ele>
        <time>2014-05-21T07:53:23Z</time>
      </trkpt>
      <trkpt lat="46.74034" lon="6.33419">
        <ele>1213</ele>
        <time>2014-05-21T07:53:32Z</time>
      </trkpt>
      <trkpt lat="46.74027" lon="6.33409">
        <ele>1214</ele>
        <time>2014-05-21T07:53:40Z</time>
      </trkpt>
      <trkpt lat="46.74019" lon="6.33401">
        <ele>1214</ele>
        <time>2014-05-21T07:53:49Z</time>
      </trkpt>
      <trkpt lat="46.74012" lon="6.33392">
        <ele>1216</ele>
        <time>2014-05-21T07:53:58Z</time>
      </trkpt>
      <trkpt lat="46.74004" lon="6.33385">
        <ele>1217</ele>
        <time>2014-05-21T07:54:06Z</time>
      </trkpt>
      <trkpt lat="46.73997" lon="6.33375">
        <ele>1219</ele>
        <time>2014-05-21T07:54:16Z</time>
      </trkpt>
      <trkpt lat="46.73989" lon="6.33366">
        <ele>1220</ele>
        <time>2014-05-21T07:54:28Z</time>
      </trkpt>
      <trkpt lat="46.73982" lon="6.33357">
        <ele>1222</ele>
        <time>2014-05-21T07:54:35Z</time>
      </trkpt>
      <trkpt lat="46.73976" lon="6.33348">
        <ele>1223</ele>
        <time>2014-05-21T07:54:47Z</time>
      </trkpt>
      <trkpt lat="46.73968" lon="6.33339">
        <ele>1227</ele>
        <time>2014-05-21T07:54:59Z</time>
      </trkpt>
      <trkpt lat="46.73961" lon="6.3333">
        <ele>1229</ele>
        <time>2014-05-21T07:55:08Z</time>
      </trkpt>
      <trkpt lat="46.73953" lon="6.33321">
        <ele>1229</ele>
        <time>2014-05-21T07:55:18Z</time>
      </trkpt>
      <trkpt lat="46.73946" lon="6.33313">
        <ele>1229</ele>
        <time>2014-05-21T07:55:28Z</time>
      </trkpt>
      <trkpt lat="46.73938" lon="6.33306">
        <ele>1227</ele>
        <time>2014-05-21T07:55:40Z</time>
      </trkpt>
      <trkpt lat="46.7393" lon="6.33297">
        <ele>1229</ele>
        <time>2014-05-21T07:55:49Z</time>
      </trkpt>
      <trkpt lat="46.7392" lon="6.33287">
        <ele>1227</ele>
        <time>2014-05-21T07:56:06Z</time>
      </trkpt>
      <trkpt lat="46.73913" lon="6.33279">
        <ele>1227</ele>
        <time>2014-05-21T07:56:16Z</time>
      </trkpt>
      <trkpt lat="46.73913" lon="6.33278">
        <ele>1231</ele>
        <time>2014-05-21T07:57:43Z</time>
      </trkpt>
      <trkpt lat="46.73914" lon="6.33276">
        <ele>1238</ele>
        <time>2014-05-21T07:59:06Z</time>
      </trkpt>
      <trkpt lat="46.73916" lon="6.3327">
        <ele>1233</ele>
        <time>2014-05-21T08:00:11Z</time>
      </trkpt>
      <trkpt lat="46.73907" lon="6.33266">
        <ele>1232</ele>
        <time>2014-05-21T08:00:46Z</time>
      </trkpt>
      <trkpt lat="46.73902" lon="6.33262">
        <ele>1234</ele>
        <time>2014-05-21T08:02:09Z</time>
      </trkpt>
      <trkpt lat="46.73894" lon="6.33261">
        <ele>1238</ele>
        <time>2014-05-21T08:03:03Z</time>
      </trkpt>
      <trkpt lat="46.73894" lon="6.33253">
        <ele>1237</ele>
        <time>2014-05-21T08:03:09Z</time>
      </trkpt>
      <trkpt lat="46.73894" lon="6.33245">
        <ele>1235</ele>
        <time>2014-05-21T08:03:13Z</time>
      </trkpt>
      <trkpt lat="46.73892" lon="6.33238">
        <ele>1233</ele>
        <time>2014-05-21T08:03:17Z</time>
      </trkpt>
      <trkpt lat="46.73888" lon="6.33232">
        <ele>1232</ele>
        <time>2014-05-21T08:03:21Z</time>
      </trkpt>
      <trkpt lat="46.73885" lon="6.33227">
        <ele>1231</ele>
        <time>2014-05-21T08:03:24Z</time>
      </trkpt>
      <trkpt lat="46.7388" lon="6.33216">
        <ele>1232</ele>
        <time>2014-05-21T08:03:29Z</time>
      </trkpt>
      <trkpt lat="46.73873" lon="6.33206">
        <ele>1233</ele>
        <time>2014-05-21T08:03:36Z</time>
      </trkpt>
      <trkpt lat="46.73865" lon="6.33199">
        <ele>1233</ele>
        <time>2014-05-21T08:03:43Z</time>
      </trkpt>
      <trkpt lat="46.73858" lon="6.33192">
        <ele>1234</ele>
        <time>2014-05-21T08:03:50Z</time>
      </trkpt>
      <trkpt lat="46.73851" lon="6.33185">
        <ele>1235</ele>
        <time>2014-05-21T08:03:56Z</time>
      </trkpt>
      <trkpt lat="46.73847" lon="6.33179">
        <ele>1236</ele>
        <time>2014-05-21T08:04:00Z</time>
      </trkpt>
      <trkpt lat="46.73843" lon="6.33174">
        <ele>1235</ele>
        <time>2014-05-21T08:04:04Z</time>
      </trkpt>
      <trkpt lat="46.73838" lon="6.3317">
        <ele>1234</ele>
        <time>2014-05-21T08:04:09Z</time>
      </trkpt>
      <trkpt lat="46.73834" lon="6.33164">
        <ele>1233</ele>
        <time>2014-05-21T08:04:13Z</time>
      </trkpt>
      <trkpt lat="46.7383" lon="6.33158">
        <ele>1233</ele>
        <time>2014-05-21T08:04:17Z</time>
      </trkpt>
      <trkpt lat="46.73826" lon="6.33154">
        <ele>1231</ele>
        <time>2014-05-21T08:04:21Z</time>
      </trkpt>
      <trkpt lat="46.73821" lon="6.3315">
        <ele>1230</ele>
        <time>2014-05-21T08:04:25Z</time>
      </trkpt>
      <trkpt lat="46.73816" lon="6.33148">
        <ele>1228</ele>
        <time>2014-05-21T08:04:30Z</time>
      </trkpt>
      <trkpt lat="46.73812" lon="6.33147">
        <ele>1227</ele>
        <time>2014-05-21T08:04:34Z</time>
      </trkpt>
      <trkpt lat="46.73806" lon="6.33144">
        <ele>1225</ele>
        <time>2014-05-21T08:04:39Z</time>
      </trkpt>
      <trkpt lat="46.73801" lon="6.33141">
        <ele>1225</ele>
        <time>2014-05-21T08:04:43Z</time>
      </trkpt>
      <trkpt lat="46.73796" lon="6.3314">
        <ele>1223</ele>
        <time>2014-05-21T08:04:47Z</time>
      </trkpt>
      <trkpt lat="46.7379" lon="6.33138">
        <ele>1223</ele>
        <time>2014-05-21T08:04:51Z</time>
      </trkpt>
      <trkpt lat="46.73785" lon="6.33135">
        <ele>1223</ele>
        <time>2014-05-21T08:04:55Z</time>
      </trkpt>
      <trkpt lat="46.73776" lon="6.33133">
        <ele>1224</ele>
        <time>2014-05-21T08:05:02Z</time>
      </trkpt>
      <trkpt lat="46.73767" lon="6.33129">
        <ele>1225</ele>
        <time>2014-05-21T08:05:09Z</time>
      </trkpt>
      <trkpt lat="46.73758" lon="6.33129">
        <ele>1224</ele>
        <time>2014-05-21T08:05:16Z</time>
      </trkpt>
      <trkpt lat="46.73748" lon="6.33128">
        <ele>1223</ele>
        <time>2014-05-21T08:05:24Z</time>
      </trkpt>
      <trkpt lat="46.73738" lon="6.33127">
        <ele>1220</ele>
        <time>2014-05-21T08:05:30Z</time>
      </trkpt>
      <trkpt lat="46.73728" lon="6.33129">
        <ele>1218</ele>
        <time>2014-05-21T08:05:37Z</time>
      </trkpt>
      <trkpt lat="46.73718" lon="6.33126">
        <ele>1217</ele>
        <time>2014-05-21T08:05:44Z</time>
      </trkpt>
      <trkpt lat="46.73713" lon="6.33126">
        <ele>1218</ele>
        <time>2014-05-21T08:05:48Z</time>
      </trkpt>
      <trkpt lat="46.73708" lon="6.33126">
        <ele>1219</ele>
        <time>2014-05-21T08:05:52Z</time>
      </trkpt>
      <trkpt lat="46.73703" lon="6.33127">
        <ele>1220</ele>
        <time>2014-05-21T08:05:56Z</time>
      </trkpt>
      <trkpt lat="46.73698" lon="6.33128">
        <ele>1220</ele>
        <time>2014-05-21T08:06:00Z</time>
      </trkpt>
      <trkpt lat="46.73693" lon="6.33128">
        <ele>1222</ele>
        <time>2014-05-21T08:06:04Z</time>
      </trkpt>
      <trkpt lat="46.73687" lon="6.3313">
        <ele>1223</ele>
        <time>2014-05-21T08:06:08Z</time>
      </trkpt>
      <trkpt lat="46.73682" lon="6.3313">
        <ele>1223</ele>
        <time>2014-05-21T08:06:11Z</time>
      </trkpt>
      <trkpt lat="46.73677" lon="6.33138">
        <ele>1223</ele>
        <time>2014-05-21T08:06:17Z</time>
      </trkpt>
      <trkpt lat="46.73674" lon="6.33143">
        <ele>1222</ele>
        <time>2014-05-21T08:06:21Z</time>
      </trkpt>
      <trkpt lat="46.73671" lon="6.3315">
        <ele>1221</ele>
        <time>2014-05-21T08:06:24Z</time>
      </trkpt>
      <trkpt lat="46.73667" lon="6.33154">
        <ele>1221</ele>
        <time>2014-05-21T08:06:28Z</time>
      </trkpt>
      <trkpt lat="46.73664" lon="6.33159">
        <ele>1221</ele>
        <time>2014-05-21T08:06:32Z</time>
      </trkpt>
      <trkpt lat="46.73661" lon="6.33163">
        <ele>1221</ele>
        <time>2014-05-21T08:06:36Z</time>
      </trkpt>
      <trkpt lat="46.73657" lon="6.3317">
        <ele>1221</ele>
        <time>2014-05-21T08:06:41Z</time>
      </trkpt>
      <trkpt lat="46.73655" lon="6.33176">
        <ele>1221</ele>
        <time>2014-05-21T08:06:45Z</time>
      </trkpt>
      <trkpt lat="46.73652" lon="6.33182">
        <ele>1221</ele>
        <time>2014-05-21T08:06:49Z</time>
      </trkpt>
      <trkpt lat="46.73648" lon="6.33188">
        <ele>1220</ele>
        <time>2014-05-21T08:06:53Z</time>
      </trkpt>
      <trkpt lat="46.73646" lon="6.33195">
        <ele>1218</ele>
        <time>2014-05-21T08:06:57Z</time>
      </trkpt>
      <trkpt lat="46.73646" lon="6.33203">
        <ele>1218</ele>
        <time>2014-05-21T08:07:01Z</time>
      </trkpt>
      <trkpt lat="46.73645" lon="6.33209">
        <ele>1218</ele>
        <time>2014-05-21T08:07:07Z</time>
      </trkpt>
      <trkpt lat="46.73641" lon="6.33214">
        <ele>1219</ele>
        <time>2014-05-21T08:07:12Z</time>
      </trkpt>
      <trkpt lat="46.73638" lon="6.33221">
        <ele>1218</ele>
        <time>2014-05-21T08:07:16Z</time>
      </trkpt>
      <trkpt lat="46.73635" lon="6.33227">
        <ele>1218</ele>
        <time>2014-05-21T08:07:20Z</time>
      </trkpt>
      <trkpt lat="46.73628" lon="6.33236">
        <ele>1216</ele>
        <time>2014-05-21T08:07:29Z</time>
      </trkpt>
      <trkpt lat="46.73621" lon="6.3324">
        <ele>1218</ele>
        <time>2014-05-21T08:07:46Z</time>
      </trkpt>
      <trkpt lat="46.73616" lon="6.33251">
        <ele>1217</ele>
        <time>2014-05-21T08:07:54Z</time>
      </trkpt>
      <trkpt lat="46.73607" lon="6.33258">
        <ele>1218</ele>
        <time>2014-05-21T08:08:02Z</time>
      </trkpt>
      <trkpt lat="46.736" lon="6.33266">
        <ele>1219</ele>
        <time>2014-05-21T08:08:08Z</time>
      </trkpt>
      <trkpt lat="46.73593" lon="6.33276">
        <ele>1219</ele>
        <time>2014-05-21T08:08:16Z</time>
      </trkpt>
      <trkpt lat="46.73585" lon="6.33284">
        <ele>1218</ele>
        <time>2014-05-21T08:08:24Z</time>
      </trkpt>
      <trkpt lat="46.73582" lon="6.33298">
        <ele>1218</ele>
        <time>2014-05-21T08:08:32Z</time>
      </trkpt>
      <trkpt lat="46.73576" lon="6.33311">
        <ele>1218</ele>
        <time>2014-05-21T08:08:41Z</time>
      </trkpt>
      <trkpt lat="46.73571" lon="6.33322">
        <ele>1220</ele>
        <time>2014-05-21T08:08:50Z</time>
      </trkpt>
      <trkpt lat="46.73565" lon="6.33334">
        <ele>1222</ele>
        <time>2014-05-21T08:09:00Z</time>
      </trkpt>
      <trkpt lat="46.7356" lon="6.33345">
        <ele>1223</ele>
        <time>2014-05-21T08:09:09Z</time>
      </trkpt>
      <trkpt lat="46.73554" lon="6.33357">
        <ele>1226</ele>
        <time>2014-05-21T08:09:18Z</time>
      </trkpt>
      <trkpt lat="46.73548" lon="6.33368">
        <ele>1228</ele>
        <time>2014-05-21T08:09:26Z</time>
      </trkpt>
      <trkpt lat="46.73544" lon="6.33381">
        <ele>1229</ele>
        <time>2014-05-21T08:09:35Z</time>
      </trkpt>
      <trkpt lat="46.7354" lon="6.33393">
        <ele>1229</ele>
        <time>2014-05-21T08:09:44Z</time>
      </trkpt>
      <trkpt lat="46.73536" lon="6.33406">
        <ele>1230</ele>
        <time>2014-05-21T08:09:52Z</time>
      </trkpt>
      <trkpt lat="46.73534" lon="6.33419">
        <ele>1228</ele>
        <time>2014-05-21T08:10:00Z</time>
      </trkpt>
      <trkpt lat="46.73531" lon="6.33433">
        <ele>1227</ele>
        <time>2014-05-21T08:10:09Z</time>
      </trkpt>
      <trkpt lat="46.7353" lon="6.33446">
        <ele>1227</ele>
        <time>2014-05-21T08:10:17Z</time>
      </trkpt>
      <trkpt lat="46.73525" lon="6.3346">
        <ele>1228</ele>
        <time>2014-05-21T08:10:26Z</time>
      </trkpt>
      <trkpt lat="46.73524" lon="6.33473">
        <ele>1228</ele>
        <time>2014-05-21T08:10:34Z</time>
      </trkpt>
      <trkpt lat="46.7352" lon="6.33486">
        <ele>1229</ele>
        <time>2014-05-21T08:10:43Z</time>
      </trkpt>
      <trkpt lat="46.73518" lon="6.33499">
        <ele>1232</ele>
        <time>2014-05-21T08:10:51Z</time>
      </trkpt>
      <trkpt lat="46.73516" lon="6.33512">
        <ele>1232</ele>
        <time>2014-05-21T08:11:01Z</time>
      </trkpt>
      <trkpt lat="46.73512" lon="6.33525">
        <ele>1232</ele>
        <time>2014-05-21T08:11:11Z</time>
      </trkpt>
      <trkpt lat="46.7351" lon="6.33538">
        <ele>1232</ele>
        <time>2014-05-21T08:11:21Z</time>
      </trkpt>
      <trkpt lat="46.73508" lon="6.33551">
        <ele>1234</ele>
        <time>2014-05-21T08:11:32Z</time>
      </trkpt>
      <trkpt lat="46.73505" lon="6.33564">
        <ele>1234</ele>
        <time>2014-05-21T08:11:41Z</time>
      </trkpt>
      <trkpt lat="46.73503" lon="6.33577">
        <ele>1235</ele>
        <time>2014-05-21T08:11:50Z</time>
      </trkpt>
      <trkpt lat="46.73501" lon="6.3359">
        <ele>1237</ele>
        <time>2014-05-21T08:12:00Z</time>
      </trkpt>
      <trkpt lat="46.73499" lon="6.33604">
        <ele>1238</ele>
        <time>2014-05-21T08:12:13Z</time>
      </trkpt>
      <trkpt lat="46.73498" lon="6.33617">
        <ele>1238</ele>
        <time>2014-05-21T08:12:21Z</time>
      </trkpt>
      <trkpt lat="46.73496" lon="6.33631">
        <ele>1238</ele>
        <time>2014-05-21T08:12:30Z</time>
      </trkpt>
      <trkpt lat="46.73494" lon="6.33645">
        <ele>1239</ele>
        <time>2014-05-21T08:12:39Z</time>
      </trkpt>
      <trkpt lat="46.73491" lon="6.33658">
        <ele>1240</ele>
        <time>2014-05-21T08:12:48Z</time>
      </trkpt>
      <trkpt lat="46.73488" lon="6.33671">
        <ele>1239</ele>
        <time>2014-05-21T08:12:57Z</time>
      </trkpt>
      <trkpt lat="46.73484" lon="6.33684">
        <ele>1239</ele>
        <time>2014-05-21T08:13:07Z</time>
      </trkpt>
      <trkpt lat="46.73481" lon="6.33697">
        <ele>1239</ele>
        <time>2014-05-21T08:13:16Z</time>
      </trkpt>
      <trkpt lat="46.73479" lon="6.33711">
        <ele>1238</ele>
        <time>2014-05-21T08:13:25Z</time>
      </trkpt>
      <trkpt lat="46.73478" lon="6.33725">
        <ele>1238</ele>
        <time>2014-05-21T08:13:34Z</time>
      </trkpt>
      <trkpt lat="46.73475" lon="6.33738">
        <ele>1236</ele>
        <time>2014-05-21T08:13:43Z</time>
      </trkpt>
      <trkpt lat="46.73474" lon="6.33751">
        <ele>1237</ele>
        <time>2014-05-21T08:13:51Z</time>
      </trkpt>
      <trkpt lat="46.73471" lon="6.33764">
        <ele>1240</ele>
        <time>2014-05-21T08:14:00Z</time>
      </trkpt>
      <trkpt lat="46.73468" lon="6.33778">
        <ele>1242</ele>
        <time>2014-05-21T08:14:09Z</time>
      </trkpt>
      <trkpt lat="46.73464" lon="6.33791">
        <ele>1245</ele>
        <time>2014-05-21T08:14:19Z</time>
      </trkpt>
      <trkpt lat="46.73464" lon="6.33802">
        <ele>1247</ele>
        <time>2014-05-21T08:14:29Z</time>
      </trkpt>
      <trkpt lat="46.73464" lon="6.33809">
        <ele>1248</ele>
        <time>2014-05-21T08:14:33Z</time>
      </trkpt>
      <trkpt lat="46.73463" lon="6.33816">
        <ele>1248</ele>
        <time>2014-05-21T08:14:38Z</time>
      </trkpt>
      <trkpt lat="46.73462" lon="6.33823">
        <ele>1248</ele>
        <time>2014-05-21T08:14:42Z</time>
      </trkpt>
      <trkpt lat="46.73461" lon="6.33829">
        <ele>1248</ele>
        <time>2014-05-21T08:14:47Z</time>
      </trkpt>
      <trkpt lat="46.7346" lon="6.33837">
        <ele>1249</ele>
        <time>2014-05-21T08:14:54Z</time>
      </trkpt>
      <trkpt lat="46.73458" lon="6.33844">
        <ele>1252</ele>
        <time>2014-05-21T08:15:00Z</time>
      </trkpt>
      <trkpt lat="46.73457" lon="6.3385">
        <ele>1253</ele>
        <time>2014-05-21T08:15:06Z</time>
      </trkpt>
      <trkpt lat="46.73455" lon="6.33856">
        <ele>1255</ele>
        <time>2014-05-21T08:15:13Z</time>
      </trkpt>
      <trkpt lat="46.73453" lon="6.33863">
        <ele>1255</ele>
        <time>2014-05-21T08:15:19Z</time>
      </trkpt>
      <trkpt lat="46.73451" lon="6.33869">
        <ele>1256</ele>
        <time>2014-05-21T08:15:27Z</time>
      </trkpt>
      <trkpt lat="46.73448" lon="6.33882">
        <ele>1256</ele>
        <time>2014-05-21T08:15:39Z</time>
      </trkpt>
      <trkpt lat="46.73444" lon="6.33894">
        <ele>1258</ele>
        <time>2014-05-21T08:15:51Z</time>
      </trkpt>
      <trkpt lat="46.73441" lon="6.33907">
        <ele>1260</ele>
        <time>2014-05-21T08:16:02Z</time>
      </trkpt>
      <trkpt lat="46.73439" lon="6.33921">
        <ele>1261</ele>
        <time>2014-05-21T08:16:14Z</time>
      </trkpt>
      <trkpt lat="46.73437" lon="6.33934">
        <ele>1263</ele>
        <time>2014-05-21T08:16:25Z</time>
      </trkpt>
      <trkpt lat="46.73432" lon="6.33946">
        <ele>1263</ele>
        <time>2014-05-21T08:16:36Z</time>
      </trkpt>
      <trkpt lat="46.7343" lon="6.3396">
        <ele>1262</ele>
        <time>2014-05-21T08:16:48Z</time>
      </trkpt>
      <trkpt lat="46.73427" lon="6.33973">
        <ele>1263</ele>
        <time>2014-05-21T08:17:00Z</time>
      </trkpt>
      <trkpt lat="46.73424" lon="6.33986">
        <ele>1264</ele>
        <time>2014-05-21T08:17:11Z</time>
      </trkpt>
      <trkpt lat="46.73419" lon="6.33998">
        <ele>1266</ele>
        <time>2014-05-21T08:17:23Z</time>
      </trkpt>
      <trkpt lat="46.73416" lon="6.3401">
        <ele>1267</ele>
        <time>2014-05-21T08:17:34Z</time>
      </trkpt>
      <trkpt lat="46.73411" lon="6.34021">
        <ele>1270</ele>
        <time>2014-05-21T08:17:46Z</time>
      </trkpt>
      <trkpt lat="46.73404" lon="6.34031">
        <ele>1276</ele>
        <time>2014-05-21T08:18:02Z</time>
      </trkpt>
      <trkpt lat="46.734" lon="6.34036">
        <ele>1277</ele>
        <time>2014-05-21T08:18:07Z</time>
      </trkpt>
      <trkpt lat="46.73397" lon="6.34042">
        <ele>1276</ele>
        <time>2014-05-21T08:18:11Z</time>
      </trkpt>
      <trkpt lat="46.73394" lon="6.34047">
        <ele>1275</ele>
        <time>2014-05-21T08:18:16Z</time>
      </trkpt>
      <trkpt lat="46.73391" lon="6.34052">
        <ele>1276</ele>
        <time>2014-05-21T08:18:22Z</time>
      </trkpt>
      <trkpt lat="46.73389" lon="6.34058">
        <ele>1275</ele>
        <time>2014-05-21T08:18:27Z</time>
      </trkpt>
      <trkpt lat="46.73386" lon="6.34062">
        <ele>1277</ele>
        <time>2014-05-21T08:18:38Z</time>
      </trkpt>
      <trkpt lat="46.73384" lon="6.34066">
        <ele>1274</ele>
        <time>2014-05-21T08:19:33Z</time>
      </trkpt>
      <trkpt lat="46.73379" lon="6.34067">
        <ele>1274</ele>
        <time>2014-05-21T08:21:10Z</time>
      </trkpt>
      <trkpt lat="46.73377" lon="6.34074">
        <ele>1273</ele>
        <time>2014-05-21T08:21:17Z</time>
      </trkpt>
      <trkpt lat="46.73375" lon="6.34087">
        <ele>1275</ele>
        <time>2014-05-21T08:21:27Z</time>
      </trkpt>
      <trkpt lat="46.73375" lon="6.34101">
        <ele>1274</ele>
        <time>2014-05-21T08:21:36Z</time>
      </trkpt>
      <trkpt lat="46.73373" lon="6.34115">
        <ele>1278</ele>
        <time>2014-05-21T08:21:47Z</time>
      </trkpt>
      <trkpt lat="46.73375" lon="6.34122">
        <ele>1280</ele>
        <time>2014-05-21T08:22:01Z</time>
      </trkpt>
      <trkpt lat="46.73373" lon="6.34135">
        <ele>1282</ele>
        <time>2014-05-21T08:22:10Z</time>
      </trkpt>
      <trkpt lat="46.73374" lon="6.34149">
        <ele>1283</ele>
        <time>2014-05-21T08:22:26Z</time>
      </trkpt>
      <trkpt lat="46.7337" lon="6.34162">
        <ele>1284</ele>
        <time>2014-05-21T08:22:42Z</time>
      </trkpt>
      <trkpt lat="46.73367" lon="6.34174">
        <ele>1285</ele>
        <time>2014-05-21T08:22:55Z</time>
      </trkpt>
      <trkpt lat="46.73362" lon="6.34189">
        <ele>1287</ele>
        <time>2014-05-21T08:23:12Z</time>
      </trkpt>
      <trkpt lat="46.73358" lon="6.34201">
        <ele>1288</ele>
        <time>2014-05-21T08:23:26Z</time>
      </trkpt>
      <trkpt lat="46.73354" lon="6.34214">
        <ele>1289</ele>
        <time>2014-05-21T08:23:39Z</time>
      </trkpt>
      <trkpt lat="46.73351" lon="6.34227">
        <ele>1290</ele>
        <time>2014-05-21T08:23:53Z</time>
      </trkpt>
      <trkpt lat="46.73347" lon="6.34239">
        <ele>1294</ele>
        <time>2014-05-21T08:24:07Z</time>
      </trkpt>
      <trkpt lat="46.73343" lon="6.34251">
        <ele>1296</ele>
        <time>2014-05-21T08:24:23Z</time>
      </trkpt>
      <trkpt lat="46.7334" lon="6.34264">
        <ele>1296</ele>
        <time>2014-05-21T08:24:36Z</time>
      </trkpt>
      <trkpt lat="46.73335" lon="6.34277">
        <ele>1297</ele>
        <time>2014-05-21T08:24:48Z</time>
      </trkpt>
      <trkpt lat="46.73333" lon="6.34289">
        <ele>1299</ele>
        <time>2014-05-21T08:24:59Z</time>
      </trkpt>
      <trkpt lat="46.73324" lon="6.34294">
        <ele>1301</ele>
        <time>2014-05-21T08:25:15Z</time>
      </trkpt>
      <trkpt lat="46.7332" lon="6.34306">
        <ele>1304</ele>
        <time>2014-05-21T08:25:29Z</time>
      </trkpt>
      <trkpt lat="46.7332" lon="6.3432">
        <ele>1304</ele>
        <time>2014-05-21T08:25:42Z</time>
      </trkpt>
      <trkpt lat="46.73322" lon="6.34333">
        <ele>1307</ele>
        <time>2014-05-21T08:25:54Z</time>
      </trkpt>
      <trkpt lat="46.73323" lon="6.34346">
        <ele>1309</ele>
        <time>2014-05-21T08:26:06Z</time>
      </trkpt>
      <trkpt lat="46.73322" lon="6.34357">
        <ele>1313</ele>
        <time>2014-05-21T08:26:19Z</time>
      </trkpt>
      <trkpt lat="46.73321" lon="6.34364">
        <ele>1314</ele>
        <time>2014-05-21T08:26:29Z</time>
      </trkpt>
      <trkpt lat="46.73321" lon="6.34371">
        <ele>1314</ele>
        <time>2014-05-21T08:26:36Z</time>
      </trkpt>
      <trkpt lat="46.7332" lon="6.3438">
        <ele>1314</ele>
        <time>2014-05-21T08:26:45Z</time>
      </trkpt>
      <trkpt lat="46.73319" lon="6.34386">
        <ele>1314</ele>
        <time>2014-05-21T08:26:54Z</time>
      </trkpt>
      <trkpt lat="46.73318" lon="6.3439">
        <ele>1315</ele>
        <time>2014-05-21T08:27:00Z</time>
      </trkpt>
      <trkpt lat="46.73316" lon="6.34406">
        <ele>1317</ele>
        <time>2014-05-21T08:27:22Z</time>
      </trkpt>
      <trkpt lat="46.73314" lon="6.34419">
        <ele>1317</ele>
        <time>2014-05-21T08:27:39Z</time>
      </trkpt>
      <trkpt lat="46.73313" lon="6.34426">
        <ele>1317</ele>
        <time>2014-05-21T08:27:50Z</time>
      </trkpt>
      <trkpt lat="46.73309" lon="6.34437">
        <ele>1316</ele>
        <time>2014-05-21T08:28:11Z</time>
      </trkpt>
      <trkpt lat="46.73309" lon="6.3445">
        <ele>1314</ele>
        <time>2014-05-21T08:28:24Z</time>
      </trkpt>
      <trkpt lat="46.73307" lon="6.34463">
        <ele>1317</ele>
        <time>2014-05-21T08:28:42Z</time>
      </trkpt>
      <trkpt lat="46.73307" lon="6.3448">
        <ele>1320</ele>
        <time>2014-05-21T08:28:59Z</time>
      </trkpt>
      <trkpt lat="46.73304" lon="6.34493">
        <ele>1324</ele>
        <time>2014-05-21T08:29:16Z</time>
      </trkpt>
      <trkpt lat="46.73303" lon="6.34506">
        <ele>1327</ele>
        <time>2014-05-21T08:29:35Z</time>
      </trkpt>
      <trkpt lat="46.73298" lon="6.34522">
        <ele>1330</ele>
        <time>2014-05-21T08:29:59Z</time>
      </trkpt>
      <trkpt lat="46.73296" lon="6.3454">
        <ele>1329</ele>
        <time>2014-05-21T08:30:23Z</time>
      </trkpt>
      <trkpt lat="46.73292" lon="6.34552">
        <ele>1328</ele>
        <time>2014-05-21T08:30:42Z</time>
      </trkpt>
      <trkpt lat="46.73292" lon="6.34567">
        <ele>1327</ele>
        <time>2014-05-21T08:31:02Z</time>
      </trkpt>
      <trkpt lat="46.73289" lon="6.34579">
        <ele>1330</ele>
        <time>2014-05-21T08:31:16Z</time>
      </trkpt>
      <trkpt lat="46.73286" lon="6.34592">
        <ele>1330</ele>
        <time>2014-05-21T08:31:33Z</time>
      </trkpt>
      <trkpt lat="46.73282" lon="6.34608">
        <ele>1336</ele>
        <time>2014-05-21T08:32:12Z</time>
      </trkpt>
      <trkpt lat="46.73278" lon="6.34621">
        <ele>1339</ele>
        <time>2014-05-21T08:32:24Z</time>
      </trkpt>
      <trkpt lat="46.73277" lon="6.34634">
        <ele>1340</ele>
        <time>2014-05-21T08:32:39Z</time>
      </trkpt>
      <trkpt lat="46.73273" lon="6.34647">
        <ele>1343</ele>
        <time>2014-05-21T08:32:55Z</time>
      </trkpt>
      <trkpt lat="46.73267" lon="6.34657">
        <ele>1345</ele>
        <time>2014-05-21T08:33:10Z</time>
      </trkpt>
      <trkpt lat="46.73268" lon="6.34668">
        <ele>1340</ele>
        <time>2014-05-21T08:34:09Z</time>
      </trkpt>
      <trkpt lat="46.73267" lon="6.34672">
        <ele>1341</ele>
        <time>2014-05-21T08:34:28Z</time>
      </trkpt>
      <trkpt lat="46.73268" lon="6.34679">
        <ele>1341</ele>
        <time>2014-05-21T08:34:36Z</time>
      </trkpt>
      <trkpt lat="46.73271" lon="6.34683">
        <ele>1342</ele>
        <time>2014-05-21T08:34:44Z</time>
      </trkpt>
      <trkpt lat="46.73274" lon="6.34689">
        <ele>1343</ele>
        <time>2014-05-21T08:34:50Z</time>
      </trkpt>
      <trkpt lat="46.73278" lon="6.34693">
        <ele>1344</ele>
        <time>2014-05-21T08:34:59Z</time>
      </trkpt>
      <trkpt lat="46.73282" lon="6.34705">
        <ele>1345</ele>
        <time>2014-05-21T08:35:11Z</time>
      </trkpt>
      <trkpt lat="46.73286" lon="6.34714">
        <ele>1348</ele>
        <time>2014-05-21T08:35:28Z</time>
      </trkpt>
      <trkpt lat="46.73288" lon="6.34728">
        <ele>1349</ele>
        <time>2014-05-21T08:35:38Z</time>
      </trkpt>
      <trkpt lat="46.73291" lon="6.34741">
        <ele>1349</ele>
        <time>2014-05-21T08:35:51Z</time>
      </trkpt>
      <trkpt lat="46.73292" lon="6.3475">
        <ele>1350</ele>
        <time>2014-05-21T08:35:58Z</time>
      </trkpt>
      <trkpt lat="46.73294" lon="6.34756">
        <ele>1353</ele>
        <time>2014-05-21T08:36:05Z</time>
      </trkpt>
      <trkpt lat="46.73296" lon="6.34763">
        <ele>1355</ele>
        <time>2014-05-21T08:36:19Z</time>
      </trkpt>
      <trkpt lat="46.73298" lon="6.34769">
        <ele>1356</ele>
        <time>2014-05-21T08:36:30Z</time>
      </trkpt>
      <trkpt lat="46.73297" lon="6.34776">
        <ele>1356</ele>
        <time>2014-05-21T08:36:37Z</time>
      </trkpt>
      <trkpt lat="46.73297" lon="6.34784">
        <ele>1356</ele>
        <time>2014-05-21T08:36:43Z</time>
      </trkpt>
      <trkpt lat="46.73298" lon="6.34791">
        <ele>1358</ele>
        <time>2014-05-21T08:36:50Z</time>
      </trkpt>
      <trkpt lat="46.73298" lon="6.34804">
        <ele>1360</ele>
        <time>2014-05-21T08:37:05Z</time>
      </trkpt>
      <trkpt lat="46.73305" lon="6.34813">
        <ele>1362</ele>
        <time>2014-05-21T08:37:23Z</time>
      </trkpt>
      <trkpt lat="46.73303" lon="6.34826">
        <ele>1365</ele>
        <time>2014-05-21T08:38:08Z</time>
      </trkpt>
      <trkpt lat="46.73303" lon="6.3484">
        <ele>1367</ele>
        <time>2014-05-21T08:38:19Z</time>
      </trkpt>
      <trkpt lat="46.73303" lon="6.34854">
        <ele>1368</ele>
        <time>2014-05-21T08:38:31Z</time>
      </trkpt>
      <trkpt lat="46.73301" lon="6.34867">
        <ele>1369</ele>
        <time>2014-05-21T08:38:43Z</time>
      </trkpt>
      <trkpt lat="46.73301" lon="6.34883">
        <ele>1371</ele>
        <time>2014-05-21T08:39:03Z</time>
      </trkpt>
      <trkpt lat="46.733" lon="6.34896">
        <ele>1372</ele>
        <time>2014-05-21T08:39:13Z</time>
      </trkpt>
      <trkpt lat="46.73301" lon="6.3491">
        <ele>1376</ele>
        <time>2014-05-21T08:39:25Z</time>
      </trkpt>
      <trkpt lat="46.73302" lon="6.34923">
        <ele>1380</ele>
        <time>2014-05-21T08:39:37Z</time>
      </trkpt>
      <trkpt lat="46.73302" lon="6.34937">
        <ele>1384</ele>
        <time>2014-05-21T08:39:49Z</time>
      </trkpt>
      <trkpt lat="46.733" lon="6.34951">
        <ele>1387</ele>
        <time>2014-05-21T08:40:15Z</time>
      </trkpt>
      <trkpt lat="46.73301" lon="6.34964">
        <ele>1390</ele>
        <time>2014-05-21T08:40:28Z</time>
      </trkpt>
      <trkpt lat="46.73302" lon="6.34978">
        <ele>1394</ele>
        <time>2014-05-21T08:40:39Z</time>
      </trkpt>
      <trkpt lat="46.73303" lon="6.34985">
        <ele>1395</ele>
        <time>2014-05-21T08:40:45Z</time>
      </trkpt>
      <trkpt lat="46.73306" lon="6.34987">
        <ele>1395</ele>
        <time>2014-05-21T08:41:01Z</time>
      </trkpt>
      <trkpt lat="46.73308" lon="6.34993">
        <ele>1394</ele>
        <time>2014-05-21T08:41:06Z</time>
      </trkpt>
      <trkpt lat="46.73311" lon="6.34998">
        <ele>1393</ele>
        <time>2014-05-21T08:41:13Z</time>
      </trkpt>
      <trkpt lat="46.73313" lon="6.35001">
        <ele>1393</ele>
        <time>2014-05-21T08:41:47Z</time>
      </trkpt>
      <trkpt lat="46.73317" lon="6.35009">
        <ele>1393</ele>
        <time>2014-05-21T08:41:59Z</time>
      </trkpt>
      <trkpt lat="46.73318" lon="6.35017">
        <ele>1393</ele>
        <time>2014-05-21T08:42:04Z</time>
      </trkpt>
      <trkpt lat="46.7332" lon="6.35024">
        <ele>1394</ele>
        <time>2014-05-21T08:42:09Z</time>
      </trkpt>
      <trkpt lat="46.73322" lon="6.35031">
        <ele>1393</ele>
        <time>2014-05-21T08:42:26Z</time>
      </trkpt>
      <trkpt lat="46.73324" lon="6.35037">
        <ele>1394</ele>
        <time>2014-05-21T08:42:31Z</time>
      </trkpt>
      <trkpt lat="46.73326" lon="6.35045">
        <ele>1395</ele>
        <time>2014-05-21T08:42:35Z</time>
      </trkpt>
      <trkpt lat="46.73328" lon="6.35052">
        <ele>1396</ele>
        <time>2014-05-21T08:42:39Z</time>
      </trkpt>
      <trkpt lat="46.7333" lon="6.35058">
        <ele>1398</ele>
        <time>2014-05-21T08:42:44Z</time>
      </trkpt>
      <trkpt lat="46.7333" lon="6.35066">
        <ele>1399</ele>
        <time>2014-05-21T08:42:49Z</time>
      </trkpt>
      <trkpt lat="46.73331" lon="6.35073">
        <ele>1400</ele>
        <time>2014-05-21T08:42:53Z</time>
      </trkpt>
      <trkpt lat="46.73335" lon="6.35079">
        <ele>1399</ele>
        <time>2014-05-21T08:43:00Z</time>
      </trkpt>
      <trkpt lat="46.73337" lon="6.35086">
        <ele>1399</ele>
        <time>2014-05-21T08:43:05Z</time>
      </trkpt>
      <trkpt lat="46.73339" lon="6.35092">
        <ele>1400</ele>
        <time>2014-05-21T08:43:11Z</time>
      </trkpt>
      <trkpt lat="46.73342" lon="6.35098">
        <ele>1401</ele>
        <time>2014-05-21T08:43:16Z</time>
      </trkpt>
      <trkpt lat="46.73345" lon="6.35104">
        <ele>1402</ele>
        <time>2014-05-21T08:43:21Z</time>
      </trkpt>
      <trkpt lat="46.73349" lon="6.35108">
        <ele>1403</ele>
        <time>2014-05-21T08:43:27Z</time>
      </trkpt>
      <trkpt lat="46.73352" lon="6.35114">
        <ele>1404</ele>
        <time>2014-05-21T08:43:33Z</time>
      </trkpt>
      <trkpt lat="46.73353" lon="6.35121">
        <ele>1405</ele>
        <time>2014-05-21T08:43:39Z</time>
      </trkpt>
      <trkpt lat="46.73356" lon="6.35127">
        <ele>1407</ele>
        <time>2014-05-21T08:43:47Z</time>
      </trkpt>
      <trkpt lat="46.7336" lon="6.35132">
        <ele>1408</ele>
        <time>2014-05-21T08:43:53Z</time>
      </trkpt>
      <trkpt lat="46.73361" lon="6.35139">
        <ele>1409</ele>
        <time>2014-05-21T08:43:59Z</time>
      </trkpt>
      <trkpt lat="46.73363" lon="6.35145">
        <ele>1410</ele>
        <time>2014-05-21T08:44:04Z</time>
      </trkpt>
      <trkpt lat="46.73365" lon="6.35151">
        <ele>1411</ele>
        <time>2014-05-21T08:44:09Z</time>
      </trkpt>
      <trkpt lat="46.73368" lon="6.35156">
        <ele>1411</ele>
        <time>2014-05-21T08:44:15Z</time>
      </trkpt>
      <trkpt lat="46.73371" lon="6.35161">
        <ele>1410</ele>
        <time>2014-05-21T08:44:21Z</time>
      </trkpt>
      <trkpt lat="46.73374" lon="6.35167">
        <ele>1411</ele>
        <time>2014-05-21T08:44:27Z</time>
      </trkpt>
      <trkpt lat="46.73377" lon="6.35172">
        <ele>1411</ele>
        <time>2014-05-21T08:44:33Z</time>
      </trkpt>
      <trkpt lat="46.7338" lon="6.35177">
        <ele>1411</ele>
        <time>2014-05-21T08:44:39Z</time>
      </trkpt>
      <trkpt lat="46.73382" lon="6.35184">
        <ele>1411</ele>
        <time>2014-05-21T08:44:45Z</time>
      </trkpt>
      <trkpt lat="46.73384" lon="6.3519">
        <ele>1412</ele>
        <time>2014-05-21T08:44:50Z</time>
      </trkpt>
      <trkpt lat="46.73386" lon="6.35195">
        <ele>1414</ele>
        <time>2014-05-21T08:44:59Z</time>
      </trkpt>
      <trkpt lat="46.7339" lon="6.35203">
        <ele>1415</ele>
        <time>2014-05-21T08:45:17Z</time>
      </trkpt>
      <trkpt lat="46.73394" lon="6.35208">
        <ele>1417</ele>
        <time>2014-05-21T08:45:23Z</time>
      </trkpt>
      <trkpt lat="46.73397" lon="6.35213">
        <ele>1418</ele>
        <time>2014-05-21T08:45:29Z</time>
      </trkpt>
      <trkpt lat="46.73403" lon="6.35224">
        <ele>1417</ele>
        <time>2014-05-21T08:45:45Z</time>
      </trkpt>
      <trkpt lat="46.7341" lon="6.35234">
        <ele>1415</ele>
        <time>2014-05-21T08:45:58Z</time>
      </trkpt>
      <trkpt lat="46.73412" lon="6.3524">
        <ele>1415</ele>
        <time>2014-05-21T08:46:05Z</time>
      </trkpt>
      <trkpt lat="46.73409" lon="6.35245">
        <ele>1417</ele>
        <time>2014-05-21T08:46:16Z</time>
      </trkpt>
      <trkpt lat="46.73408" lon="6.35251">
        <ele>1420</ele>
        <time>2014-05-21T08:48:10Z</time>
      </trkpt>
      <trkpt lat="46.73412" lon="6.35258">
        <ele>1423</ele>
        <time>2014-05-21T08:50:07Z</time>
      </trkpt>
      <trkpt lat="46.73415" lon="6.35263">
        <ele>1423</ele>
        <time>2014-05-21T08:50:12Z</time>
      </trkpt>
      <trkpt lat="46.73418" lon="6.35269">
        <ele>1422</ele>
        <time>2014-05-21T08:50:18Z</time>
      </trkpt>
      <trkpt lat="46.73423" lon="6.35272">
        <ele>1421</ele>
        <time>2014-05-21T08:50:23Z</time>
      </trkpt>
      <trkpt lat="46.73426" lon="6.35277">
        <ele>1421</ele>
        <time>2014-05-21T08:50:27Z</time>
      </trkpt>
      <trkpt lat="46.7343" lon="6.35282">
        <ele>1422</ele>
        <time>2014-05-21T08:50:33Z</time>
      </trkpt>
      <trkpt lat="46.73434" lon="6.35284">
        <ele>1424</ele>
        <time>2014-05-21T08:50:38Z</time>
      </trkpt>
      <trkpt lat="46.73439" lon="6.35286">
        <ele>1424</ele>
        <time>2014-05-21T08:50:44Z</time>
      </trkpt>
      <trkpt lat="46.73443" lon="6.35289">
        <ele>1425</ele>
        <time>2014-05-21T08:50:49Z</time>
      </trkpt>
      <trkpt lat="46.73448" lon="6.35291">
        <ele>1425</ele>
        <time>2014-05-21T08:50:54Z</time>
      </trkpt>
      <trkpt lat="46.73452" lon="6.35293">
        <ele>1426</ele>
        <time>2014-05-21T08:50:59Z</time>
      </trkpt>
      <trkpt lat="46.73461" lon="6.353">
        <ele>1425</ele>
        <time>2014-05-21T08:51:11Z</time>
      </trkpt>
      <trkpt lat="46.73467" lon="6.35304">
        <ele>1421</ele>
        <time>2014-05-21T08:51:26Z</time>
      </trkpt>
      <trkpt lat="46.73466" lon="6.35313">
        <ele>1421</ele>
        <time>2014-05-21T08:51:34Z</time>
      </trkpt>
      <trkpt lat="46.73467" lon="6.35321">
        <ele>1423</ele>
        <time>2014-05-21T08:51:41Z</time>
      </trkpt>
      <trkpt lat="46.73467" lon="6.35328">
        <ele>1424</ele>
        <time>2014-05-21T08:51:46Z</time>
      </trkpt>
      <trkpt lat="46.73466" lon="6.35335">
        <ele>1427</ele>
        <time>2014-05-21T08:51:51Z</time>
      </trkpt>
      <trkpt lat="46.73469" lon="6.35342">
        <ele>1427</ele>
        <time>2014-05-21T08:51:57Z</time>
      </trkpt>
      <trkpt lat="46.73471" lon="6.35356">
        <ele>1427</ele>
        <time>2014-05-21T08:52:49Z</time>
      </trkpt>
      <trkpt lat="46.73474" lon="6.3537">
        <ele>1429</ele>
        <time>2014-05-21T08:53:00Z</time>
      </trkpt>
      <trkpt lat="46.73476" lon="6.35384">
        <ele>1431</ele>
        <time>2014-05-21T08:53:09Z</time>
      </trkpt>
      <trkpt lat="46.73478" lon="6.35397">
        <ele>1433</ele>
        <time>2014-05-21T08:53:17Z</time>
      </trkpt>
      <trkpt lat="46.73481" lon="6.3541">
        <ele>1434</ele>
        <time>2014-05-21T08:53:29Z</time>
      </trkpt>
      <trkpt lat="46.73486" lon="6.35421">
        <ele>1433</ele>
        <time>2014-05-21T08:53:41Z</time>
      </trkpt>
      <trkpt lat="46.73491" lon="6.35433">
        <ele>1432</ele>
        <time>2014-05-21T08:53:52Z</time>
      </trkpt>
      <trkpt lat="46.73497" lon="6.35445">
        <ele>1432</ele>
        <time>2014-05-21T08:54:08Z</time>
      </trkpt>
      <trkpt lat="46.73497" lon="6.35454">
        <ele>1434</ele>
        <time>2014-05-21T08:54:22Z</time>
      </trkpt>
      <trkpt lat="46.73489" lon="6.35461">
        <ele>1437</ele>
        <time>2014-05-21T08:54:43Z</time>
      </trkpt>
      <trkpt lat="46.73484" lon="6.35456">
        <ele>1440</ele>
        <time>2014-05-21T08:54:51Z</time>
      </trkpt>
      <trkpt lat="46.7348" lon="6.35452">
        <ele>1442</ele>
        <time>2014-05-21T08:54:57Z</time>
      </trkpt>
      <trkpt lat="46.73476" lon="6.35453">
        <ele>1443</ele>
        <time>2014-05-21T08:55:04Z</time>
      </trkpt>
      <trkpt lat="46.73471" lon="6.35454">
        <ele>1443</ele>
        <time>2014-05-21T08:55:12Z</time>
      </trkpt>
      <trkpt lat="46.7347" lon="6.35457">
        <ele>1443</ele>
        <time>2014-05-21T08:55:18Z</time>
      </trkpt>
      <trkpt lat="46.73467" lon="6.35458">
        <ele>1442</ele>
        <time>2014-05-21T08:56:30Z</time>
      </trkpt>
      <trkpt lat="46.73463" lon="6.35462">
        <ele>1442</ele>
        <time>2014-05-21T08:56:37Z</time>
      </trkpt>
      <trkpt lat="46.7346" lon="6.35467">
        <ele>1441</ele>
        <time>2014-05-21T08:56:44Z</time>
      </trkpt>
      <trkpt lat="46.73456" lon="6.35474">
        <ele>1444</ele>
        <time>2014-05-21T08:57:08Z</time>
      </trkpt>
      <trkpt lat="46.73455" lon="6.35478">
        <ele>1444</ele>
        <time>2014-05-21T08:57:14Z</time>
      </trkpt>
      <trkpt lat="46.73452" lon="6.35483">
        <ele>1445</ele>
        <time>2014-05-21T08:57:37Z</time>
      </trkpt>
      <trkpt lat="46.73449" lon="6.35488">
        <ele>1447</ele>
        <time>2014-05-21T08:57:41Z</time>
      </trkpt>
      <trkpt lat="46.73446" lon="6.35492">
        <ele>1447</ele>
        <time>2014-05-21T08:57:45Z</time>
      </trkpt>
      <trkpt lat="46.73442" lon="6.35498">
        <ele>1448</ele>
        <time>2014-05-21T08:57:50Z</time>
      </trkpt>
      <trkpt lat="46.7344" lon="6.35502">
        <ele>1449</ele>
        <time>2014-05-21T08:58:01Z</time>
      </trkpt>
      <trkpt lat="46.7344" lon="6.35505">
        <ele>1451</ele>
        <time>2014-05-21T08:58:12Z</time>
      </trkpt>
      <trkpt lat="46.73438" lon="6.35511">
        <ele>1452</ele>
        <time>2014-05-21T08:58:23Z</time>
      </trkpt>
      <trkpt lat="46.73436" lon="6.35517">
        <ele>1452</ele>
        <time>2014-05-21T08:58:31Z</time>
      </trkpt>
      <trkpt lat="46.73432" lon="6.35521">
        <ele>1452</ele>
        <time>2014-05-21T08:58:38Z</time>
      </trkpt>
      <trkpt lat="46.73428" lon="6.35525">
        <ele>1452</ele>
        <time>2014-05-21T08:58:46Z</time>
      </trkpt>
      <trkpt lat="46.73424" lon="6.3553">
        <ele>1452</ele>
        <time>2014-05-21T08:58:52Z</time>
      </trkpt>
      <trkpt lat="46.73423" lon="6.35534">
        <ele>1452</ele>
        <time>2014-05-21T08:59:04Z</time>
      </trkpt>
      <trkpt lat="46.73419" lon="6.3554">
        <ele>1453</ele>
        <time>2014-05-21T08:59:47Z</time>
      </trkpt>
      <trkpt lat="46.73417" lon="6.35546">
        <ele>1453</ele>
        <time>2014-05-21T08:59:52Z</time>
      </trkpt>
      <trkpt lat="46.73412" lon="6.35552">
        <ele>1455</ele>
        <time>2014-05-21T09:00:04Z</time>
      </trkpt>
      <trkpt lat="46.73402" lon="6.35565">
        <ele>1457</ele>
        <time>2014-05-21T09:00:34Z</time>
      </trkpt>
      <trkpt lat="46.73396" lon="6.35575">
        <ele>1455</ele>
        <time>2014-05-21T09:00:46Z</time>
      </trkpt>
      <trkpt lat="46.73392" lon="6.35588">
        <ele>1457</ele>
        <time>2014-05-21T09:00:59Z</time>
      </trkpt>
      <trkpt lat="46.73384" lon="6.35596">
        <ele>1459</ele>
        <time>2014-05-21T09:01:10Z</time>
      </trkpt>
      <trkpt lat="46.73379" lon="6.35608">
        <ele>1461</ele>
        <time>2014-05-21T09:01:23Z</time>
      </trkpt>
      <trkpt lat="46.73374" lon="6.35619">
        <ele>1464</ele>
        <time>2014-05-21T09:01:36Z</time>
      </trkpt>
      <trkpt lat="46.73372" lon="6.35627">
        <ele>1465</ele>
        <time>2014-05-21T09:02:05Z</time>
      </trkpt>
      <trkpt lat="46.73368" lon="6.35632">
        <ele>1465</ele>
        <time>2014-05-21T09:02:10Z</time>
      </trkpt>
      <trkpt lat="46.73365" lon="6.35637">
        <ele>1465</ele>
        <time>2014-05-21T09:02:15Z</time>
      </trkpt>
      <trkpt lat="46.73361" lon="6.35642">
        <ele>1466</ele>
        <time>2014-05-21T09:02:20Z</time>
      </trkpt>
      <trkpt lat="46.73359" lon="6.35648">
        <ele>1466</ele>
        <time>2014-05-21T09:02:27Z</time>
      </trkpt>
      <trkpt lat="46.73357" lon="6.35654">
        <ele>1466</ele>
        <time>2014-05-21T09:02:35Z</time>
      </trkpt>
      <trkpt lat="46.73354" lon="6.35659">
        <ele>1466</ele>
        <time>2014-05-21T09:02:42Z</time>
      </trkpt>
      <trkpt lat="46.7335" lon="6.35663">
        <ele>1466</ele>
        <time>2014-05-21T09:02:48Z</time>
      </trkpt>
      <trkpt lat="46.73347" lon="6.35668">
        <ele>1466</ele>
        <time>2014-05-21T09:03:02Z</time>
      </trkpt>
      <trkpt lat="46.73343" lon="6.35673">
        <ele>1466</ele>
        <time>2014-05-21T09:03:24Z</time>
      </trkpt>
      <trkpt lat="46.73342" lon="6.35677">
        <ele>1466</ele>
        <time>2014-05-21T09:03:30Z</time>
      </trkpt>
      <trkpt lat="46.73341" lon="6.3568">
        <ele>1467</ele>
        <time>2014-05-21T09:05:15Z</time>
      </trkpt>
      <trkpt lat="46.73338" lon="6.35682">
        <ele>1465</ele>
        <time>2014-05-21T09:05:56Z</time>
      </trkpt>
      <trkpt lat="46.73336" lon="6.35687">
        <ele>1464</ele>
        <time>2014-05-21T09:06:07Z</time>
      </trkpt>
      <trkpt lat="46.73333" lon="6.35687">
        <ele>1464</ele>
        <time>2014-05-21T09:07:06Z</time>
      </trkpt>
      <trkpt lat="46.73328" lon="6.35682">
        <ele>1464</ele>
        <time>2014-05-21T09:07:19Z</time>
      </trkpt>
      <trkpt lat="46.73324" lon="6.35678">
        <ele>1465</ele>
        <time>2014-05-21T09:07:24Z</time>
      </trkpt>
      <trkpt lat="46.73322" lon="6.35676">
        <ele>1466</ele>
        <time>2014-05-21T09:07:52Z</time>
      </trkpt>
      <trkpt lat="46.73316" lon="6.35679">
        <ele>1466</ele>
        <time>2014-05-21T09:08:14Z</time>
      </trkpt>
      <trkpt lat="46.73312" lon="6.35683">
        <ele>1466</ele>
        <time>2014-05-21T09:08:20Z</time>
      </trkpt>
      <trkpt lat="46.73307" lon="6.35681">
        <ele>1465</ele>
        <time>2014-05-21T09:08:25Z</time>
      </trkpt>
      <trkpt lat="46.73302" lon="6.35681">
        <ele>1465</ele>
        <time>2014-05-21T09:08:30Z</time>
      </trkpt>
      <trkpt lat="46.73297" lon="6.35682">
        <ele>1464</ele>
        <time>2014-05-21T09:08:35Z</time>
      </trkpt>
      <trkpt lat="46.73296" lon="6.35679">
        <ele>1463</ele>
        <time>2014-05-21T09:08:58Z</time>
      </trkpt>
      <trkpt lat="46.73291" lon="6.35677">
        <ele>1463</ele>
        <time>2014-05-21T09:09:07Z</time>
      </trkpt>
      <trkpt lat="46.73287" lon="6.3568">
        <ele>1463</ele>
        <time>2014-05-21T09:09:12Z</time>
      </trkpt>
      <trkpt lat="46.73282" lon="6.35682">
        <ele>1463</ele>
        <time>2014-05-21T09:09:17Z</time>
      </trkpt>
      <trkpt lat="46.73277" lon="6.35682">
        <ele>1464</ele>
        <time>2014-05-21T09:09:22Z</time>
      </trkpt>
      <trkpt lat="46.73272" lon="6.35684">
        <ele>1463</ele>
        <time>2014-05-21T09:09:29Z</time>
      </trkpt>
      <trkpt lat="46.73268" lon="6.35682">
        <ele>1461</ele>
        <time>2014-05-21T09:09:35Z</time>
      </trkpt>
      <trkpt lat="46.73263" lon="6.35683">
        <ele>1461</ele>
        <time>2014-05-21T09:09:41Z</time>
      </trkpt>
      <trkpt lat="46.73258" lon="6.35684">
        <ele>1460</ele>
        <time>2014-05-21T09:09:46Z</time>
      </trkpt>
      <trkpt lat="46.73254" lon="6.35686">
        <ele>1460</ele>
        <time>2014-05-21T09:09:51Z</time>
      </trkpt>
      <trkpt lat="46.7325" lon="6.3569">
        <ele>1459</ele>
        <time>2014-05-21T09:09:57Z</time>
      </trkpt>
      <trkpt lat="46.73242" lon="6.35695">
        <ele>1454</ele>
        <time>2014-05-21T09:10:32Z</time>
      </trkpt>
      <trkpt lat="46.73237" lon="6.35692">
        <ele>1453</ele>
        <time>2014-05-21T09:10:39Z</time>
      </trkpt>
      <trkpt lat="46.73233" lon="6.35694">
        <ele>1452</ele>
        <time>2014-05-21T09:10:44Z</time>
      </trkpt>
      <trkpt lat="46.73228" lon="6.35695">
        <ele>1451</ele>
        <time>2014-05-21T09:10:49Z</time>
      </trkpt>
      <trkpt lat="46.73223" lon="6.35696">
        <ele>1450</ele>
        <time>2014-05-21T09:10:54Z</time>
      </trkpt>
      <trkpt lat="46.73219" lon="6.35697">
        <ele>1449</ele>
        <time>2014-05-21T09:10:58Z</time>
      </trkpt>
      <trkpt lat="46.73214" lon="6.357">
        <ele>1449</ele>
        <time>2014-05-21T09:11:04Z</time>
      </trkpt>
      <trkpt lat="46.73209" lon="6.35701">
        <ele>1449</ele>
        <time>2014-05-21T09:11:08Z</time>
      </trkpt>
      <trkpt lat="46.73204" lon="6.35704">
        <ele>1449</ele>
        <time>2014-05-21T09:11:13Z</time>
      </trkpt>
      <trkpt lat="46.732" lon="6.35706">
        <ele>1449</ele>
        <time>2014-05-21T09:11:17Z</time>
      </trkpt>
      <trkpt lat="46.73195" lon="6.35708">
        <ele>1450</ele>
        <time>2014-05-21T09:11:21Z</time>
      </trkpt>
      <trkpt lat="46.73191" lon="6.3571">
        <ele>1450</ele>
        <time>2014-05-21T09:11:25Z</time>
      </trkpt>
      <trkpt lat="46.73186" lon="6.35712">
        <ele>1449</ele>
        <time>2014-05-21T09:11:30Z</time>
      </trkpt>
      <trkpt lat="46.7318" lon="6.35713">
        <ele>1449</ele>
        <time>2014-05-21T09:11:35Z</time>
      </trkpt>
      <trkpt lat="46.73175" lon="6.35714">
        <ele>1448</ele>
        <time>2014-05-21T09:11:40Z</time>
      </trkpt>
      <trkpt lat="46.7317" lon="6.35715">
        <ele>1448</ele>
        <time>2014-05-21T09:11:45Z</time>
      </trkpt>
      <trkpt lat="46.73165" lon="6.35716">
        <ele>1448</ele>
        <time>2014-05-21T09:11:51Z</time>
      </trkpt>
      <trkpt lat="46.73161" lon="6.35717">
        <ele>1449</ele>
        <time>2014-05-21T09:11:56Z</time>
      </trkpt>
      <trkpt lat="46.73156" lon="6.35716">
        <ele>1449</ele>
        <time>2014-05-21T09:12:01Z</time>
      </trkpt>
      <trkpt lat="46.73151" lon="6.35714">
        <ele>1450</ele>
        <time>2014-05-21T09:12:05Z</time>
      </trkpt>
      <trkpt lat="46.73146" lon="6.35714">
        <ele>1450</ele>
        <time>2014-05-21T09:12:11Z</time>
      </trkpt>
      <trkpt lat="46.73141" lon="6.35712">
        <ele>1450</ele>
        <time>2014-05-21T09:12:15Z</time>
      </trkpt>
      <trkpt lat="46.73136" lon="6.35713">
        <ele>1450</ele>
        <time>2014-05-21T09:12:20Z</time>
      </trkpt>
      <trkpt lat="46.73131" lon="6.35714">
        <ele>1450</ele>
        <time>2014-05-21T09:12:26Z</time>
      </trkpt>
      <trkpt lat="46.73129" lon="6.35713">
        <ele>1448</ele>
        <time>2014-05-21T09:12:49Z</time>
      </trkpt>
      <trkpt lat="46.73123" lon="6.35715">
        <ele>1447</ele>
        <time>2014-05-21T09:12:56Z</time>
      </trkpt>
      <trkpt lat="46.73119" lon="6.35717">
        <ele>1446</ele>
        <time>2014-05-21T09:13:01Z</time>
      </trkpt>
      <trkpt lat="46.73114" lon="6.35718">
        <ele>1446</ele>
        <time>2014-05-21T09:13:05Z</time>
      </trkpt>
      <trkpt lat="46.73108" lon="6.35718">
        <ele>1447</ele>
        <time>2014-05-21T09:13:09Z</time>
      </trkpt>
      <trkpt lat="46.73104" lon="6.35715">
        <ele>1448</ele>
        <time>2014-05-21T09:13:12Z</time>
      </trkpt>
      <trkpt lat="46.731" lon="6.35713">
        <ele>1448</ele>
        <time>2014-05-21T09:13:16Z</time>
      </trkpt>
      <trkpt lat="46.73095" lon="6.35715">
        <ele>1448</ele>
        <time>2014-05-21T09:13:21Z</time>
      </trkpt>
      <trkpt lat="46.73091" lon="6.35721">
        <ele>1448</ele>
        <time>2014-05-21T09:13:26Z</time>
      </trkpt>
      <trkpt lat="46.73086" lon="6.3572">
        <ele>1449</ele>
        <time>2014-05-21T09:13:33Z</time>
      </trkpt>
      <trkpt lat="46.73081" lon="6.35718">
        <ele>1449</ele>
        <time>2014-05-21T09:13:39Z</time>
      </trkpt>
      <trkpt lat="46.73077" lon="6.35718">
        <ele>1448</ele>
        <time>2014-05-21T09:13:49Z</time>
      </trkpt>
      <trkpt lat="46.73072" lon="6.35718">
        <ele>1448</ele>
        <time>2014-05-21T09:14:02Z</time>
      </trkpt>
      <trkpt lat="46.73067" lon="6.35719">
        <ele>1449</ele>
        <time>2014-05-21T09:14:06Z</time>
      </trkpt>
      <trkpt lat="46.73063" lon="6.35722">
        <ele>1449</ele>
        <time>2014-05-21T09:14:11Z</time>
      </trkpt>
      <trkpt lat="46.73058" lon="6.35723">
        <ele>1449</ele>
        <time>2014-05-21T09:14:17Z</time>
      </trkpt>
      <trkpt lat="46.73053" lon="6.35725">
        <ele>1449</ele>
        <time>2014-05-21T09:14:23Z</time>
      </trkpt>
      <trkpt lat="46.73048" lon="6.35725">
        <ele>1450</ele>
        <time>2014-05-21T09:14:28Z</time>
      </trkpt>
      <trkpt lat="46.73043" lon="6.35723">
        <ele>1451</ele>
        <time>2014-05-21T09:14:33Z</time>
      </trkpt>
      <trkpt lat="46.73037" lon="6.3572">
        <ele>1450</ele>
        <time>2014-05-21T09:14:50Z</time>
      </trkpt>
      <trkpt lat="46.73033" lon="6.35718">
        <ele>1450</ele>
        <time>2014-05-21T09:14:57Z</time>
      </trkpt>
      <trkpt lat="46.73028" lon="6.35718">
        <ele>1450</ele>
        <time>2014-05-21T09:15:04Z</time>
      </trkpt>
      <trkpt lat="46.73023" lon="6.35717">
        <ele>1450</ele>
        <time>2014-05-21T09:15:10Z</time>
      </trkpt>
      <trkpt lat="46.73018" lon="6.35717">
        <ele>1451</ele>
        <time>2014-05-21T09:15:17Z</time>
      </trkpt>
      <trkpt lat="46.73013" lon="6.35716">
        <ele>1451</ele>
        <time>2014-05-21T09:15:26Z</time>
      </trkpt>
      <trkpt lat="46.73009" lon="6.35713">
        <ele>1452</ele>
        <time>2014-05-21T09:15:32Z</time>
      </trkpt>
      <trkpt lat="46.73004" lon="6.3571">
        <ele>1453</ele>
        <time>2014-05-21T09:15:40Z</time>
      </trkpt>
      <trkpt lat="46.73002" lon="6.35714">
        <ele>1453</ele>
        <time>2014-05-21T09:15:52Z</time>
      </trkpt>
      <trkpt lat="46.72998" lon="6.35712">
        <ele>1453</ele>
        <time>2014-05-21T09:15:58Z</time>
      </trkpt>
      <trkpt lat="46.72993" lon="6.35711">
        <ele>1454</ele>
        <time>2014-05-21T09:16:02Z</time>
      </trkpt>
      <trkpt lat="46.72989" lon="6.35713">
        <ele>1456</ele>
        <time>2014-05-21T09:16:07Z</time>
      </trkpt>
      <trkpt lat="46.72984" lon="6.35713">
        <ele>1456</ele>
        <time>2014-05-21T09:16:13Z</time>
      </trkpt>
      <trkpt lat="46.7298" lon="6.35711">
        <ele>1457</ele>
        <time>2014-05-21T09:16:22Z</time>
      </trkpt>
      <trkpt lat="46.72975" lon="6.35711">
        <ele>1457</ele>
        <time>2014-05-21T09:16:39Z</time>
      </trkpt>
      <trkpt lat="46.7297" lon="6.35708">
        <ele>1456</ele>
        <time>2014-05-21T09:16:48Z</time>
      </trkpt>
      <trkpt lat="46.72968" lon="6.3571">
        <ele>1457</ele>
        <time>2014-05-21T09:16:54Z</time>
      </trkpt>
      <trkpt lat="46.72963" lon="6.3571">
        <ele>1457</ele>
        <time>2014-05-21T09:17:02Z</time>
      </trkpt>
      <trkpt lat="46.72959" lon="6.35706">
        <ele>1458</ele>
        <time>2014-05-21T09:17:08Z</time>
      </trkpt>
      <trkpt lat="46.72956" lon="6.35705">
        <ele>1459</ele>
        <time>2014-05-21T09:17:14Z</time>
      </trkpt>
      <trkpt lat="46.7295" lon="6.35707">
        <ele>1459</ele>
        <time>2014-05-21T09:17:36Z</time>
      </trkpt>
      <trkpt lat="46.72946" lon="6.35707">
        <ele>1459</ele>
        <time>2014-05-21T09:17:43Z</time>
      </trkpt>
      <trkpt lat="46.72942" lon="6.35712">
        <ele>1459</ele>
        <time>2014-05-21T09:17:48Z</time>
      </trkpt>
      <trkpt lat="46.72938" lon="6.35713">
        <ele>1459</ele>
        <time>2014-05-21T09:17:55Z</time>
      </trkpt>
      <trkpt lat="46.72936" lon="6.3571">
        <ele>1460</ele>
        <time>2014-05-21T09:18:02Z</time>
      </trkpt>
      <trkpt lat="46.72933" lon="6.35711">
        <ele>1462</ele>
        <time>2014-05-21T09:18:12Z</time>
      </trkpt>
      <trkpt lat="46.72929" lon="6.35714">
        <ele>1464</ele>
        <time>2014-05-21T09:18:29Z</time>
      </trkpt>
      <trkpt lat="46.72925" lon="6.35715">
        <ele>1465</ele>
        <time>2014-05-21T09:18:39Z</time>
      </trkpt>
      <trkpt lat="46.72923" lon="6.35717">
        <ele>1466</ele>
        <time>2014-05-21T09:18:45Z</time>
      </trkpt>
      <trkpt lat="46.72921" lon="6.3572">
        <ele>1466</ele>
        <time>2014-05-21T09:19:08Z</time>
      </trkpt>
      <trkpt lat="46.72912" lon="6.3572">
        <ele>1467</ele>
        <time>2014-05-21T09:20:01Z</time>
      </trkpt>
      <trkpt lat="46.72905" lon="6.35723">
        <ele>1468</ele>
        <time>2014-05-21T09:20:13Z</time>
      </trkpt>
      <trkpt lat="46.72902" lon="6.35719">
        <ele>1468</ele>
        <time>2014-05-21T09:20:37Z</time>
      </trkpt>
      <trkpt lat="46.729" lon="6.35717">
        <ele>1468</ele>
        <time>2014-05-21T09:20:43Z</time>
      </trkpt>
      <trkpt lat="46.72895" lon="6.35714">
        <ele>1467</ele>
        <time>2014-05-21T09:20:57Z</time>
      </trkpt>
      <trkpt lat="46.72892" lon="6.35712">
        <ele>1466</ele>
        <time>2014-05-21T09:24:32Z</time>
      </trkpt>
      <trkpt lat="46.72887" lon="6.35711">
        <ele>1466</ele>
        <time>2014-05-21T09:24:38Z</time>
      </trkpt>
      <trkpt lat="46.72881" lon="6.35712">
        <ele>1466</ele>
        <time>2014-05-21T09:24:54Z</time>
      </trkpt>
      <trkpt lat="46.72877" lon="6.35715">
        <ele>1467</ele>
        <time>2014-05-21T09:25:00Z</time>
      </trkpt>
      <trkpt lat="46.72872" lon="6.35716">
        <ele>1468</ele>
        <time>2014-05-21T09:25:06Z</time>
      </trkpt>
      <trkpt lat="46.72867" lon="6.35717">
        <ele>1468</ele>
        <time>2014-05-21T09:25:12Z</time>
      </trkpt>
      <trkpt lat="46.72863" lon="6.35717">
        <ele>1469</ele>
        <time>2014-05-21T09:25:17Z</time>
      </trkpt>
      <trkpt lat="46.72858" lon="6.35718">
        <ele>1470</ele>
        <time>2014-05-21T09:25:22Z</time>
      </trkpt>
      <trkpt lat="46.72853" lon="6.35718">
        <ele>1471</ele>
        <time>2014-05-21T09:25:28Z</time>
      </trkpt>
      <trkpt lat="46.72849" lon="6.35721">
        <ele>1472</ele>
        <time>2014-05-21T09:25:33Z</time>
      </trkpt>
      <trkpt lat="46.72844" lon="6.35718">
        <ele>1472</ele>
        <time>2014-05-21T09:25:40Z</time>
      </trkpt>
      <trkpt lat="46.72839" lon="6.35717">
        <ele>1472</ele>
        <time>2014-05-21T09:25:45Z</time>
      </trkpt>
      <trkpt lat="46.72835" lon="6.35715">
        <ele>1472</ele>
        <time>2014-05-21T09:25:50Z</time>
      </trkpt>
      <trkpt lat="46.7283" lon="6.35713">
        <ele>1472</ele>
        <time>2014-05-21T09:25:55Z</time>
      </trkpt>
      <trkpt lat="46.72825" lon="6.35713">
        <ele>1471</ele>
        <time>2014-05-21T09:26:01Z</time>
      </trkpt>
      <trkpt lat="46.72819" lon="6.35713">
        <ele>1469</ele>
        <time>2014-05-21T09:26:12Z</time>
      </trkpt>
      <trkpt lat="46.72814" lon="6.35712">
        <ele>1468</ele>
        <time>2014-05-21T09:26:18Z</time>
      </trkpt>
      <trkpt lat="46.72809" lon="6.35711">
        <ele>1468</ele>
        <time>2014-05-21T09:26:22Z</time>
      </trkpt>
      <trkpt lat="46.72804" lon="6.3571">
        <ele>1468</ele>
        <time>2014-05-21T09:26:28Z</time>
      </trkpt>
      <trkpt lat="46.72799" lon="6.35709">
        <ele>1467</ele>
        <time>2014-05-21T09:26:36Z</time>
      </trkpt>
      <trkpt lat="46.72793" lon="6.35708">
        <ele>1468</ele>
        <time>2014-05-21T09:26:41Z</time>
      </trkpt>
      <trkpt lat="46.72789" lon="6.35707">
        <ele>1467</ele>
        <time>2014-05-21T09:26:44Z</time>
      </trkpt>
      <trkpt lat="46.72784" lon="6.35707">
        <ele>1467</ele>
        <time>2014-05-21T09:26:48Z</time>
      </trkpt>
      <trkpt lat="46.72779" lon="6.35709">
        <ele>1465</ele>
        <time>2014-05-21T09:26:53Z</time>
      </trkpt>
      <trkpt lat="46.72775" lon="6.35709">
        <ele>1466</ele>
        <time>2014-05-21T09:27:00Z</time>
      </trkpt>
      <trkpt lat="46.72773" lon="6.35707">
        <ele>1468</ele>
        <time>2014-05-21T09:27:06Z</time>
      </trkpt>
      <trkpt lat="46.72768" lon="6.35705">
        <ele>1469</ele>
        <time>2014-05-21T09:27:14Z</time>
      </trkpt>
      <trkpt lat="46.72764" lon="6.35705">
        <ele>1470</ele>
        <time>2014-05-21T09:27:22Z</time>
      </trkpt>
      <trkpt lat="46.72759" lon="6.35703">
        <ele>1472</ele>
        <time>2014-05-21T09:27:28Z</time>
      </trkpt>
      <trkpt lat="46.72755" lon="6.35711">
        <ele>1472</ele>
        <time>2014-05-21T09:27:53Z</time>
      </trkpt>
      <trkpt lat="46.7275" lon="6.3571">
        <ele>1472</ele>
        <time>2014-05-21T09:27:56Z</time>
      </trkpt>
      <trkpt lat="46.72745" lon="6.3571">
        <ele>1473</ele>
        <time>2014-05-21T09:28:00Z</time>
      </trkpt>
      <trkpt lat="46.7274" lon="6.35711">
        <ele>1474</ele>
        <time>2014-05-21T09:28:04Z</time>
      </trkpt>
      <trkpt lat="46.72735" lon="6.35712">
        <ele>1475</ele>
        <time>2014-05-21T09:28:08Z</time>
      </trkpt>
      <trkpt lat="46.7273" lon="6.35714">
        <ele>1475</ele>
        <time>2014-05-21T09:28:13Z</time>
      </trkpt>
      <trkpt lat="46.72725" lon="6.35716">
        <ele>1474</ele>
        <time>2014-05-21T09:28:19Z</time>
      </trkpt>
      <trkpt lat="46.7272" lon="6.35717">
        <ele>1475</ele>
        <time>2014-05-21T09:28:24Z</time>
      </trkpt>
      <trkpt lat="46.7271" lon="6.35717">
        <ele>1474</ele>
        <time>2014-05-21T09:28:32Z</time>
      </trkpt>
      <trkpt lat="46.72703" lon="6.35715">
        <ele>1474</ele>
        <time>2014-05-21T09:28:36Z</time>
      </trkpt>
      <trkpt lat="46.72698" lon="6.35715">
        <ele>1473</ele>
        <time>2014-05-21T09:28:42Z</time>
      </trkpt>
      <trkpt lat="46.72694" lon="6.35719">
        <ele>1473</ele>
        <time>2014-05-21T09:28:49Z</time>
      </trkpt>
      <trkpt lat="46.72688" lon="6.35718">
        <ele>1472</ele>
        <time>2014-05-21T09:28:55Z</time>
      </trkpt>
      <trkpt lat="46.72683" lon="6.35719">
        <ele>1471</ele>
        <time>2014-05-21T09:28:59Z</time>
      </trkpt>
      <trkpt lat="46.72678" lon="6.35719">
        <ele>1470</ele>
        <time>2014-05-21T09:29:04Z</time>
      </trkpt>
      <trkpt lat="46.72673" lon="6.35719">
        <ele>1469</ele>
        <time>2014-05-21T09:29:10Z</time>
      </trkpt>
      <trkpt lat="46.72669" lon="6.35723">
        <ele>1469</ele>
        <time>2014-05-21T09:29:17Z</time>
      </trkpt>
      <trkpt lat="46.72665" lon="6.35727">
        <ele>1470</ele>
        <time>2014-05-21T09:29:23Z</time>
      </trkpt>
      <trkpt lat="46.72661" lon="6.35731">
        <ele>1470</ele>
        <time>2014-05-21T09:29:30Z</time>
      </trkpt>
      <trkpt lat="46.72656" lon="6.35731">
        <ele>1468</ele>
        <time>2014-05-21T09:29:37Z</time>
      </trkpt>
      <trkpt lat="46.72651" lon="6.35733">
        <ele>1468</ele>
        <time>2014-05-21T09:29:43Z</time>
      </trkpt>
      <trkpt lat="46.72647" lon="6.35737">
        <ele>1467</ele>
        <time>2014-05-21T09:29:51Z</time>
      </trkpt>
      <trkpt lat="46.72642" lon="6.3574">
        <ele>1467</ele>
        <time>2014-05-21T09:29:57Z</time>
      </trkpt>
      <trkpt lat="46.72637" lon="6.35738">
        <ele>1465</ele>
        <time>2014-05-21T09:30:01Z</time>
      </trkpt>
      <trkpt lat="46.72627" lon="6.35742">
        <ele>1465</ele>
        <time>2014-05-21T09:30:15Z</time>
      </trkpt>
      <trkpt lat="46.72622" lon="6.35741">
        <ele>1464</ele>
        <time>2014-05-21T09:30:19Z</time>
      </trkpt>
      <trkpt lat="46.72614" lon="6.35747">
        <ele>1463</ele>
        <time>2014-05-21T09:30:35Z</time>
      </trkpt>
      <trkpt lat="46.72605" lon="6.35751">
        <ele>1460</ele>
        <time>2014-05-21T09:30:55Z</time>
      </trkpt>
      <trkpt lat="46.72602" lon="6.35756">
        <ele>1460</ele>
        <time>2014-05-21T09:31:05Z</time>
      </trkpt>
      <trkpt lat="46.72591" lon="6.35757">
        <ele>1459</ele>
        <time>2014-05-21T09:31:37Z</time>
      </trkpt>
      <trkpt lat="46.72583" lon="6.35765">
        <ele>1458</ele>
        <time>2014-05-21T09:32:00Z</time>
      </trkpt>
      <trkpt lat="46.72574" lon="6.3577">
        <ele>1457</ele>
        <time>2014-05-21T09:32:11Z</time>
      </trkpt>
      <trkpt lat="46.72565" lon="6.35774">
        <ele>1454</ele>
        <time>2014-05-21T09:32:20Z</time>
      </trkpt>
      <trkpt lat="46.72557" lon="6.35781">
        <ele>1451</ele>
        <time>2014-05-21T09:32:31Z</time>
      </trkpt>
      <trkpt lat="46.72547" lon="6.35785">
        <ele>1446</ele>
        <time>2014-05-21T09:32:39Z</time>
      </trkpt>
      <trkpt lat="46.72539" lon="6.35788">
        <ele>1443</ele>
        <time>2014-05-21T09:32:48Z</time>
      </trkpt>
      <trkpt lat="46.72531" lon="6.35795">
        <ele>1438</ele>
        <time>2014-05-21T09:32:58Z</time>
      </trkpt>
      <trkpt lat="46.72526" lon="6.35803">
        <ele>1437</ele>
        <time>2014-05-21T09:33:14Z</time>
      </trkpt>
      <trkpt lat="46.72518" lon="6.35805">
        <ele>1435</ele>
        <time>2014-05-21T09:33:50Z</time>
      </trkpt>
      <trkpt lat="46.7251" lon="6.3581">
        <ele>1434</ele>
        <time>2014-05-21T09:34:01Z</time>
      </trkpt>
      <trkpt lat="46.72502" lon="6.35816">
        <ele>1432</ele>
        <time>2014-05-21T09:34:10Z</time>
      </trkpt>
      <trkpt lat="46.72495" lon="6.35825">
        <ele>1430</ele>
        <time>2014-05-21T09:34:22Z</time>
      </trkpt>
      <trkpt lat="46.72485" lon="6.35828">
        <ele>1428</ele>
        <time>2014-05-21T09:34:34Z</time>
      </trkpt>
      <trkpt lat="46.72478" lon="6.35837">
        <ele>1426</ele>
        <time>2014-05-21T09:34:42Z</time>
      </trkpt>
      <trkpt lat="46.7247" lon="6.35841">
        <ele>1425</ele>
        <time>2014-05-21T09:34:55Z</time>
      </trkpt>
      <trkpt lat="46.72461" lon="6.35847">
        <ele>1424</ele>
        <time>2014-05-21T09:35:04Z</time>
      </trkpt>
      <trkpt lat="46.72453" lon="6.35853">
        <ele>1425</ele>
        <time>2014-05-21T09:35:16Z</time>
      </trkpt>
      <trkpt lat="46.72443" lon="6.35857">
        <ele>1424</ele>
        <time>2014-05-21T09:35:25Z</time>
      </trkpt>
      <trkpt lat="46.72435" lon="6.35861">
        <ele>1421</ele>
        <time>2014-05-21T09:35:36Z</time>
      </trkpt>
      <trkpt lat="46.72427" lon="6.35861">
        <ele>1418</ele>
        <time>2014-05-21T09:36:13Z</time>
      </trkpt>
      <trkpt lat="46.72417" lon="6.35864">
        <ele>1416</ele>
        <time>2014-05-21T09:36:22Z</time>
      </trkpt>
      <trkpt lat="46.72408" lon="6.35866">
        <ele>1414</ele>
        <time>2014-05-21T09:36:30Z</time>
      </trkpt>
      <trkpt lat="46.724" lon="6.35874">
        <ele>1413</ele>
        <time>2014-05-21T09:36:41Z</time>
      </trkpt>
      <trkpt lat="46.72397" lon="6.3588">
        <ele>1414</ele>
        <time>2014-05-21T09:36:48Z</time>
      </trkpt>
      <trkpt lat="46.72393" lon="6.35884">
        <ele>1413</ele>
        <time>2014-05-21T09:36:52Z</time>
      </trkpt>
      <trkpt lat="46.72389" lon="6.35889">
        <ele>1413</ele>
        <time>2014-05-21T09:36:57Z</time>
      </trkpt>
      <trkpt lat="46.72386" lon="6.35895">
        <ele>1412</ele>
        <time>2014-05-21T09:37:02Z</time>
      </trkpt>
      <trkpt lat="46.72389" lon="6.35896">
        <ele>1409</ele>
        <time>2014-05-21T09:37:15Z</time>
      </trkpt>
      <trkpt lat="46.7239" lon="6.359">
        <ele>1406</ele>
        <time>2014-05-21T09:38:35Z</time>
      </trkpt>
      <trkpt lat="46.72386" lon="6.35903">
        <ele>1406</ele>
        <time>2014-05-21T09:38:40Z</time>
      </trkpt>
      <trkpt lat="46.72381" lon="6.35905">
        <ele>1406</ele>
        <time>2014-05-21T09:38:44Z</time>
      </trkpt>
      <trkpt lat="46.72376" lon="6.35903">
        <ele>1407</ele>
        <time>2014-05-21T09:38:49Z</time>
      </trkpt>
      <trkpt lat="46.72371" lon="6.35904">
        <ele>1407</ele>
        <time>2014-05-21T09:38:55Z</time>
      </trkpt>
      <trkpt lat="46.72366" lon="6.35906">
        <ele>1407</ele>
        <time>2014-05-21T09:39:02Z</time>
      </trkpt>
      <trkpt lat="46.72361" lon="6.35904">
        <ele>1407</ele>
        <time>2014-05-21T09:39:07Z</time>
      </trkpt>
      <trkpt lat="46.72356" lon="6.35903">
        <ele>1407</ele>
        <time>2014-05-21T09:39:13Z</time>
      </trkpt>
      <trkpt lat="46.72358" lon="6.35916">
        <ele>1407</ele>
        <time>2014-05-21T09:39:27Z</time>
      </trkpt>
      <trkpt lat="46.72348" lon="6.35925">
        <ele>1404</ele>
        <time>2014-05-21T09:39:53Z</time>
      </trkpt>
      <trkpt lat="46.72339" lon="6.35931">
        <ele>1402</ele>
        <time>2014-05-21T09:40:03Z</time>
      </trkpt>
      <trkpt lat="46.7233" lon="6.35934">
        <ele>1402</ele>
        <time>2014-05-21T09:40:13Z</time>
      </trkpt>
      <trkpt lat="46.72321" lon="6.35939">
        <ele>1400</ele>
        <time>2014-05-21T09:40:26Z</time>
      </trkpt>
      <trkpt lat="46.72314" lon="6.35949">
        <ele>1398</ele>
        <time>2014-05-21T09:40:39Z</time>
      </trkpt>
      <trkpt lat="46.72306" lon="6.35958">
        <ele>1395</ele>
        <time>2014-05-21T09:40:51Z</time>
      </trkpt>
      <trkpt lat="46.72299" lon="6.35967">
        <ele>1394</ele>
        <time>2014-05-21T09:40:58Z</time>
      </trkpt>
      <trkpt lat="46.7229" lon="6.35964">
        <ele>1392</ele>
        <time>2014-05-21T09:41:08Z</time>
      </trkpt>
      <trkpt lat="46.72281" lon="6.35966">
        <ele>1390</ele>
        <time>2014-05-21T09:41:26Z</time>
      </trkpt>
      <trkpt lat="46.72271" lon="6.35967">
        <ele>1387</ele>
        <time>2014-05-21T09:41:40Z</time>
      </trkpt>
      <trkpt lat="46.72262" lon="6.35963">
        <ele>1386</ele>
        <time>2014-05-21T09:41:48Z</time>
      </trkpt>
      <trkpt lat="46.72253" lon="6.35961">
        <ele>1386</ele>
        <time>2014-05-21T09:42:00Z</time>
      </trkpt>
      <trkpt lat="46.72244" lon="6.35957">
        <ele>1385</ele>
        <time>2014-05-21T09:42:12Z</time>
      </trkpt>
      <trkpt lat="46.72235" lon="6.3595">
        <ele>1384</ele>
        <time>2014-05-21T09:42:23Z</time>
      </trkpt>
      <trkpt lat="46.72227" lon="6.35945">
        <ele>1383</ele>
        <time>2014-05-21T09:42:35Z</time>
      </trkpt>
      <trkpt lat="46.72217" lon="6.35942">
        <ele>1382</ele>
        <time>2014-05-21T09:42:47Z</time>
      </trkpt>
      <trkpt lat="46.72209" lon="6.35936">
        <ele>1383</ele>
        <time>2014-05-21T09:42:59Z</time>
      </trkpt>
      <trkpt lat="46.722" lon="6.35925">
        <ele>1383</ele>
        <time>2014-05-21T09:43:08Z</time>
      </trkpt>
      <trkpt lat="46.72194" lon="6.35915">
        <ele>1382</ele>
        <time>2014-05-21T09:43:16Z</time>
      </trkpt>
      <trkpt lat="46.72187" lon="6.35907">
        <ele>1384</ele>
        <time>2014-05-21T09:43:28Z</time>
      </trkpt>
      <trkpt lat="46.72179" lon="6.35899">
        <ele>1386</ele>
        <time>2014-05-21T09:43:38Z</time>
      </trkpt>
      <trkpt lat="46.72169" lon="6.35895">
        <ele>1387</ele>
        <time>2014-05-21T09:43:47Z</time>
      </trkpt>
      <trkpt lat="46.7216" lon="6.3589">
        <ele>1386</ele>
        <time>2014-05-21T09:43:56Z</time>
      </trkpt>
      <trkpt lat="46.72152" lon="6.35883">
        <ele>1385</ele>
        <time>2014-05-21T09:44:06Z</time>
      </trkpt>
      <trkpt lat="46.72144" lon="6.35877">
        <ele>1385</ele>
        <time>2014-05-21T09:44:21Z</time>
      </trkpt>
      <trkpt lat="46.72142" lon="6.35868">
        <ele>1386</ele>
        <time>2014-05-21T09:44:37Z</time>
      </trkpt>
      <trkpt lat="46.72134" lon="6.35857">
        <ele>1384</ele>
        <time>2014-05-21T09:45:31Z</time>
      </trkpt>
      <trkpt lat="46.72128" lon="6.35847">
        <ele>1385</ele>
        <time>2014-05-21T09:45:39Z</time>
      </trkpt>
      <trkpt lat="46.72118" lon="6.35846">
        <ele>1384</ele>
        <time>2014-05-21T09:45:55Z</time>
      </trkpt>
      <trkpt lat="46.7211" lon="6.35841">
        <ele>1383</ele>
        <time>2014-05-21T09:46:08Z</time>
      </trkpt>
      <trkpt lat="46.72106" lon="6.35838">
        <ele>1383</ele>
        <time>2014-05-21T09:46:20Z</time>
      </trkpt>
      <trkpt lat="46.72099" lon="6.35829">
        <ele>1379</ele>
        <time>2014-05-21T09:46:33Z</time>
      </trkpt>
      <trkpt lat="46.72095" lon="6.3582">
        <ele>1377</ele>
        <time>2014-05-21T09:46:48Z</time>
      </trkpt>
      <trkpt lat="46.72084" lon="6.35818">
        <ele>1374</ele>
        <time>2014-05-21T09:47:05Z</time>
      </trkpt>
      <trkpt lat="46.72075" lon="6.3581">
        <ele>1373</ele>
        <time>2014-05-21T09:47:13Z</time>
      </trkpt>
      <trkpt lat="46.72067" lon="6.35802">
        <ele>1373</ele>
        <time>2014-05-21T09:47:24Z</time>
      </trkpt>
      <trkpt lat="46.72059" lon="6.35794">
        <ele>1373</ele>
        <time>2014-05-21T09:47:33Z</time>
      </trkpt>
      <trkpt lat="46.7205" lon="6.35791">
        <ele>1371</ele>
        <time>2014-05-21T09:47:46Z</time>
      </trkpt>
      <trkpt lat="46.72041" lon="6.35787">
        <ele>1369</ele>
        <time>2014-05-21T09:47:56Z</time>
      </trkpt>
      <trkpt lat="46.72033" lon="6.35781">
        <ele>1367</ele>
        <time>2014-05-21T09:48:08Z</time>
      </trkpt>
      <trkpt lat="46.72025" lon="6.35772">
        <ele>1367</ele>
        <time>2014-05-21T09:48:16Z</time>
      </trkpt>
      <trkpt lat="46.72018" lon="6.35764">
        <ele>1368</ele>
        <time>2014-05-21T09:48:26Z</time>
      </trkpt>
      <trkpt lat="46.7201" lon="6.35755">
        <ele>1370</ele>
        <time>2014-05-21T09:48:38Z</time>
      </trkpt>
      <trkpt lat="46.72001" lon="6.35753">
        <ele>1368</ele>
        <time>2014-05-21T09:48:49Z</time>
      </trkpt>
      <trkpt lat="46.71993" lon="6.35745">
        <ele>1368</ele>
        <time>2014-05-21T09:49:04Z</time>
      </trkpt>
      <trkpt lat="46.71985" lon="6.35743">
        <ele>1369</ele>
        <time>2014-05-21T09:49:15Z</time>
      </trkpt>
      <trkpt lat="46.71976" lon="6.35736">
        <ele>1370</ele>
        <time>2014-05-21T09:49:31Z</time>
      </trkpt>
      <trkpt lat="46.71966" lon="6.35722">
        <ele>1375</ele>
        <time>2014-05-21T09:50:08Z</time>
      </trkpt>
      <trkpt lat="46.71957" lon="6.35728">
        <ele>1375</ele>
        <time>2014-05-21T09:50:22Z</time>
      </trkpt>
      <trkpt lat="46.71959" lon="6.35731">
        <ele>1377</ele>
        <time>2014-05-21T10:30:09Z</time>
      </trkpt>
      <trkpt lat="46.71958" lon="6.35731">
        <ele>1377</ele>
        <time>2014-05-21T10:33:05Z</time>
      </trkpt>
      <trkpt lat="46.71965" lon="6.3573">
        <ele>1377</ele>
        <time>2014-05-21T10:36:39Z</time>
      </trkpt>
      <trkpt lat="46.71964" lon="6.35717">
        <ele>1377</ele>
        <time>2014-05-21T10:36:58Z</time>
      </trkpt>
      <trkpt lat="46.7196" lon="6.35703">
        <ele>1377</ele>
        <time>2014-05-21T10:37:07Z</time>
      </trkpt>
      <trkpt lat="46.71946" lon="6.35667">
        <ele>1362</ele>
        <time>2014-05-21T10:37:38Z</time>
      </trkpt>
      <trkpt lat="46.71941" lon="6.35656">
        <ele>1361</ele>
        <time>2014-05-21T10:37:48Z</time>
      </trkpt>
      <trkpt lat="46.71936" lon="6.35645">
        <ele>1359</ele>
        <time>2014-05-21T10:37:57Z</time>
      </trkpt>
      <trkpt lat="46.71938" lon="6.35638">
        <ele>1357</ele>
        <time>2014-05-21T10:38:38Z</time>
      </trkpt>
      <trkpt lat="46.71931" lon="6.35628">
        <ele>1357</ele>
        <time>2014-05-21T10:38:47Z</time>
      </trkpt>
      <trkpt lat="46.71924" lon="6.3562">
        <ele>1354</ele>
        <time>2014-05-21T10:38:56Z</time>
      </trkpt>
      <trkpt lat="46.71915" lon="6.35614">
        <ele>1353</ele>
        <time>2014-05-21T10:39:05Z</time>
      </trkpt>
      <trkpt lat="46.71908" lon="6.35607">
        <ele>1354</ele>
        <time>2014-05-21T10:39:14Z</time>
      </trkpt>
      <trkpt lat="46.71901" lon="6.35598">
        <ele>1354</ele>
        <time>2014-05-21T10:39:22Z</time>
      </trkpt>
      <trkpt lat="46.71893" lon="6.35589">
        <ele>1353</ele>
        <time>2014-05-21T10:39:30Z</time>
      </trkpt>
      <trkpt lat="46.71884" lon="6.35594">
        <ele>1352</ele>
        <time>2014-05-21T10:39:37Z</time>
      </trkpt>
      <trkpt lat="46.71876" lon="6.35585">
        <ele>1349</ele>
        <time>2014-05-21T10:39:45Z</time>
      </trkpt>
      <trkpt lat="46.71876" lon="6.35584">
        <ele>1341</ele>
        <time>2014-05-21T10:40:31Z</time>
      </trkpt>
      <trkpt lat="46.71867" lon="6.35578">
        <ele>1340</ele>
        <time>2014-05-21T10:40:42Z</time>
      </trkpt>
      <trkpt lat="46.7186" lon="6.35568">
        <ele>1340</ele>
        <time>2014-05-21T10:40:46Z</time>
      </trkpt>
      <trkpt lat="46.71852" lon="6.35559">
        <ele>1340</ele>
        <time>2014-05-21T10:40:53Z</time>
      </trkpt>
      <trkpt lat="46.71843" lon="6.35559">
        <ele>1340</ele>
        <time>2014-05-21T10:41:03Z</time>
      </trkpt>
      <trkpt lat="46.71835" lon="6.35551">
        <ele>1337</ele>
        <time>2014-05-21T10:41:11Z</time>
      </trkpt>
      <trkpt lat="46.71826" lon="6.35545">
        <ele>1336</ele>
        <time>2014-05-21T10:41:21Z</time>
      </trkpt>
      <trkpt lat="46.71817" lon="6.35538">
        <ele>1337</ele>
        <time>2014-05-21T10:41:26Z</time>
      </trkpt>
      <trkpt lat="46.71809" lon="6.35529">
        <ele>1337</ele>
        <time>2014-05-21T10:41:32Z</time>
      </trkpt>
      <trkpt lat="46.718" lon="6.35531">
        <ele>1333</ele>
        <time>2014-05-21T10:41:43Z</time>
      </trkpt>
      <trkpt lat="46.71791" lon="6.35524">
        <ele>1330</ele>
        <time>2014-05-21T10:41:52Z</time>
      </trkpt>
      <trkpt lat="46.71783" lon="6.35529">
        <ele>1330</ele>
        <time>2014-05-21T10:42:04Z</time>
      </trkpt>
      <trkpt lat="46.71775" lon="6.35523">
        <ele>1330</ele>
        <time>2014-05-21T10:42:12Z</time>
      </trkpt>
      <trkpt lat="46.71765" lon="6.35516">
        <ele>1328</ele>
        <time>2014-05-21T10:42:24Z</time>
      </trkpt>
      <trkpt lat="46.71759" lon="6.35506">
        <ele>1328</ele>
        <time>2014-05-21T10:42:29Z</time>
      </trkpt>
      <trkpt lat="46.71752" lon="6.35497">
        <ele>1328</ele>
        <time>2014-05-21T10:42:35Z</time>
      </trkpt>
      <trkpt lat="46.7176" lon="6.35491">
        <ele>1326</ele>
        <time>2014-05-21T10:42:49Z</time>
      </trkpt>
      <trkpt lat="46.7177" lon="6.35489">
        <ele>1326</ele>
        <time>2014-05-21T10:42:59Z</time>
      </trkpt>
      <trkpt lat="46.71779" lon="6.35486">
        <ele>1327</ele>
        <time>2014-05-21T10:43:08Z</time>
      </trkpt>
      <trkpt lat="46.71787" lon="6.35479">
        <ele>1327</ele>
        <time>2014-05-21T10:43:17Z</time>
      </trkpt>
      <trkpt lat="46.71792" lon="6.35468">
        <ele>1329</ele>
        <time>2014-05-21T10:43:22Z</time>
      </trkpt>
      <trkpt lat="46.71794" lon="6.35454">
        <ele>1330</ele>
        <time>2014-05-21T10:43:27Z</time>
      </trkpt>
      <trkpt lat="46.71792" lon="6.35441">
        <ele>1328</ele>
        <time>2014-05-21T10:43:36Z</time>
      </trkpt>
      <trkpt lat="46.71797" lon="6.35429">
        <ele>1326</ele>
        <time>2014-05-21T10:43:46Z</time>
      </trkpt>
      <trkpt lat="46.71806" lon="6.35423">
        <ele>1326</ele>
        <time>2014-05-21T10:43:52Z</time>
      </trkpt>
      <trkpt lat="46.71811" lon="6.35412">
        <ele>1326</ele>
        <time>2014-05-21T10:44:01Z</time>
      </trkpt>
      <trkpt lat="46.71817" lon="6.35402">
        <ele>1326</ele>
        <time>2014-05-21T10:44:10Z</time>
      </trkpt>
      <trkpt lat="46.71819" lon="6.35388">
        <ele>1326</ele>
        <time>2014-05-21T10:44:19Z</time>
      </trkpt>
      <trkpt lat="46.71823" lon="6.35376">
        <ele>1326</ele>
        <time>2014-05-21T10:44:32Z</time>
      </trkpt>
      <trkpt lat="46.71819" lon="6.35372">
        <ele>1324</ele>
        <time>2014-05-21T10:46:57Z</time>
      </trkpt>
      <trkpt lat="46.71811" lon="6.35365">
        <ele>1324</ele>
        <time>2014-05-21T10:47:04Z</time>
      </trkpt>
      <trkpt lat="46.71802" lon="6.35359">
        <ele>1321</ele>
        <time>2014-05-21T10:47:15Z</time>
      </trkpt>
      <trkpt lat="46.71793" lon="6.35358">
        <ele>1318</ele>
        <time>2014-05-21T10:47:27Z</time>
      </trkpt>
      <trkpt lat="46.71785" lon="6.35351">
        <ele>1315</ele>
        <time>2014-05-21T10:47:40Z</time>
      </trkpt>
      <trkpt lat="46.71777" lon="6.35344">
        <ele>1314</ele>
        <time>2014-05-21T10:47:50Z</time>
      </trkpt>
      <trkpt lat="46.71772" lon="6.35331">
        <ele>1313</ele>
        <time>2014-05-21T10:47:58Z</time>
      </trkpt>
      <trkpt lat="46.71773" lon="6.35317">
        <ele>1313</ele>
        <time>2014-05-21T10:48:05Z</time>
      </trkpt>
      <trkpt lat="46.71777" lon="6.35304">
        <ele>1313</ele>
        <time>2014-05-21T10:48:12Z</time>
      </trkpt>
      <trkpt lat="46.71782" lon="6.35291">
        <ele>1314</ele>
        <time>2014-05-21T10:48:20Z</time>
      </trkpt>
      <trkpt lat="46.71787" lon="6.35279">
        <ele>1315</ele>
        <time>2014-05-21T10:48:30Z</time>
      </trkpt>
      <trkpt lat="46.71794" lon="6.35271">
        <ele>1317</ele>
        <time>2014-05-21T10:48:38Z</time>
      </trkpt>
      <trkpt lat="46.71799" lon="6.35259">
        <ele>1317</ele>
        <time>2014-05-21T10:48:46Z</time>
      </trkpt>
      <trkpt lat="46.71799" lon="6.35246">
        <ele>1318</ele>
        <time>2014-05-21T10:48:54Z</time>
      </trkpt>
      <trkpt lat="46.71799" lon="6.35232">
        <ele>1317</ele>
        <time>2014-05-21T10:49:02Z</time>
      </trkpt>
      <trkpt lat="46.71801" lon="6.35218">
        <ele>1316</ele>
        <time>2014-05-21T10:49:11Z</time>
      </trkpt>
      <trkpt lat="46.71802" lon="6.35206">
        <ele>1314</ele>
        <time>2014-05-21T10:49:20Z</time>
      </trkpt>
      <trkpt lat="46.71803" lon="6.35192">
        <ele>1313</ele>
        <time>2014-05-21T10:49:29Z</time>
      </trkpt>
      <trkpt lat="46.71804" lon="6.35179">
        <ele>1313</ele>
        <time>2014-05-21T10:49:39Z</time>
      </trkpt>
      <trkpt lat="46.71797" lon="6.35171">
        <ele>1312</ele>
        <time>2014-05-21T10:49:48Z</time>
      </trkpt>
      <trkpt lat="46.71792" lon="6.35158">
        <ele>1311</ele>
        <time>2014-05-21T10:49:57Z</time>
      </trkpt>
      <trkpt lat="46.71788" lon="6.35146">
        <ele>1311</ele>
        <time>2014-05-21T10:50:06Z</time>
      </trkpt>
      <trkpt lat="46.71785" lon="6.35133">
        <ele>1312</ele>
        <time>2014-05-21T10:50:14Z</time>
      </trkpt>
      <trkpt lat="46.71782" lon="6.3512">
        <ele>1312</ele>
        <time>2014-05-21T10:50:22Z</time>
      </trkpt>
      <trkpt lat="46.71778" lon="6.35108">
        <ele>1309</ele>
        <time>2014-05-21T10:50:30Z</time>
      </trkpt>
      <trkpt lat="46.71775" lon="6.35094">
        <ele>1308</ele>
        <time>2014-05-21T10:50:38Z</time>
      </trkpt>
      <trkpt lat="46.71772" lon="6.35081">
        <ele>1308</ele>
        <time>2014-05-21T10:50:48Z</time>
      </trkpt>
      <trkpt lat="46.71765" lon="6.3507">
        <ele>1307</ele>
        <time>2014-05-21T10:50:56Z</time>
      </trkpt>
      <trkpt lat="46.7176" lon="6.35058">
        <ele>1305</ele>
        <time>2014-05-21T10:51:04Z</time>
      </trkpt>
      <trkpt lat="46.71752" lon="6.35049">
        <ele>1305</ele>
        <time>2014-05-21T10:51:13Z</time>
      </trkpt>
      <trkpt lat="46.71745" lon="6.3504">
        <ele>1303</ele>
        <time>2014-05-21T10:51:23Z</time>
      </trkpt>
      <trkpt lat="46.71738" lon="6.35031">
        <ele>1304</ele>
        <time>2014-05-21T10:51:35Z</time>
      </trkpt>
      <trkpt lat="46.71731" lon="6.35021">
        <ele>1303</ele>
        <time>2014-05-21T10:51:43Z</time>
      </trkpt>
      <trkpt lat="46.71726" lon="6.35009">
        <ele>1302</ele>
        <time>2014-05-21T10:51:51Z</time>
      </trkpt>
      <trkpt lat="46.71721" lon="6.34998">
        <ele>1301</ele>
        <time>2014-05-21T10:52:00Z</time>
      </trkpt>
      <trkpt lat="46.71715" lon="6.34987">
        <ele>1300</ele>
        <time>2014-05-21T10:52:07Z</time>
      </trkpt>
      <trkpt lat="46.71711" lon="6.34974">
        <ele>1300</ele>
        <time>2014-05-21T10:52:14Z</time>
      </trkpt>
      <trkpt lat="46.71707" lon="6.34962">
        <ele>1299</ele>
        <time>2014-05-21T10:52:22Z</time>
      </trkpt>
      <trkpt lat="46.71698" lon="6.34956">
        <ele>1299</ele>
        <time>2014-05-21T10:52:30Z</time>
      </trkpt>
      <trkpt lat="46.71698" lon="6.34942">
        <ele>1299</ele>
        <time>2014-05-21T10:52:44Z</time>
      </trkpt>
      <trkpt lat="46.71694" lon="6.34928">
        <ele>1300</ele>
        <time>2014-05-21T10:52:54Z</time>
      </trkpt>
      <trkpt lat="46.71692" lon="6.34915">
        <ele>1301</ele>
        <time>2014-05-21T10:53:01Z</time>
      </trkpt>
      <trkpt lat="46.71685" lon="6.34905">
        <ele>1300</ele>
        <time>2014-05-21T10:53:08Z</time>
      </trkpt>
      <trkpt lat="46.71681" lon="6.34891">
        <ele>1300</ele>
        <time>2014-05-21T10:53:16Z</time>
      </trkpt>
      <trkpt lat="46.71675" lon="6.3488">
        <ele>1299</ele>
        <time>2014-05-21T10:53:25Z</time>
      </trkpt>
      <trkpt lat="46.71668" lon="6.34869">
        <ele>1297</ele>
        <time>2014-05-21T10:53:33Z</time>
      </trkpt>
      <trkpt lat="46.71662" lon="6.34858">
        <ele>1296</ele>
        <time>2014-05-21T10:53:41Z</time>
      </trkpt>
      <trkpt lat="46.71657" lon="6.34845">
        <ele>1297</ele>
        <time>2014-05-21T10:53:50Z</time>
      </trkpt>
      <trkpt lat="46.71652" lon="6.34833">
        <ele>1299</ele>
        <time>2014-05-21T10:53:58Z</time>
      </trkpt>
      <trkpt lat="46.71647" lon="6.34822">
        <ele>1301</ele>
        <time>2014-05-21T10:54:06Z</time>
      </trkpt>
      <trkpt lat="46.7164" lon="6.34812">
        <ele>1301</ele>
        <time>2014-05-21T10:54:15Z</time>
      </trkpt>
      <trkpt lat="46.71637" lon="6.34799">
        <ele>1298</ele>
        <time>2014-05-21T10:54:25Z</time>
      </trkpt>
      <trkpt lat="46.71633" lon="6.34787">
        <ele>1296</ele>
        <time>2014-05-21T10:54:34Z</time>
      </trkpt>
      <trkpt lat="46.71631" lon="6.34773">
        <ele>1294</ele>
        <time>2014-05-21T10:54:43Z</time>
      </trkpt>
      <trkpt lat="46.7163" lon="6.34759">
        <ele>1293</ele>
        <time>2014-05-21T10:54:52Z</time>
      </trkpt>
      <trkpt lat="46.7163" lon="6.34745">
        <ele>1293</ele>
        <time>2014-05-21T10:55:01Z</time>
      </trkpt>
      <trkpt lat="46.71626" lon="6.34732">
        <ele>1293</ele>
        <time>2014-05-21T10:55:09Z</time>
      </trkpt>
      <trkpt lat="46.71624" lon="6.34718">
        <ele>1294</ele>
        <time>2014-05-21T10:55:18Z</time>
      </trkpt>
      <trkpt lat="46.71622" lon="6.34704">
        <ele>1293</ele>
        <time>2014-05-21T10:55:28Z</time>
      </trkpt>
      <trkpt lat="46.71619" lon="6.34691">
        <ele>1294</ele>
        <time>2014-05-21T10:55:36Z</time>
      </trkpt>
      <trkpt lat="46.71614" lon="6.34679">
        <ele>1292</ele>
        <time>2014-05-21T10:55:45Z</time>
      </trkpt>
      <trkpt lat="46.71612" lon="6.34666">
        <ele>1288</ele>
        <time>2014-05-21T10:55:55Z</time>
      </trkpt>
      <trkpt lat="46.7161" lon="6.34652">
        <ele>1287</ele>
        <time>2014-05-21T10:56:06Z</time>
      </trkpt>
      <trkpt lat="46.71606" lon="6.34639">
        <ele>1285</ele>
        <time>2014-05-21T10:56:14Z</time>
      </trkpt>
      <trkpt lat="46.71605" lon="6.34625">
        <ele>1285</ele>
        <time>2014-05-21T10:56:22Z</time>
      </trkpt>
      <trkpt lat="46.71604" lon="6.34612">
        <ele>1285</ele>
        <time>2014-05-21T10:56:29Z</time>
      </trkpt>
      <trkpt lat="46.71601" lon="6.34599">
        <ele>1285</ele>
        <time>2014-05-21T10:56:38Z</time>
      </trkpt>
      <trkpt lat="46.71598" lon="6.34587">
        <ele>1281</ele>
        <time>2014-05-21T10:56:48Z</time>
      </trkpt>
      <trkpt lat="46.71596" lon="6.34573">
        <ele>1281</ele>
        <time>2014-05-21T10:56:56Z</time>
      </trkpt>
      <trkpt lat="46.71593" lon="6.34561">
        <ele>1282</ele>
        <time>2014-05-21T10:57:04Z</time>
      </trkpt>
      <trkpt lat="46.71591" lon="6.34546">
        <ele>1282</ele>
        <time>2014-05-21T10:57:14Z</time>
      </trkpt>
      <trkpt lat="46.71586" lon="6.34534">
        <ele>1281</ele>
        <time>2014-05-21T10:57:22Z</time>
      </trkpt>
      <trkpt lat="46.71582" lon="6.34522">
        <ele>1281</ele>
        <time>2014-05-21T10:57:30Z</time>
      </trkpt>
      <trkpt lat="46.71579" lon="6.34508">
        <ele>1281</ele>
        <time>2014-05-21T10:57:41Z</time>
      </trkpt>
      <trkpt lat="46.71575" lon="6.34495">
        <ele>1280</ele>
        <time>2014-05-21T10:57:53Z</time>
      </trkpt>
      <trkpt lat="46.71571" lon="6.34484">
        <ele>1278</ele>
        <time>2014-05-21T10:58:03Z</time>
      </trkpt>
      <trkpt lat="46.71571" lon="6.3447">
        <ele>1277</ele>
        <time>2014-05-21T10:58:13Z</time>
      </trkpt>
      <trkpt lat="46.71567" lon="6.3446">
        <ele>1277</ele>
        <time>2014-05-21T11:01:19Z</time>
      </trkpt>
      <trkpt lat="46.71567" lon="6.34446">
        <ele>1277</ele>
        <time>2014-05-21T11:01:28Z</time>
      </trkpt>
      <trkpt lat="46.71563" lon="6.34434">
        <ele>1277</ele>
        <time>2014-05-21T11:01:36Z</time>
      </trkpt>
      <trkpt lat="46.71561" lon="6.34421">
        <ele>1278</ele>
        <time>2014-05-21T11:01:47Z</time>
      </trkpt>
      <trkpt lat="46.71555" lon="6.34411">
        <ele>1279</ele>
        <time>2014-05-21T11:01:58Z</time>
      </trkpt>
      <trkpt lat="46.71553" lon="6.34404">
        <ele>1280</ele>
        <time>2014-05-21T11:02:13Z</time>
      </trkpt>
      <trkpt lat="46.71545" lon="6.34397">
        <ele>1277</ele>
        <time>2014-05-21T11:02:30Z</time>
      </trkpt>
      <trkpt lat="46.71541" lon="6.34383">
        <ele>1276</ele>
        <time>2014-05-21T11:02:39Z</time>
      </trkpt>
      <trkpt lat="46.71535" lon="6.34373">
        <ele>1275</ele>
        <time>2014-05-21T11:02:47Z</time>
      </trkpt>
      <trkpt lat="46.7153" lon="6.34361">
        <ele>1274</ele>
        <time>2014-05-21T11:02:56Z</time>
      </trkpt>
      <trkpt lat="46.71524" lon="6.34351">
        <ele>1271</ele>
        <time>2014-05-21T11:03:04Z</time>
      </trkpt>
      <trkpt lat="46.71516" lon="6.34343">
        <ele>1269</ele>
        <time>2014-05-21T11:03:14Z</time>
      </trkpt>
      <trkpt lat="46.7151" lon="6.34332">
        <ele>1264</ele>
        <time>2014-05-21T11:03:23Z</time>
      </trkpt>
      <trkpt lat="46.71508" lon="6.34318">
        <ele>1262</ele>
        <time>2014-05-21T11:03:33Z</time>
      </trkpt>
      <trkpt lat="46.71504" lon="6.34305">
        <ele>1258</ele>
        <time>2014-05-21T11:03:46Z</time>
      </trkpt>
      <trkpt lat="46.71503" lon="6.34292">
        <ele>1257</ele>
        <time>2014-05-21T11:03:55Z</time>
      </trkpt>
      <trkpt lat="46.715" lon="6.34279">
        <ele>1256</ele>
        <time>2014-05-21T11:04:05Z</time>
      </trkpt>
      <trkpt lat="46.71495" lon="6.34274">
        <ele>1253</ele>
        <time>2014-05-21T11:04:20Z</time>
      </trkpt>
      <trkpt lat="46.7149" lon="6.34262">
        <ele>1250</ele>
        <time>2014-05-21T11:04:55Z</time>
      </trkpt>
      <trkpt lat="46.71486" lon="6.34249">
        <ele>1248</ele>
        <time>2014-05-21T11:05:06Z</time>
      </trkpt>
      <trkpt lat="46.71485" lon="6.34236">
        <ele>1245</ele>
        <time>2014-05-21T11:05:18Z</time>
      </trkpt>
      <trkpt lat="46.71482" lon="6.34222">
        <ele>1244</ele>
        <time>2014-05-21T11:05:27Z</time>
      </trkpt>
      <trkpt lat="46.71479" lon="6.3421">
        <ele>1243</ele>
        <time>2014-05-21T11:05:33Z</time>
      </trkpt>
      <trkpt lat="46.71476" lon="6.34197">
        <ele>1242</ele>
        <time>2014-05-21T11:05:42Z</time>
      </trkpt>
      <trkpt lat="46.71473" lon="6.34184">
        <ele>1238</ele>
        <time>2014-05-21T11:05:52Z</time>
      </trkpt>
      <trkpt lat="46.71473" lon="6.3417">
        <ele>1236</ele>
        <time>2014-05-21T11:06:03Z</time>
      </trkpt>
      <trkpt lat="46.71471" lon="6.34156">
        <ele>1230</ele>
        <time>2014-05-21T11:06:13Z</time>
      </trkpt>
      <trkpt lat="46.71471" lon="6.34142">
        <ele>1227</ele>
        <time>2014-05-21T11:06:22Z</time>
      </trkpt>
      <trkpt lat="46.7147" lon="6.34129">
        <ele>1226</ele>
        <time>2014-05-21T11:06:29Z</time>
      </trkpt>
      <trkpt lat="46.71468" lon="6.34115">
        <ele>1226</ele>
        <time>2014-05-21T11:06:38Z</time>
      </trkpt>
      <trkpt lat="46.71465" lon="6.34102">
        <ele>1226</ele>
        <time>2014-05-21T11:06:47Z</time>
      </trkpt>
      <trkpt lat="46.7146" lon="6.34089">
        <ele>1224</ele>
        <time>2014-05-21T11:06:56Z</time>
      </trkpt>
      <trkpt lat="46.71455" lon="6.34078">
        <ele>1222</ele>
        <time>2014-05-21T11:07:04Z</time>
      </trkpt>
      <trkpt lat="46.71454" lon="6.34064">
        <ele>1219</ele>
        <time>2014-05-21T11:07:15Z</time>
      </trkpt>
      <trkpt lat="46.71451" lon="6.3405">
        <ele>1217</ele>
        <time>2014-05-21T11:07:26Z</time>
      </trkpt>
      <trkpt lat="46.71447" lon="6.34038">
        <ele>1217</ele>
        <time>2014-05-21T11:07:35Z</time>
      </trkpt>
      <trkpt lat="46.71445" lon="6.34024">
        <ele>1216</ele>
        <time>2014-05-21T11:07:43Z</time>
      </trkpt>
      <trkpt lat="46.71444" lon="6.3401">
        <ele>1216</ele>
        <time>2014-05-21T11:07:53Z</time>
      </trkpt>
      <trkpt lat="46.71442" lon="6.33996">
        <ele>1215</ele>
        <time>2014-05-21T11:08:05Z</time>
      </trkpt>
      <trkpt lat="46.71444" lon="6.33982">
        <ele>1216</ele>
        <time>2014-05-21T11:08:14Z</time>
      </trkpt>
      <trkpt lat="46.71442" lon="6.33969">
        <ele>1218</ele>
        <time>2014-05-21T11:08:24Z</time>
      </trkpt>
      <trkpt lat="46.71442" lon="6.3396">
        <ele>1219</ele>
        <time>2014-05-21T11:08:49Z</time>
      </trkpt>
      <trkpt lat="46.71438" lon="6.33947">
        <ele>1214</ele>
        <time>2014-05-21T11:09:04Z</time>
      </trkpt>
      <trkpt lat="46.71436" lon="6.33934">
        <ele>1213</ele>
        <time>2014-05-21T11:09:12Z</time>
      </trkpt>
      <trkpt lat="46.71431" lon="6.33921">
        <ele>1211</ele>
        <time>2014-05-21T11:09:20Z</time>
      </trkpt>
      <trkpt lat="46.71426" lon="6.33909">
        <ele>1210</ele>
        <time>2014-05-21T11:09:28Z</time>
      </trkpt>
      <trkpt lat="46.71424" lon="6.33896">
        <ele>1208</ele>
        <time>2014-05-21T11:09:40Z</time>
      </trkpt>
      <trkpt lat="46.71424" lon="6.33882">
        <ele>1207</ele>
        <time>2014-05-21T11:09:49Z</time>
      </trkpt>
      <trkpt lat="46.71423" lon="6.33868">
        <ele>1205</ele>
        <time>2014-05-21T11:09:59Z</time>
      </trkpt>
      <trkpt lat="46.71422" lon="6.33855">
        <ele>1204</ele>
        <time>2014-05-21T11:10:07Z</time>
      </trkpt>
      <trkpt lat="46.71421" lon="6.33842">
        <ele>1202</ele>
        <time>2014-05-21T11:10:14Z</time>
      </trkpt>
      <trkpt lat="46.71419" lon="6.33828">
        <ele>1200</ele>
        <time>2014-05-21T11:10:24Z</time>
      </trkpt>
      <trkpt lat="46.71419" lon="6.33813">
        <ele>1200</ele>
        <time>2014-05-21T11:10:33Z</time>
      </trkpt>
      <trkpt lat="46.71419" lon="6.338">
        <ele>1200</ele>
        <time>2014-05-21T11:10:40Z</time>
      </trkpt>
      <trkpt lat="46.71419" lon="6.33786">
        <ele>1200</ele>
        <time>2014-05-21T11:10:49Z</time>
      </trkpt>
      <trkpt lat="46.71417" lon="6.33772">
        <ele>1200</ele>
        <time>2014-05-21T11:10:58Z</time>
      </trkpt>
      <trkpt lat="46.71416" lon="6.33759">
        <ele>1198</ele>
        <time>2014-05-21T11:11:09Z</time>
      </trkpt>
      <trkpt lat="46.71418" lon="6.33744">
        <ele>1196</ele>
        <time>2014-05-21T11:11:20Z</time>
      </trkpt>
      <trkpt lat="46.7142" lon="6.3373">
        <ele>1197</ele>
        <time>2014-05-21T11:11:29Z</time>
      </trkpt>
      <trkpt lat="46.71423" lon="6.33716">
        <ele>1196</ele>
        <time>2014-05-21T11:11:37Z</time>
      </trkpt>
      <trkpt lat="46.71426" lon="6.33703">
        <ele>1196</ele>
        <time>2014-05-21T11:11:46Z</time>
      </trkpt>
      <trkpt lat="46.71426" lon="6.33692">
        <ele>1193</ele>
        <time>2014-05-21T11:12:49Z</time>
      </trkpt>
      <trkpt lat="46.71423" lon="6.33679">
        <ele>1191</ele>
        <time>2014-05-21T11:12:57Z</time>
      </trkpt>
      <trkpt lat="46.71423" lon="6.33666">
        <ele>1189</ele>
        <time>2014-05-21T11:13:06Z</time>
      </trkpt>
      <trkpt lat="46.71419" lon="6.33652">
        <ele>1187</ele>
        <time>2014-05-21T11:13:16Z</time>
      </trkpt>
      <trkpt lat="46.71415" lon="6.33638">
        <ele>1186</ele>
        <time>2014-05-21T11:13:24Z</time>
      </trkpt>
      <trkpt lat="46.71413" lon="6.33625">
        <ele>1186</ele>
        <time>2014-05-21T11:13:33Z</time>
      </trkpt>
      <trkpt lat="46.7141" lon="6.33611">
        <ele>1184</ele>
        <time>2014-05-21T11:13:43Z</time>
      </trkpt>
      <trkpt lat="46.71408" lon="6.33596">
        <ele>1184</ele>
        <time>2014-05-21T11:13:51Z</time>
      </trkpt>
      <trkpt lat="46.71406" lon="6.33583">
        <ele>1185</ele>
        <time>2014-05-21T11:13:58Z</time>
      </trkpt>
      <trkpt lat="46.71403" lon="6.33569">
        <ele>1185</ele>
        <time>2014-05-21T11:14:05Z</time>
      </trkpt>
      <trkpt lat="46.71397" lon="6.33557">
        <ele>1186</ele>
        <time>2014-05-21T11:14:12Z</time>
      </trkpt>
      <trkpt lat="46.71389" lon="6.33549">
        <ele>1185</ele>
        <time>2014-05-21T11:14:21Z</time>
      </trkpt>
      <trkpt lat="46.71381" lon="6.33542">
        <ele>1183</ele>
        <time>2014-05-21T11:14:30Z</time>
      </trkpt>
      <trkpt lat="46.71377" lon="6.33529">
        <ele>1183</ele>
        <time>2014-05-21T11:14:37Z</time>
      </trkpt>
      <trkpt lat="46.71369" lon="6.33523">
        <ele>1182</ele>
        <time>2014-05-21T11:14:48Z</time>
      </trkpt>
      <trkpt lat="46.71361" lon="6.33514">
        <ele>1180</ele>
        <time>2014-05-21T11:14:58Z</time>
      </trkpt>
      <trkpt lat="46.71354" lon="6.33504">
        <ele>1178</ele>
        <time>2014-05-21T11:15:05Z</time>
      </trkpt>
      <trkpt lat="46.71348" lon="6.33492">
        <ele>1178</ele>
        <time>2014-05-21T11:15:14Z</time>
      </trkpt>
      <trkpt lat="46.71342" lon="6.33481">
        <ele>1178</ele>
        <time>2014-05-21T11:15:21Z</time>
      </trkpt>
      <trkpt lat="46.71335" lon="6.33472">
        <ele>1177</ele>
        <time>2014-05-21T11:15:31Z</time>
      </trkpt>
      <trkpt lat="46.7133" lon="6.3346">
        <ele>1177</ele>
        <time>2014-05-21T11:15:38Z</time>
      </trkpt>
      <trkpt lat="46.71321" lon="6.33457">
        <ele>1174</ele>
        <time>2014-05-21T11:15:53Z</time>
      </trkpt>
      <trkpt lat="46.71314" lon="6.33446">
        <ele>1171</ele>
        <time>2014-05-21T11:16:01Z</time>
      </trkpt>
      <trkpt lat="46.71306" lon="6.33438">
        <ele>1170</ele>
        <time>2014-05-21T11:16:10Z</time>
      </trkpt>
      <trkpt lat="46.713" lon="6.33429">
        <ele>1169</ele>
        <time>2014-05-21T11:16:17Z</time>
      </trkpt>
      <trkpt lat="46.71293" lon="6.3342">
        <ele>1169</ele>
        <time>2014-05-21T11:16:24Z</time>
      </trkpt>
      <trkpt lat="46.71286" lon="6.33411">
        <ele>1168</ele>
        <time>2014-05-21T11:16:33Z</time>
      </trkpt>
      <trkpt lat="46.71278" lon="6.33402">
        <ele>1165</ele>
        <time>2014-05-21T11:16:44Z</time>
      </trkpt>
      <trkpt lat="46.71271" lon="6.33394">
        <ele>1162</ele>
        <time>2014-05-21T11:16:54Z</time>
      </trkpt>
      <trkpt lat="46.71264" lon="6.33386">
        <ele>1159</ele>
        <time>2014-05-21T11:17:05Z</time>
      </trkpt>
      <trkpt lat="46.71256" lon="6.33376">
        <ele>1157</ele>
        <time>2014-05-21T11:17:14Z</time>
      </trkpt>
      <trkpt lat="46.71249" lon="6.33367">
        <ele>1157</ele>
        <time>2014-05-21T11:17:23Z</time>
      </trkpt>
      <trkpt lat="46.71243" lon="6.33356">
        <ele>1157</ele>
        <time>2014-05-21T11:17:29Z</time>
      </trkpt>
      <trkpt lat="46.71235" lon="6.33348">
        <ele>1158</ele>
        <time>2014-05-21T11:17:38Z</time>
      </trkpt>
      <trkpt lat="46.71227" lon="6.33341">
        <ele>1158</ele>
        <time>2014-05-21T11:17:47Z</time>
      </trkpt>
      <trkpt lat="46.71219" lon="6.33333">
        <ele>1157</ele>
        <time>2014-05-21T11:17:56Z</time>
      </trkpt>
      <trkpt lat="46.7121" lon="6.33326">
        <ele>1157</ele>
        <time>2014-05-21T11:18:05Z</time>
      </trkpt>
      <trkpt lat="46.71202" lon="6.33321">
        <ele>1155</ele>
        <time>2014-05-21T11:18:15Z</time>
      </trkpt>
      <trkpt lat="46.71192" lon="6.33317">
        <ele>1155</ele>
        <time>2014-05-21T11:18:23Z</time>
      </trkpt>
      <trkpt lat="46.71183" lon="6.33312">
        <ele>1156</ele>
        <time>2014-05-21T11:18:31Z</time>
      </trkpt>
      <trkpt lat="46.71174" lon="6.3331">
        <ele>1158</ele>
        <time>2014-05-21T11:18:41Z</time>
      </trkpt>
      <trkpt lat="46.71165" lon="6.33317">
        <ele>1157</ele>
        <time>2014-05-21T11:18:52Z</time>
      </trkpt>
      <trkpt lat="46.71156" lon="6.33314">
        <ele>1158</ele>
        <time>2014-05-21T11:19:00Z</time>
      </trkpt>
      <trkpt lat="46.71147" lon="6.33309">
        <ele>1157</ele>
        <time>2014-05-21T11:19:10Z</time>
      </trkpt>
      <trkpt lat="46.71138" lon="6.33303">
        <ele>1154</ele>
        <time>2014-05-21T11:19:20Z</time>
      </trkpt>
      <trkpt lat="46.71134" lon="6.33291">
        <ele>1150</ele>
        <time>2014-05-21T11:19:32Z</time>
      </trkpt>
      <trkpt lat="46.71141" lon="6.33281">
        <ele>1148</ele>
        <time>2014-05-21T11:19:40Z</time>
      </trkpt>
      <trkpt lat="46.71146" lon="6.3327">
        <ele>1146</ele>
        <time>2014-05-21T11:19:48Z</time>
      </trkpt>
      <trkpt lat="46.71149" lon="6.33257">
        <ele>1144</ele>
        <time>2014-05-21T11:19:55Z</time>
      </trkpt>
      <trkpt lat="46.71151" lon="6.33243">
        <ele>1141</ele>
        <time>2014-05-21T11:20:03Z</time>
      </trkpt>
      <trkpt lat="46.71153" lon="6.33229">
        <ele>1138</ele>
        <time>2014-05-21T11:20:11Z</time>
      </trkpt>
      <trkpt lat="46.71154" lon="6.33215">
        <ele>1136</ele>
        <time>2014-05-21T11:20:19Z</time>
      </trkpt>
      <trkpt lat="46.71154" lon="6.33201">
        <ele>1134</ele>
        <time>2014-05-21T11:20:28Z</time>
      </trkpt>
      <trkpt lat="46.71153" lon="6.33188">
        <ele>1136</ele>
        <time>2014-05-21T11:20:36Z</time>
      </trkpt>
      <trkpt lat="46.71151" lon="6.33174">
        <ele>1137</ele>
        <time>2014-05-21T11:20:46Z</time>
      </trkpt>
      <trkpt lat="46.71148" lon="6.33162">
        <ele>1139</ele>
        <time>2014-05-21T11:20:53Z</time>
      </trkpt>
      <trkpt lat="46.71142" lon="6.33153">
        <ele>1140</ele>
        <time>2014-05-21T11:21:04Z</time>
      </trkpt>
      <trkpt lat="46.71136" lon="6.3314">
        <ele>1141</ele>
        <time>2014-05-21T11:21:09Z</time>
      </trkpt>
      <trkpt lat="46.7113" lon="6.33129">
        <ele>1142</ele>
        <time>2014-05-21T11:21:20Z</time>
      </trkpt>
      <trkpt lat="46.71123" lon="6.33119">
        <ele>1144</ele>
        <time>2014-05-21T11:21:32Z</time>
      </trkpt>
      <trkpt lat="46.71118" lon="6.33108">
        <ele>1144</ele>
        <time>2014-05-21T11:21:41Z</time>
      </trkpt>
      <trkpt lat="46.71113" lon="6.33097">
        <ele>1144</ele>
        <time>2014-05-21T11:21:50Z</time>
      </trkpt>
      <trkpt lat="46.7111" lon="6.33084">
        <ele>1144</ele>
        <time>2014-05-21T11:21:57Z</time>
      </trkpt>
      <trkpt lat="46.71106" lon="6.33071">
        <ele>1143</ele>
        <time>2014-05-21T11:22:06Z</time>
      </trkpt>
      <trkpt lat="46.71103" lon="6.33056">
        <ele>1142</ele>
        <time>2014-05-21T11:22:13Z</time>
      </trkpt>
      <trkpt lat="46.71101" lon="6.33043">
        <ele>1142</ele>
        <time>2014-05-21T11:22:18Z</time>
      </trkpt>
      <trkpt lat="46.711" lon="6.33029">
        <ele>1141</ele>
        <time>2014-05-21T11:22:30Z</time>
      </trkpt>
      <trkpt lat="46.71098" lon="6.33016">
        <ele>1141</ele>
        <time>2014-05-21T11:22:39Z</time>
      </trkpt>
      <trkpt lat="46.71096" lon="6.33003">
        <ele>1140</ele>
        <time>2014-05-21T11:22:50Z</time>
      </trkpt>
      <trkpt lat="46.71095" lon="6.32988">
        <ele>1142</ele>
        <time>2014-05-21T11:22:57Z</time>
      </trkpt>
      <trkpt lat="46.71092" lon="6.32975">
        <ele>1143</ele>
        <time>2014-05-21T11:23:04Z</time>
      </trkpt>
      <trkpt lat="46.71091" lon="6.32962">
        <ele>1145</ele>
        <time>2014-05-21T11:23:12Z</time>
      </trkpt>
      <trkpt lat="46.71088" lon="6.32948">
        <ele>1145</ele>
        <time>2014-05-21T11:23:20Z</time>
      </trkpt>
      <trkpt lat="46.71085" lon="6.32935">
        <ele>1147</ele>
        <time>2014-05-21T11:23:27Z</time>
      </trkpt>
      <trkpt lat="46.71081" lon="6.32922">
        <ele>1147</ele>
        <time>2014-05-21T11:23:37Z</time>
      </trkpt>
      <trkpt lat="46.71075" lon="6.32911">
        <ele>1149</ele>
        <time>2014-05-21T11:23:44Z</time>
      </trkpt>
      <trkpt lat="46.71069" lon="6.32901">
        <ele>1150</ele>
        <time>2014-05-21T11:23:51Z</time>
      </trkpt>
      <trkpt lat="46.71063" lon="6.3289">
        <ele>1153</ele>
        <time>2014-05-21T11:24:02Z</time>
      </trkpt>
      <trkpt lat="46.71057" lon="6.3288">
        <ele>1154</ele>
        <time>2014-05-21T11:24:11Z</time>
      </trkpt>
      <trkpt lat="46.71053" lon="6.32868">
        <ele>1155</ele>
        <time>2014-05-21T11:24:19Z</time>
      </trkpt>
      <trkpt lat="46.71048" lon="6.32856">
        <ele>1155</ele>
        <time>2014-05-21T11:24:30Z</time>
      </trkpt>
      <trkpt lat="46.71043" lon="6.32844">
        <ele>1155</ele>
        <time>2014-05-21T11:24:39Z</time>
      </trkpt>
      <trkpt lat="46.71038" lon="6.32834">
        <ele>1156</ele>
        <time>2014-05-21T11:24:49Z</time>
      </trkpt>
      <trkpt lat="46.71032" lon="6.32822">
        <ele>1156</ele>
        <time>2014-05-21T11:24:55Z</time>
      </trkpt>
      <trkpt lat="46.71026" lon="6.32809">
        <ele>1156</ele>
        <time>2014-05-21T11:25:03Z</time>
      </trkpt>
      <trkpt lat="46.71019" lon="6.32799">
        <ele>1156</ele>
        <time>2014-05-21T11:25:10Z</time>
      </trkpt>
      <trkpt lat="46.71011" lon="6.32791">
        <ele>1155</ele>
        <time>2014-05-21T11:25:20Z</time>
      </trkpt>
      <trkpt lat="46.71005" lon="6.32781">
        <ele>1155</ele>
        <time>2014-05-21T11:25:27Z</time>
      </trkpt>
      <trkpt lat="46.71" lon="6.32769">
        <ele>1156</ele>
        <time>2014-05-21T11:25:35Z</time>
      </trkpt>
      <trkpt lat="46.70994" lon="6.32758">
        <ele>1157</ele>
        <time>2014-05-21T11:25:43Z</time>
      </trkpt>
      <trkpt lat="46.7099" lon="6.32746">
        <ele>1158</ele>
        <time>2014-05-21T11:25:51Z</time>
      </trkpt>
      <trkpt lat="46.7099" lon="6.32733">
        <ele>1157</ele>
        <time>2014-05-21T11:26:00Z</time>
      </trkpt>
      <trkpt lat="46.70991" lon="6.32719">
        <ele>1156</ele>
        <time>2014-05-21T11:26:09Z</time>
      </trkpt>
      <trkpt lat="46.70994" lon="6.32706">
        <ele>1154</ele>
        <time>2014-05-21T11:26:19Z</time>
      </trkpt>
      <trkpt lat="46.70997" lon="6.32693">
        <ele>1152</ele>
        <time>2014-05-21T11:26:28Z</time>
      </trkpt>
      <trkpt lat="46.70999" lon="6.3268">
        <ele>1152</ele>
        <time>2014-05-21T11:26:37Z</time>
      </trkpt>
      <trkpt lat="46.71001" lon="6.32666">
        <ele>1153</ele>
        <time>2014-05-21T11:26:45Z</time>
      </trkpt>
      <trkpt lat="46.71002" lon="6.32653">
        <ele>1154</ele>
        <time>2014-05-21T11:26:54Z</time>
      </trkpt>
      <trkpt lat="46.71005" lon="6.32639">
        <ele>1156</ele>
        <time>2014-05-21T11:27:02Z</time>
      </trkpt>
      <trkpt lat="46.71004" lon="6.32625">
        <ele>1157</ele>
        <time>2014-05-21T11:27:09Z</time>
      </trkpt>
      <trkpt lat="46.71006" lon="6.32612">
        <ele>1159</ele>
        <time>2014-05-21T11:27:17Z</time>
      </trkpt>
      <trkpt lat="46.71007" lon="6.32598">
        <ele>1162</ele>
        <time>2014-05-21T11:27:26Z</time>
      </trkpt>
      <trkpt lat="46.7101" lon="6.32585">
        <ele>1163</ele>
        <time>2014-05-21T11:27:35Z</time>
      </trkpt>
      <trkpt lat="46.71011" lon="6.32571">
        <ele>1164</ele>
        <time>2014-05-21T11:27:45Z</time>
      </trkpt>
      <trkpt lat="46.71013" lon="6.32557">
        <ele>1163</ele>
        <time>2014-05-21T11:27:53Z</time>
      </trkpt>
      <trkpt lat="46.71016" lon="6.32544">
        <ele>1163</ele>
        <time>2014-05-21T11:28:02Z</time>
      </trkpt>
      <trkpt lat="46.71018" lon="6.3253">
        <ele>1163</ele>
        <time>2014-05-21T11:28:09Z</time>
      </trkpt>
      <trkpt lat="46.71018" lon="6.32517">
        <ele>1163</ele>
        <time>2014-05-21T11:28:18Z</time>
      </trkpt>
      <trkpt lat="46.71017" lon="6.32502">
        <ele>1164</ele>
        <time>2014-05-21T11:28:27Z</time>
      </trkpt>
      <trkpt lat="46.7102" lon="6.32489">
        <ele>1164</ele>
        <time>2014-05-21T11:28:36Z</time>
      </trkpt>
      <trkpt lat="46.71021" lon="6.32476">
        <ele>1164</ele>
        <time>2014-05-21T11:28:45Z</time>
      </trkpt>
      <trkpt lat="46.71023" lon="6.32462">
        <ele>1163</ele>
        <time>2014-05-21T11:28:54Z</time>
      </trkpt>
      <trkpt lat="46.71021" lon="6.32449">
        <ele>1165</ele>
        <time>2014-05-21T11:29:00Z</time>
      </trkpt>
      <trkpt lat="46.7102" lon="6.32435">
        <ele>1167</ele>
        <time>2014-05-21T11:29:07Z</time>
      </trkpt>
      <trkpt lat="46.71024" lon="6.32423">
        <ele>1166</ele>
        <time>2014-05-21T11:29:16Z</time>
      </trkpt>
      <trkpt lat="46.71027" lon="6.3241">
        <ele>1165</ele>
        <time>2014-05-21T11:29:25Z</time>
      </trkpt>
      <trkpt lat="46.71034" lon="6.32399">
        <ele>1164</ele>
        <time>2014-05-21T11:29:35Z</time>
      </trkpt>
      <trkpt lat="46.71044" lon="6.32394">
        <ele>1163</ele>
        <time>2014-05-21T11:29:42Z</time>
      </trkpt>
      <trkpt lat="46.71053" lon="6.32393">
        <ele>1162</ele>
        <time>2014-05-21T11:29:47Z</time>
      </trkpt>
      <trkpt lat="46.71062" lon="6.32389">
        <ele>1161</ele>
        <time>2014-05-21T11:29:54Z</time>
      </trkpt>
      <trkpt lat="46.71091" lon="6.32373">
        <ele>1180</ele>
        <time>2014-05-21T11:30:32Z</time>
      </trkpt>
      <trkpt lat="46.71098" lon="6.32364">
        <ele>1185</ele>
        <time>2014-05-21T11:30:40Z</time>
      </trkpt>
      <trkpt lat="46.7111" lon="6.32341">
        <ele>1196</ele>
        <time>2014-05-21T11:30:52Z</time>
      </trkpt>
      <trkpt lat="46.71111" lon="6.32327">
        <ele>1200</ele>
        <time>2014-05-21T11:31:03Z</time>
      </trkpt>
      <trkpt lat="46.71114" lon="6.32314">
        <ele>1201</ele>
        <time>2014-05-21T11:31:14Z</time>
      </trkpt>
      <trkpt lat="46.71119" lon="6.32302">
        <ele>1201</ele>
        <time>2014-05-21T11:31:24Z</time>
      </trkpt>
      <trkpt lat="46.71127" lon="6.32294">
        <ele>1201</ele>
        <time>2014-05-21T11:31:33Z</time>
      </trkpt>
      <trkpt lat="46.71136" lon="6.32287">
        <ele>1201</ele>
        <time>2014-05-21T11:31:46Z</time>
      </trkpt>
      <trkpt lat="46.71144" lon="6.32283">
        <ele>1200</ele>
        <time>2014-05-21T11:31:54Z</time>
      </trkpt>
      <trkpt lat="46.71153" lon="6.32278">
        <ele>1199</ele>
        <time>2014-05-21T11:32:05Z</time>
      </trkpt>
      <trkpt lat="46.71162" lon="6.32272">
        <ele>1193</ele>
        <time>2014-05-21T11:32:18Z</time>
      </trkpt>
      <trkpt lat="46.71171" lon="6.32268">
        <ele>1192</ele>
        <time>2014-05-21T11:32:25Z</time>
      </trkpt>
      <trkpt lat="46.7118" lon="6.32264">
        <ele>1192</ele>
        <time>2014-05-21T11:32:36Z</time>
      </trkpt>
      <trkpt lat="46.7119" lon="6.3226">
        <ele>1196</ele>
        <time>2014-05-21T11:32:48Z</time>
      </trkpt>
      <trkpt lat="46.71199" lon="6.32258">
        <ele>1198</ele>
        <time>2014-05-21T11:32:57Z</time>
      </trkpt>
      <trkpt lat="46.71208" lon="6.32256">
        <ele>1199</ele>
        <time>2014-05-21T11:33:05Z</time>
      </trkpt>
      <trkpt lat="46.71218" lon="6.32252">
        <ele>1200</ele>
        <time>2014-05-21T11:33:14Z</time>
      </trkpt>
      <trkpt lat="46.71226" lon="6.32258">
        <ele>1201</ele>
        <time>2014-05-21T11:33:22Z</time>
      </trkpt>
      <trkpt lat="46.71236" lon="6.32255">
        <ele>1201</ele>
        <time>2014-05-21T11:33:30Z</time>
      </trkpt>
      <trkpt lat="46.71244" lon="6.32249">
        <ele>1201</ele>
        <time>2014-05-21T11:33:39Z</time>
      </trkpt>
      <trkpt lat="46.71252" lon="6.32244">
        <ele>1202</ele>
        <time>2014-05-21T11:33:48Z</time>
      </trkpt>
      <trkpt lat="46.71247" lon="6.3224">
        <ele>1202</ele>
        <time>2014-05-21T11:35:26Z</time>
      </trkpt>
      <trkpt lat="46.71251" lon="6.32233">
        <ele>1197</ele>
        <time>2014-05-21T11:36:07Z</time>
      </trkpt>
      <trkpt lat="46.71256" lon="6.32235">
        <ele>1197</ele>
        <time>2014-05-21T11:36:18Z</time>
      </trkpt>
      <trkpt lat="46.71266" lon="6.32235">
        <ele>1202</ele>
        <time>2014-05-21T11:36:45Z</time>
      </trkpt>
      <trkpt lat="46.71275" lon="6.32233">
        <ele>1206</ele>
        <time>2014-05-21T11:36:57Z</time>
      </trkpt>
      <trkpt lat="46.71283" lon="6.32228">
        <ele>1208</ele>
        <time>2014-05-21T11:37:09Z</time>
      </trkpt>
      <trkpt lat="46.71293" lon="6.32226">
        <ele>1209</ele>
        <time>2014-05-21T11:37:19Z</time>
      </trkpt>
      <trkpt lat="46.71303" lon="6.32221">
        <ele>1208</ele>
        <time>2014-05-21T11:37:29Z</time>
      </trkpt>
      <trkpt lat="46.71312" lon="6.32219">
        <ele>1208</ele>
        <time>2014-05-21T11:37:40Z</time>
      </trkpt>
      <trkpt lat="46.71321" lon="6.32216">
        <ele>1206</ele>
        <time>2014-05-21T11:37:49Z</time>
      </trkpt>
      <trkpt lat="46.71329" lon="6.32211">
        <ele>1206</ele>
        <time>2014-05-21T11:38:00Z</time>
      </trkpt>
      <trkpt lat="46.71339" lon="6.32207">
        <ele>1207</ele>
        <time>2014-05-21T11:38:11Z</time>
      </trkpt>
      <trkpt lat="46.71348" lon="6.32204">
        <ele>1209</ele>
        <time>2014-05-21T11:38:21Z</time>
      </trkpt>
      <trkpt lat="46.71357" lon="6.32198">
        <ele>1210</ele>
        <time>2014-05-21T11:38:34Z</time>
      </trkpt>
      <trkpt lat="46.71365" lon="6.32193">
        <ele>1215</ele>
        <time>2014-05-21T11:38:52Z</time>
      </trkpt>
      <trkpt lat="46.71363" lon="6.32187">
        <ele>1219</ele>
        <time>2014-05-21T11:39:10Z</time>
      </trkpt>
      <trkpt lat="46.7137" lon="6.32178">
        <ele>1221</ele>
        <time>2014-05-21T11:39:37Z</time>
      </trkpt>
      <trkpt lat="46.71377" lon="6.3217">
        <ele>1219</ele>
        <time>2014-05-21T11:39:49Z</time>
      </trkpt>
      <trkpt lat="46.71387" lon="6.32169">
        <ele>1216</ele>
        <time>2014-05-21T11:39:59Z</time>
      </trkpt>
      <trkpt lat="46.71396" lon="6.32165">
        <ele>1215</ele>
        <time>2014-05-21T11:40:09Z</time>
      </trkpt>
      <trkpt lat="46.71405" lon="6.32159">
        <ele>1216</ele>
        <time>2014-05-21T11:40:20Z</time>
      </trkpt>
      <trkpt lat="46.71414" lon="6.32154">
        <ele>1220</ele>
        <time>2014-05-21T11:40:33Z</time>
      </trkpt>
      <trkpt lat="46.71423" lon="6.32152">
        <ele>1219</ele>
        <time>2014-05-21T11:40:41Z</time>
      </trkpt>
      <trkpt lat="46.71431" lon="6.32145">
        <ele>1219</ele>
        <time>2014-05-21T11:40:49Z</time>
      </trkpt>
      <trkpt lat="46.71439" lon="6.32137">
        <ele>1221</ele>
        <time>2014-05-21T11:41:03Z</time>
      </trkpt>
      <trkpt lat="46.71446" lon="6.32128">
        <ele>1220</ele>
        <time>2014-05-21T11:41:13Z</time>
      </trkpt>
      <trkpt lat="46.71455" lon="6.3212">
        <ele>1220</ele>
        <time>2014-05-21T11:41:23Z</time>
      </trkpt>
      <trkpt lat="46.71463" lon="6.32114">
        <ele>1220</ele>
        <time>2014-05-21T11:41:30Z</time>
      </trkpt>
      <trkpt lat="46.71472" lon="6.32109">
        <ele>1221</ele>
        <time>2014-05-21T11:41:46Z</time>
      </trkpt>
      <trkpt lat="46.71477" lon="6.32097">
        <ele>1222</ele>
        <time>2014-05-21T11:41:54Z</time>
      </trkpt>
      <trkpt lat="46.71486" lon="6.32093">
        <ele>1226</ele>
        <time>2014-05-21T11:42:13Z</time>
      </trkpt>
      <trkpt lat="46.71495" lon="6.32085">
        <ele>1228</ele>
        <time>2014-05-21T11:42:21Z</time>
      </trkpt>
      <trkpt lat="46.71505" lon="6.3208">
        <ele>1230</ele>
        <time>2014-05-21T11:42:28Z</time>
      </trkpt>
      <trkpt lat="46.71514" lon="6.32074">
        <ele>1234</ele>
        <time>2014-05-21T11:42:36Z</time>
      </trkpt>
      <trkpt lat="46.71522" lon="6.32067">
        <ele>1236</ele>
        <time>2014-05-21T11:42:46Z</time>
      </trkpt>
      <trkpt lat="46.71529" lon="6.32058">
        <ele>1234</ele>
        <time>2014-05-21T11:42:57Z</time>
      </trkpt>
      <trkpt lat="46.71535" lon="6.32047">
        <ele>1233</ele>
        <time>2014-05-21T11:43:07Z</time>
      </trkpt>
      <trkpt lat="46.71537" lon="6.32034">
        <ele>1232</ele>
        <time>2014-05-21T11:43:20Z</time>
      </trkpt>
      <trkpt lat="46.71549" lon="6.32025">
        <ele>1229</ele>
        <time>2014-05-21T11:43:37Z</time>
      </trkpt>
      <trkpt lat="46.71558" lon="6.32021">
        <ele>1231</ele>
        <time>2014-05-21T11:43:43Z</time>
      </trkpt>
      <trkpt lat="46.71563" lon="6.32009">
        <ele>1231</ele>
        <time>2014-05-21T11:43:52Z</time>
      </trkpt>
      <trkpt lat="46.71569" lon="6.31998">
        <ele>1230</ele>
        <time>2014-05-21T11:44:02Z</time>
      </trkpt>
      <trkpt lat="46.71575" lon="6.31988">
        <ele>1229</ele>
        <time>2014-05-21T11:44:14Z</time>
      </trkpt>
      <trkpt lat="46.71578" lon="6.31984">
        <ele>1228</ele>
        <time>2014-05-21T11:44:19Z</time>
      </trkpt>
      <trkpt lat="46.71581" lon="6.31978">
        <ele>1227</ele>
        <time>2014-05-21T11:44:24Z</time>
      </trkpt>
      <trkpt lat="46.71584" lon="6.31973">
        <ele>1227</ele>
        <time>2014-05-21T11:44:30Z</time>
      </trkpt>
      <trkpt lat="46.71587" lon="6.31968">
        <ele>1226</ele>
        <time>2014-05-21T11:44:35Z</time>
      </trkpt>
      <trkpt lat="46.71592" lon="6.31966">
        <ele>1226</ele>
        <time>2014-05-21T11:44:39Z</time>
      </trkpt>
      <trkpt lat="46.71595" lon="6.31961">
        <ele>1226</ele>
        <time>2014-05-21T11:44:46Z</time>
      </trkpt>
      <trkpt lat="46.71599" lon="6.31957">
        <ele>1226</ele>
        <time>2014-05-21T11:44:51Z</time>
      </trkpt>
      <trkpt lat="46.71603" lon="6.31954">
        <ele>1226</ele>
        <time>2014-05-21T11:44:55Z</time>
      </trkpt>
      <trkpt lat="46.71608" lon="6.3195">
        <ele>1228</ele>
        <time>2014-05-21T11:45:00Z</time>
      </trkpt>
      <trkpt lat="46.71614" lon="6.31947">
        <ele>1230</ele>
        <time>2014-05-21T11:45:04Z</time>
      </trkpt>
      <trkpt lat="46.71618" lon="6.31944">
        <ele>1233</ele>
        <time>2014-05-21T11:45:07Z</time>
      </trkpt>
      <trkpt lat="46.71621" lon="6.3194">
        <ele>1235</ele>
        <time>2014-05-21T11:45:11Z</time>
      </trkpt>
      <trkpt lat="46.71626" lon="6.31937">
        <ele>1237</ele>
        <time>2014-05-21T11:45:15Z</time>
      </trkpt>
      <trkpt lat="46.71631" lon="6.31934">
        <ele>1239</ele>
        <time>2014-05-21T11:45:19Z</time>
      </trkpt>
      <trkpt lat="46.71634" lon="6.31928">
        <ele>1242</ele>
        <time>2014-05-21T11:45:25Z</time>
      </trkpt>
      <trkpt lat="46.71636" lon="6.31922">
        <ele>1243</ele>
        <time>2014-05-21T11:45:30Z</time>
      </trkpt>
      <trkpt lat="46.71639" lon="6.31915">
        <ele>1245</ele>
        <time>2014-05-21T11:45:35Z</time>
      </trkpt>
      <trkpt lat="46.71641" lon="6.31908">
        <ele>1246</ele>
        <time>2014-05-21T11:45:40Z</time>
      </trkpt>
      <trkpt lat="46.71646" lon="6.31895">
        <ele>1244</ele>
        <time>2014-05-21T11:45:49Z</time>
      </trkpt>
      <trkpt lat="46.71652" lon="6.31885">
        <ele>1243</ele>
        <time>2014-05-21T11:45:58Z</time>
      </trkpt>
      <trkpt lat="46.71659" lon="6.31875">
        <ele>1244</ele>
        <time>2014-05-21T11:46:06Z</time>
      </trkpt>
      <trkpt lat="46.71661" lon="6.31862">
        <ele>1242</ele>
        <time>2014-05-21T11:46:16Z</time>
      </trkpt>
      <trkpt lat="46.71662" lon="6.31849">
        <ele>1240</ele>
        <time>2014-05-21T11:46:26Z</time>
      </trkpt>
      <trkpt lat="46.71666" lon="6.31828">
        <ele>1233</ele>
        <time>2014-05-21T11:46:43Z</time>
      </trkpt>
      <trkpt lat="46.71664" lon="6.31823">
        <ele>1232</ele>
        <time>2014-05-21T11:46:53Z</time>
      </trkpt>
      <trkpt lat="46.7167" lon="6.31812">
        <ele>1230</ele>
        <time>2014-05-21T11:48:20Z</time>
      </trkpt>
      <trkpt lat="46.71679" lon="6.31806">
        <ele>1232</ele>
        <time>2014-05-21T11:48:28Z</time>
      </trkpt>
      <trkpt lat="46.71688" lon="6.31803">
        <ele>1232</ele>
        <time>2014-05-21T11:48:38Z</time>
      </trkpt>
      <trkpt lat="46.71697" lon="6.318">
        <ele>1228</ele>
        <time>2014-05-21T11:48:50Z</time>
      </trkpt>
      <trkpt lat="46.71706" lon="6.31797">
        <ele>1228</ele>
        <time>2014-05-21T11:48:58Z</time>
      </trkpt>
      <trkpt lat="46.71715" lon="6.31793">
        <ele>1226</ele>
        <time>2014-05-21T11:49:06Z</time>
      </trkpt>
      <trkpt lat="46.71724" lon="6.3179">
        <ele>1226</ele>
        <time>2014-05-21T11:49:15Z</time>
      </trkpt>
      <trkpt lat="46.71733" lon="6.31789">
        <ele>1227</ele>
        <time>2014-05-21T11:49:24Z</time>
      </trkpt>
      <trkpt lat="46.71742" lon="6.31786">
        <ele>1227</ele>
        <time>2014-05-21T11:49:34Z</time>
      </trkpt>
      <trkpt lat="46.71751" lon="6.31781">
        <ele>1231</ele>
        <time>2014-05-21T11:49:44Z</time>
      </trkpt>
      <trkpt lat="46.71756" lon="6.3178">
        <ele>1234</ele>
        <time>2014-05-21T11:50:01Z</time>
      </trkpt>
      <trkpt lat="46.71765" lon="6.31773">
        <ele>1237</ele>
        <time>2014-05-21T11:50:39Z</time>
      </trkpt>
      <trkpt lat="46.71774" lon="6.31772">
        <ele>1239</ele>
        <time>2014-05-21T11:50:50Z</time>
      </trkpt>
      <trkpt lat="46.71784" lon="6.3177">
        <ele>1240</ele>
        <time>2014-05-21T11:50:58Z</time>
      </trkpt>
      <trkpt lat="46.71793" lon="6.31767">
        <ele>1241</ele>
        <time>2014-05-21T11:51:05Z</time>
      </trkpt>
      <trkpt lat="46.71802" lon="6.31763">
        <ele>1237</ele>
        <time>2014-05-21T11:51:17Z</time>
      </trkpt>
      <trkpt lat="46.71811" lon="6.31761">
        <ele>1235</ele>
        <time>2014-05-21T11:51:26Z</time>
      </trkpt>
      <trkpt lat="46.71821" lon="6.3176">
        <ele>1233</ele>
        <time>2014-05-21T11:51:35Z</time>
      </trkpt>
      <trkpt lat="46.7183" lon="6.31757">
        <ele>1232</ele>
        <time>2014-05-21T11:51:44Z</time>
      </trkpt>
      <trkpt lat="46.7184" lon="6.31754">
        <ele>1229</ele>
        <time>2014-05-21T11:51:55Z</time>
      </trkpt>
      <trkpt lat="46.71849" lon="6.31751">
        <ele>1228</ele>
        <time>2014-05-21T11:52:03Z</time>
      </trkpt>
      <trkpt lat="46.71858" lon="6.31747">
        <ele>1228</ele>
        <time>2014-05-21T11:52:12Z</time>
      </trkpt>
      <trkpt lat="46.71868" lon="6.31747">
        <ele>1228</ele>
        <time>2014-05-21T11:52:22Z</time>
      </trkpt>
      <trkpt lat="46.71877" lon="6.31742">
        <ele>1229</ele>
        <time>2014-05-21T11:52:30Z</time>
      </trkpt>
      <trkpt lat="46.71887" lon="6.31741">
        <ele>1229</ele>
        <time>2014-05-21T11:52:38Z</time>
      </trkpt>
      <trkpt lat="46.71896" lon="6.31741">
        <ele>1229</ele>
        <time>2014-05-21T11:52:45Z</time>
      </trkpt>
      <trkpt lat="46.71906" lon="6.31738">
        <ele>1229</ele>
        <time>2014-05-21T11:52:55Z</time>
      </trkpt>
      <trkpt lat="46.71915" lon="6.31736">
        <ele>1231</ele>
        <time>2014-05-21T11:53:06Z</time>
      </trkpt>
      <trkpt lat="46.71925" lon="6.31734">
        <ele>1232</ele>
        <time>2014-05-21T11:53:15Z</time>
      </trkpt>
      <trkpt lat="46.71934" lon="6.31733">
        <ele>1232</ele>
        <time>2014-05-21T11:53:24Z</time>
      </trkpt>
      <trkpt lat="46.71944" lon="6.31732">
        <ele>1232</ele>
        <time>2014-05-21T11:53:32Z</time>
      </trkpt>
      <trkpt lat="46.71954" lon="6.3173">
        <ele>1232</ele>
        <time>2014-05-21T11:53:41Z</time>
      </trkpt>
      <trkpt lat="46.71963" lon="6.31726">
        <ele>1233</ele>
        <time>2014-05-21T11:53:48Z</time>
      </trkpt>
      <trkpt lat="46.71972" lon="6.31722">
        <ele>1235</ele>
        <time>2014-05-21T11:53:56Z</time>
      </trkpt>
      <trkpt lat="46.71981" lon="6.31716">
        <ele>1235</ele>
        <time>2014-05-21T11:54:07Z</time>
      </trkpt>
      <trkpt lat="46.7199" lon="6.31711">
        <ele>1233</ele>
        <time>2014-05-21T11:54:17Z</time>
      </trkpt>
      <trkpt lat="46.71999" lon="6.31706">
        <ele>1228</ele>
        <time>2014-05-21T11:54:26Z</time>
      </trkpt>
      <trkpt lat="46.72007" lon="6.31702">
        <ele>1226</ele>
        <time>2014-05-21T11:54:34Z</time>
      </trkpt>
      <trkpt lat="46.72016" lon="6.31697">
        <ele>1226</ele>
        <time>2014-05-21T11:54:41Z</time>
      </trkpt>
      <trkpt lat="46.72024" lon="6.3169">
        <ele>1226</ele>
        <time>2014-05-21T11:54:48Z</time>
      </trkpt>
      <trkpt lat="46.72032" lon="6.31684">
        <ele>1226</ele>
        <time>2014-05-21T11:54:56Z</time>
      </trkpt>
      <trkpt lat="46.72037" lon="6.31676">
        <ele>1228</ele>
        <time>2014-05-21T11:55:04Z</time>
      </trkpt>
      <trkpt lat="46.72039" lon="6.31668">
        <ele>1227</ele>
        <time>2014-05-21T11:55:16Z</time>
      </trkpt>
      <trkpt lat="46.72044" lon="6.31658">
        <ele>1222</ele>
        <time>2014-05-21T11:55:30Z</time>
      </trkpt>
      <trkpt lat="46.72048" lon="6.31652">
        <ele>1221</ele>
        <time>2014-05-21T11:55:35Z</time>
      </trkpt>
      <trkpt lat="46.72052" lon="6.31648">
        <ele>1220</ele>
        <time>2014-05-21T11:55:40Z</time>
      </trkpt>
      <trkpt lat="46.72055" lon="6.31643">
        <ele>1219</ele>
        <time>2014-05-21T11:55:48Z</time>
      </trkpt>
      <trkpt lat="46.72059" lon="6.31639">
        <ele>1219</ele>
        <time>2014-05-21T11:55:57Z</time>
      </trkpt>
      <trkpt lat="46.72062" lon="6.31636">
        <ele>1219</ele>
        <time>2014-05-21T11:56:20Z</time>
      </trkpt>
      <trkpt lat="46.72064" lon="6.31633">
        <ele>1220</ele>
        <time>2014-05-21T11:56:54Z</time>
      </trkpt>
      <trkpt lat="46.72068" lon="6.31635">
        <ele>1220</ele>
        <time>2014-05-21T11:56:59Z</time>
      </trkpt>
      <trkpt lat="46.72074" lon="6.31637">
        <ele>1220</ele>
        <time>2014-05-21T11:57:04Z</time>
      </trkpt>
      <trkpt lat="46.72077" lon="6.31641">
        <ele>1220</ele>
        <time>2014-05-21T11:57:09Z</time>
      </trkpt>
      <trkpt lat="46.72081" lon="6.31653">
        <ele>1219</ele>
        <time>2014-05-21T11:57:19Z</time>
      </trkpt>
      <trkpt lat="46.72088" lon="6.31663">
        <ele>1219</ele>
        <time>2014-05-21T11:57:30Z</time>
      </trkpt>
      <trkpt lat="46.72096" lon="6.31669">
        <ele>1220</ele>
        <time>2014-05-21T11:57:42Z</time>
      </trkpt>
      <trkpt lat="46.72098" lon="6.31683">
        <ele>1219</ele>
        <time>2014-05-21T11:57:54Z</time>
      </trkpt>
      <trkpt lat="46.72096" lon="6.31697">
        <ele>1217</ele>
        <time>2014-05-21T11:58:05Z</time>
      </trkpt>
      <trkpt lat="46.72092" lon="6.31709">
        <ele>1217</ele>
        <time>2014-05-21T11:58:14Z</time>
      </trkpt>
      <trkpt lat="46.72092" lon="6.31719">
        <ele>1219</ele>
        <time>2014-05-21T11:58:30Z</time>
      </trkpt>
      <trkpt lat="46.72088" lon="6.3173">
        <ele>1221</ele>
        <time>2014-05-21T11:58:44Z</time>
      </trkpt>
      <trkpt lat="46.72082" lon="6.31742">
        <ele>1223</ele>
        <time>2014-05-21T11:58:54Z</time>
      </trkpt>
      <trkpt lat="46.72081" lon="6.31756">
        <ele>1225</ele>
        <time>2014-05-21T11:59:06Z</time>
      </trkpt>
      <trkpt lat="46.72082" lon="6.31769">
        <ele>1224</ele>
        <time>2014-05-21T11:59:17Z</time>
      </trkpt>
      <trkpt lat="46.72081" lon="6.31784">
        <ele>1224</ele>
        <time>2014-05-21T11:59:25Z</time>
      </trkpt>
      <trkpt lat="46.72085" lon="6.31797">
        <ele>1224</ele>
        <time>2014-05-21T11:59:38Z</time>
      </trkpt>
      <trkpt lat="46.72083" lon="6.31812">
        <ele>1223</ele>
        <time>2014-05-21T11:59:44Z</time>
      </trkpt>
      <trkpt lat="46.72082" lon="6.31826">
        <ele>1223</ele>
        <time>2014-05-21T11:59:52Z</time>
      </trkpt>
      <trkpt lat="46.72079" lon="6.31838">
        <ele>1224</ele>
        <time>2014-05-21T12:00:03Z</time>
      </trkpt>
      <trkpt lat="46.72076" lon="6.31851">
        <ele>1226</ele>
        <time>2014-05-21T12:00:13Z</time>
      </trkpt>
      <trkpt lat="46.72072" lon="6.31864">
        <ele>1230</ele>
        <time>2014-05-21T12:00:23Z</time>
      </trkpt>
      <trkpt lat="46.72068" lon="6.31877">
        <ele>1231</ele>
        <time>2014-05-21T12:00:31Z</time>
      </trkpt>
      <trkpt lat="46.72065" lon="6.3189">
        <ele>1234</ele>
        <time>2014-05-21T12:00:39Z</time>
      </trkpt>
      <trkpt lat="46.72062" lon="6.31904">
        <ele>1235</ele>
        <time>2014-05-21T12:00:49Z</time>
      </trkpt>
      <trkpt lat="46.72058" lon="6.31917">
        <ele>1237</ele>
        <time>2014-05-21T12:00:57Z</time>
      </trkpt>
      <trkpt lat="46.72054" lon="6.3193">
        <ele>1239</ele>
        <time>2014-05-21T12:01:05Z</time>
      </trkpt>
      <trkpt lat="46.72052" lon="6.31944">
        <ele>1241</ele>
        <time>2014-05-21T12:01:15Z</time>
      </trkpt>
      <trkpt lat="46.72048" lon="6.31956">
        <ele>1241</ele>
        <time>2014-05-21T12:01:23Z</time>
      </trkpt>
      <trkpt lat="46.72047" lon="6.31969">
        <ele>1242</ele>
        <time>2014-05-21T12:01:32Z</time>
      </trkpt>
      <trkpt lat="46.72043" lon="6.31982">
        <ele>1243</ele>
        <time>2014-05-21T12:01:42Z</time>
      </trkpt>
      <trkpt lat="46.72041" lon="6.31995">
        <ele>1243</ele>
        <time>2014-05-21T12:01:51Z</time>
      </trkpt>
      <trkpt lat="46.72037" lon="6.32006">
        <ele>1243</ele>
        <time>2014-05-21T12:01:58Z</time>
      </trkpt>
      <trkpt lat="46.72035" lon="6.3202">
        <ele>1243</ele>
        <time>2014-05-21T12:02:07Z</time>
      </trkpt>
      <trkpt lat="46.72032" lon="6.32033">
        <ele>1242</ele>
        <time>2014-05-21T12:02:16Z</time>
      </trkpt>
      <trkpt lat="46.72028" lon="6.32046">
        <ele>1243</ele>
        <time>2014-05-21T12:02:25Z</time>
      </trkpt>
      <trkpt lat="46.72024" lon="6.32058">
        <ele>1244</ele>
        <time>2014-05-21T12:02:34Z</time>
      </trkpt>
      <trkpt lat="46.72021" lon="6.32072">
        <ele>1246</ele>
        <time>2014-05-21T12:02:43Z</time>
      </trkpt>
      <trkpt lat="46.72025" lon="6.32084">
        <ele>1248</ele>
        <time>2014-05-21T12:02:54Z</time>
      </trkpt>
      <trkpt lat="46.72024" lon="6.32097">
        <ele>1249</ele>
        <time>2014-05-21T12:03:03Z</time>
      </trkpt>
      <trkpt lat="46.72022" lon="6.32112">
        <ele>1250</ele>
        <time>2014-05-21T12:03:10Z</time>
      </trkpt>
      <trkpt lat="46.72018" lon="6.32124">
        <ele>1252</ele>
        <time>2014-05-21T12:03:17Z</time>
      </trkpt>
      <trkpt lat="46.72015" lon="6.32138">
        <ele>1254</ele>
        <time>2014-05-21T12:03:27Z</time>
      </trkpt>
      <trkpt lat="46.72014" lon="6.32152">
        <ele>1254</ele>
        <time>2014-05-21T12:03:35Z</time>
      </trkpt>
      <trkpt lat="46.72011" lon="6.32166">
        <ele>1252</ele>
        <time>2014-05-21T12:03:46Z</time>
      </trkpt>
      <trkpt lat="46.72012" lon="6.3218">
        <ele>1249</ele>
        <time>2014-05-21T12:03:58Z</time>
      </trkpt>
      <trkpt lat="46.72013" lon="6.32195">
        <ele>1249</ele>
        <time>2014-05-21T12:04:07Z</time>
      </trkpt>
      <trkpt lat="46.72013" lon="6.32208">
        <ele>1248</ele>
        <time>2014-05-21T12:04:18Z</time>
      </trkpt>
      <trkpt lat="46.72014" lon="6.32222">
        <ele>1247</ele>
        <time>2014-05-21T12:04:27Z</time>
      </trkpt>
      <trkpt lat="46.72013" lon="6.32236">
        <ele>1247</ele>
        <time>2014-05-21T12:04:35Z</time>
      </trkpt>
      <trkpt lat="46.72017" lon="6.32249">
        <ele>1247</ele>
        <time>2014-05-21T12:04:48Z</time>
      </trkpt>
      <trkpt lat="46.72021" lon="6.32262">
        <ele>1246</ele>
        <time>2014-05-21T12:04:59Z</time>
      </trkpt>
      <trkpt lat="46.72022" lon="6.32275">
        <ele>1245</ele>
        <time>2014-05-21T12:05:07Z</time>
      </trkpt>
      <trkpt lat="46.72025" lon="6.32288">
        <ele>1246</ele>
        <time>2014-05-21T12:05:18Z</time>
      </trkpt>
      <trkpt lat="46.72024" lon="6.32302">
        <ele>1246</ele>
        <time>2014-05-21T12:05:25Z</time>
      </trkpt>
      <trkpt lat="46.72024" lon="6.32315">
        <ele>1246</ele>
        <time>2014-05-21T12:05:31Z</time>
      </trkpt>
      <trkpt lat="46.72027" lon="6.32328">
        <ele>1245</ele>
        <time>2014-05-21T12:05:41Z</time>
      </trkpt>
      <trkpt lat="46.72031" lon="6.3234">
        <ele>1244</ele>
        <time>2014-05-21T12:05:49Z</time>
      </trkpt>
      <trkpt lat="46.72033" lon="6.32354">
        <ele>1245</ele>
        <time>2014-05-21T12:05:58Z</time>
      </trkpt>
      <trkpt lat="46.72036" lon="6.32367">
        <ele>1246</ele>
        <time>2014-05-21T12:06:07Z</time>
      </trkpt>
      <trkpt lat="46.72038" lon="6.32381">
        <ele>1247</ele>
        <time>2014-05-21T12:06:19Z</time>
      </trkpt>
      <trkpt lat="46.72032" lon="6.32392">
        <ele>1248</ele>
        <time>2014-05-21T12:06:29Z</time>
      </trkpt>
      <trkpt lat="46.72024" lon="6.32398">
        <ele>1249</ele>
        <time>2014-05-21T12:06:36Z</time>
      </trkpt>
      <trkpt lat="46.72021" lon="6.32411">
        <ele>1250</ele>
        <time>2014-05-21T12:06:46Z</time>
      </trkpt>
      <trkpt lat="46.72018" lon="6.32424">
        <ele>1252</ele>
        <time>2014-05-21T12:06:58Z</time>
      </trkpt>
      <trkpt lat="46.72013" lon="6.32435">
        <ele>1254</ele>
        <time>2014-05-21T12:07:10Z</time>
      </trkpt>
      <trkpt lat="46.72008" lon="6.32447">
        <ele>1253</ele>
        <time>2014-05-21T12:07:23Z</time>
      </trkpt>
      <trkpt lat="46.72001" lon="6.32455">
        <ele>1252</ele>
        <time>2014-05-21T12:07:31Z</time>
      </trkpt>
      <trkpt lat="46.71996" lon="6.32467">
        <ele>1250</ele>
        <time>2014-05-21T12:07:39Z</time>
      </trkpt>
      <trkpt lat="46.71993" lon="6.3248">
        <ele>1250</ele>
        <time>2014-05-21T12:07:49Z</time>
      </trkpt>
      <trkpt lat="46.71986" lon="6.3249">
        <ele>1250</ele>
        <time>2014-05-21T12:07:57Z</time>
      </trkpt>
      <trkpt lat="46.71981" lon="6.32502">
        <ele>1250</ele>
        <time>2014-05-21T12:08:04Z</time>
      </trkpt>
      <trkpt lat="46.71976" lon="6.32512">
        <ele>1250</ele>
        <time>2014-05-21T12:08:12Z</time>
      </trkpt>
      <trkpt lat="46.71969" lon="6.32522">
        <ele>1250</ele>
        <time>2014-05-21T12:08:21Z</time>
      </trkpt>
      <trkpt lat="46.71964" lon="6.32534">
        <ele>1251</ele>
        <time>2014-05-21T12:08:30Z</time>
      </trkpt>
      <trkpt lat="46.7196" lon="6.32546">
        <ele>1250</ele>
        <time>2014-05-21T12:08:38Z</time>
      </trkpt>
      <trkpt lat="46.71964" lon="6.32555">
        <ele>1249</ele>
        <time>2014-05-21T12:08:54Z</time>
      </trkpt>
      <trkpt lat="46.7197" lon="6.32558">
        <ele>1251</ele>
        <time>2014-05-21T12:09:13Z</time>
      </trkpt>
      <trkpt lat="46.71964" lon="6.32564">
        <ele>1253</ele>
        <time>2014-05-21T12:10:56Z</time>
      </trkpt>
      <trkpt lat="46.71961" lon="6.32577">
        <ele>1253</ele>
        <time>2014-05-21T12:11:34Z</time>
      </trkpt>
      <trkpt lat="46.71962" lon="6.32592">
        <ele>1249</ele>
        <time>2014-05-21T12:11:46Z</time>
      </trkpt>
      <trkpt lat="46.71964" lon="6.32606">
        <ele>1247</ele>
        <time>2014-05-21T12:11:55Z</time>
      </trkpt>
      <trkpt lat="46.71966" lon="6.32619">
        <ele>1247</ele>
        <time>2014-05-21T12:12:05Z</time>
      </trkpt>
      <trkpt lat="46.71968" lon="6.32633">
        <ele>1247</ele>
        <time>2014-05-21T12:12:16Z</time>
      </trkpt>
      <trkpt lat="46.7197" lon="6.32647">
        <ele>1248</ele>
        <time>2014-05-21T12:12:25Z</time>
      </trkpt>
      <trkpt lat="46.71974" lon="6.32659">
        <ele>1248</ele>
        <time>2014-05-21T12:12:35Z</time>
      </trkpt>
      <trkpt lat="46.71979" lon="6.3267">
        <ele>1248</ele>
        <time>2014-05-21T12:12:46Z</time>
      </trkpt>
      <trkpt lat="46.71981" lon="6.32683">
        <ele>1247</ele>
        <time>2014-05-21T12:12:55Z</time>
      </trkpt>
      <trkpt lat="46.71988" lon="6.32692">
        <ele>1248</ele>
        <time>2014-05-21T12:13:04Z</time>
      </trkpt>
      <trkpt lat="46.71995" lon="6.32699">
        <ele>1248</ele>
        <time>2014-05-21T12:13:14Z</time>
      </trkpt>
      <trkpt lat="46.72002" lon="6.3271">
        <ele>1249</ele>
        <time>2014-05-21T12:13:24Z</time>
      </trkpt>
      <trkpt lat="46.7201" lon="6.32716">
        <ele>1251</ele>
        <time>2014-05-21T12:13:35Z</time>
      </trkpt>
      <trkpt lat="46.72019" lon="6.32721">
        <ele>1252</ele>
        <time>2014-05-21T12:13:43Z</time>
      </trkpt>
      <trkpt lat="46.72028" lon="6.32724">
        <ele>1253</ele>
        <time>2014-05-21T12:13:52Z</time>
      </trkpt>
      <trkpt lat="46.72036" lon="6.3273">
        <ele>1256</ele>
        <time>2014-05-21T12:14:00Z</time>
      </trkpt>
      <trkpt lat="46.72044" lon="6.32736">
        <ele>1258</ele>
        <time>2014-05-21T12:14:09Z</time>
      </trkpt>
      <trkpt lat="46.72053" lon="6.32739">
        <ele>1259</ele>
        <time>2014-05-21T12:14:16Z</time>
      </trkpt>
      <trkpt lat="46.72059" lon="6.32749">
        <ele>1258</ele>
        <time>2014-05-21T12:14:24Z</time>
      </trkpt>
      <trkpt lat="46.72063" lon="6.32761">
        <ele>1254</ele>
        <time>2014-05-21T12:14:34Z</time>
      </trkpt>
      <trkpt lat="46.72066" lon="6.32774">
        <ele>1253</ele>
        <time>2014-05-21T12:14:47Z</time>
      </trkpt>
      <trkpt lat="46.72064" lon="6.32789">
        <ele>1252</ele>
        <time>2014-05-21T12:14:59Z</time>
      </trkpt>
      <trkpt lat="46.72062" lon="6.32802">
        <ele>1253</ele>
        <time>2014-05-21T12:15:06Z</time>
      </trkpt>
      <trkpt lat="46.72067" lon="6.32814">
        <ele>1256</ele>
        <time>2014-05-21T12:15:19Z</time>
      </trkpt>
      <trkpt lat="46.72067" lon="6.32829">
        <ele>1256</ele>
        <time>2014-05-21T12:15:33Z</time>
      </trkpt>
      <trkpt lat="46.72066" lon="6.32842">
        <ele>1258</ele>
        <time>2014-05-21T12:15:40Z</time>
      </trkpt>
      <trkpt lat="46.72065" lon="6.32855">
        <ele>1259</ele>
        <time>2014-05-21T12:15:49Z</time>
      </trkpt>
      <trkpt lat="46.72066" lon="6.32869">
        <ele>1260</ele>
        <time>2014-05-21T12:16:02Z</time>
      </trkpt>
      <trkpt lat="46.72069" lon="6.32883">
        <ele>1262</ele>
        <time>2014-05-21T12:16:13Z</time>
      </trkpt>
      <trkpt lat="46.72078" lon="6.32884">
        <ele>1263</ele>
        <time>2014-05-21T12:16:26Z</time>
      </trkpt>
      <trkpt lat="46.72087" lon="6.32886">
        <ele>1266</ele>
        <time>2014-05-21T12:16:36Z</time>
      </trkpt>
      <trkpt lat="46.72097" lon="6.32883">
        <ele>1267</ele>
        <time>2014-05-21T12:16:46Z</time>
      </trkpt>
      <trkpt lat="46.72106" lon="6.3288">
        <ele>1269</ele>
        <time>2014-05-21T12:16:53Z</time>
      </trkpt>
      <trkpt lat="46.72115" lon="6.32873">
        <ele>1271</ele>
        <time>2014-05-21T12:17:04Z</time>
      </trkpt>
      <trkpt lat="46.72121" lon="6.32862">
        <ele>1271</ele>
        <time>2014-05-21T12:17:15Z</time>
      </trkpt>
      <trkpt lat="46.72124" lon="6.32848">
        <ele>1271</ele>
        <time>2014-05-21T12:17:25Z</time>
      </trkpt>
      <trkpt lat="46.72126" lon="6.32835">
        <ele>1272</ele>
        <time>2014-05-21T12:17:33Z</time>
      </trkpt>
      <trkpt lat="46.7213" lon="6.32822">
        <ele>1271</ele>
        <time>2014-05-21T12:17:44Z</time>
      </trkpt>
      <trkpt lat="46.72133" lon="6.3281">
        <ele>1269</ele>
        <time>2014-05-21T12:17:53Z</time>
      </trkpt>
      <trkpt lat="46.72137" lon="6.32797">
        <ele>1267</ele>
        <time>2014-05-21T12:18:05Z</time>
      </trkpt>
      <trkpt lat="46.7214" lon="6.32784">
        <ele>1268</ele>
        <time>2014-05-21T12:18:13Z</time>
      </trkpt>
      <trkpt lat="46.72145" lon="6.32773">
        <ele>1269</ele>
        <time>2014-05-21T12:18:22Z</time>
      </trkpt>
      <trkpt lat="46.7215" lon="6.32761">
        <ele>1270</ele>
        <time>2014-05-21T12:18:31Z</time>
      </trkpt>
      <trkpt lat="46.72156" lon="6.32751">
        <ele>1270</ele>
        <time>2014-05-21T12:18:40Z</time>
      </trkpt>
      <trkpt lat="46.72162" lon="6.3274">
        <ele>1273</ele>
        <time>2014-05-21T12:18:49Z</time>
      </trkpt>
      <trkpt lat="46.72166" lon="6.32727">
        <ele>1273</ele>
        <time>2014-05-21T12:18:59Z</time>
      </trkpt>
      <trkpt lat="46.72168" lon="6.32714">
        <ele>1271</ele>
        <time>2014-05-21T12:19:10Z</time>
      </trkpt>
      <trkpt lat="46.72174" lon="6.32704">
        <ele>1270</ele>
        <time>2014-05-21T12:19:20Z</time>
      </trkpt>
      <trkpt lat="46.72179" lon="6.32692">
        <ele>1267</ele>
        <time>2014-05-21T12:19:30Z</time>
      </trkpt>
      <trkpt lat="46.72185" lon="6.32682">
        <ele>1268</ele>
        <time>2014-05-21T12:19:37Z</time>
      </trkpt>
      <trkpt lat="46.7219" lon="6.32671">
        <ele>1268</ele>
        <time>2014-05-21T12:19:45Z</time>
      </trkpt>
      <trkpt lat="46.72196" lon="6.3266">
        <ele>1267</ele>
        <time>2014-05-21T12:19:52Z</time>
      </trkpt>
      <trkpt lat="46.72204" lon="6.32651">
        <ele>1267</ele>
        <time>2014-05-21T12:19:59Z</time>
      </trkpt>
      <trkpt lat="46.72209" lon="6.32639">
        <ele>1266</ele>
        <time>2014-05-21T12:20:08Z</time>
      </trkpt>
      <trkpt lat="46.72214" lon="6.32628">
        <ele>1264</ele>
        <time>2014-05-21T12:20:18Z</time>
      </trkpt>
      <trkpt lat="46.7222" lon="6.32618">
        <ele>1263</ele>
        <time>2014-05-21T12:20:26Z</time>
      </trkpt>
      <trkpt lat="46.72228" lon="6.3261">
        <ele>1264</ele>
        <time>2014-05-21T12:20:32Z</time>
      </trkpt>
      <trkpt lat="46.72232" lon="6.32598">
        <ele>1265</ele>
        <time>2014-05-21T12:20:40Z</time>
      </trkpt>
      <trkpt lat="46.72237" lon="6.32587">
        <ele>1268</ele>
        <time>2014-05-21T12:20:49Z</time>
      </trkpt>
      <trkpt lat="46.72241" lon="6.32574">
        <ele>1269</ele>
        <time>2014-05-21T12:21:02Z</time>
      </trkpt>
      <trkpt lat="46.72247" lon="6.32562">
        <ele>1268</ele>
        <time>2014-05-21T12:21:16Z</time>
      </trkpt>
      <trkpt lat="46.72255" lon="6.32555">
        <ele>1268</ele>
        <time>2014-05-21T12:21:24Z</time>
      </trkpt>
      <trkpt lat="46.72263" lon="6.32547">
        <ele>1270</ele>
        <time>2014-05-21T12:21:32Z</time>
      </trkpt>
      <trkpt lat="46.72271" lon="6.32539">
        <ele>1271</ele>
        <time>2014-05-21T12:21:40Z</time>
      </trkpt>
      <trkpt lat="46.72279" lon="6.3253">
        <ele>1272</ele>
        <time>2014-05-21T12:21:50Z</time>
      </trkpt>
      <trkpt lat="46.72287" lon="6.32523">
        <ele>1273</ele>
        <time>2014-05-21T12:21:57Z</time>
      </trkpt>
      <trkpt lat="46.72294" lon="6.32514">
        <ele>1276</ele>
        <time>2014-05-21T12:22:04Z</time>
      </trkpt>
      <trkpt lat="46.72301" lon="6.32505">
        <ele>1279</ele>
        <time>2014-05-21T12:22:14Z</time>
      </trkpt>
      <trkpt lat="46.72307" lon="6.32495">
        <ele>1277</ele>
        <time>2014-05-21T12:22:25Z</time>
      </trkpt>
      <trkpt lat="46.72312" lon="6.32484">
        <ele>1275</ele>
        <time>2014-05-21T12:22:38Z</time>
      </trkpt>
      <trkpt lat="46.7232" lon="6.32474">
        <ele>1273</ele>
        <time>2014-05-21T12:22:46Z</time>
      </trkpt>
      <trkpt lat="46.72324" lon="6.32463">
        <ele>1271</ele>
        <time>2014-05-21T12:22:55Z</time>
      </trkpt>
      <trkpt lat="46.72331" lon="6.32451">
        <ele>1268</ele>
        <time>2014-05-21T12:23:04Z</time>
      </trkpt>
      <trkpt lat="46.72335" lon="6.32439">
        <ele>1269</ele>
        <time>2014-05-21T12:23:12Z</time>
      </trkpt>
      <trkpt lat="46.72341" lon="6.32428">
        <ele>1269</ele>
        <time>2014-05-21T12:23:21Z</time>
      </trkpt>
      <trkpt lat="46.72346" lon="6.32417">
        <ele>1270</ele>
        <time>2014-05-21T12:23:29Z</time>
      </trkpt>
      <trkpt lat="46.72351" lon="6.32406">
        <ele>1270</ele>
        <time>2014-05-21T12:23:39Z</time>
      </trkpt>
      <trkpt lat="46.72357" lon="6.32395">
        <ele>1270</ele>
        <time>2014-05-21T12:23:48Z</time>
      </trkpt>
      <trkpt lat="46.72362" lon="6.32384">
        <ele>1270</ele>
        <time>2014-05-21T12:23:56Z</time>
      </trkpt>
      <trkpt lat="46.72364" lon="6.32371">
        <ele>1268</ele>
        <time>2014-05-21T12:24:06Z</time>
      </trkpt>
      <trkpt lat="46.72368" lon="6.32359">
        <ele>1265</ele>
        <time>2014-05-21T12:24:16Z</time>
      </trkpt>
      <trkpt lat="46.72373" lon="6.32347">
        <ele>1263</ele>
        <time>2014-05-21T12:24:27Z</time>
      </trkpt>
      <trkpt lat="46.72377" lon="6.32334">
        <ele>1260</ele>
        <time>2014-05-21T12:24:36Z</time>
      </trkpt>
      <trkpt lat="46.72384" lon="6.32323">
        <ele>1262</ele>
        <time>2014-05-21T12:24:42Z</time>
      </trkpt>
      <trkpt lat="46.7239" lon="6.32311">
        <ele>1265</ele>
        <time>2014-05-21T12:24:49Z</time>
      </trkpt>
      <trkpt lat="46.72396" lon="6.32301">
        <ele>1267</ele>
        <time>2014-05-21T12:24:57Z</time>
      </trkpt>
      <trkpt lat="46.72405" lon="6.32293">
        <ele>1269</ele>
        <time>2014-05-21T12:25:05Z</time>
      </trkpt>
      <trkpt lat="46.72414" lon="6.32287">
        <ele>1271</ele>
        <time>2014-05-21T12:25:11Z</time>
      </trkpt>
      <trkpt lat="46.72423" lon="6.32281">
        <ele>1273</ele>
        <time>2014-05-21T12:25:18Z</time>
      </trkpt>
      <trkpt lat="46.72431" lon="6.32273">
        <ele>1274</ele>
        <time>2014-05-21T12:25:24Z</time>
      </trkpt>
      <trkpt lat="46.72438" lon="6.32264">
        <ele>1276</ele>
        <time>2014-05-21T12:25:31Z</time>
      </trkpt>
      <trkpt lat="46.72445" lon="6.32254">
        <ele>1277</ele>
        <time>2014-05-21T12:25:41Z</time>
      </trkpt>
      <trkpt lat="46.72452" lon="6.32244">
        <ele>1277</ele>
        <time>2014-05-21T12:25:53Z</time>
      </trkpt>
      <trkpt lat="46.72461" lon="6.32237">
        <ele>1277</ele>
        <time>2014-05-21T12:26:00Z</time>
      </trkpt>
      <trkpt lat="46.72469" lon="6.3223">
        <ele>1276</ele>
        <time>2014-05-21T12:26:09Z</time>
      </trkpt>
      <trkpt lat="46.7247" lon="6.32223">
        <ele>1270</ele>
        <time>2014-05-21T12:26:23Z</time>
      </trkpt>
      <trkpt lat="46.72478" lon="6.32216">
        <ele>1261</ele>
        <time>2014-05-21T12:26:35Z</time>
      </trkpt>
      <trkpt lat="46.72485" lon="6.32206">
        <ele>1259</ele>
        <time>2014-05-21T12:26:47Z</time>
      </trkpt>
      <trkpt lat="46.72493" lon="6.32199">
        <ele>1260</ele>
        <time>2014-05-21T12:26:55Z</time>
      </trkpt>
      <trkpt lat="46.72501" lon="6.32193">
        <ele>1262</ele>
        <time>2014-05-21T12:27:03Z</time>
      </trkpt>
      <trkpt lat="46.72511" lon="6.32189">
        <ele>1267</ele>
        <time>2014-05-21T12:27:10Z</time>
      </trkpt>
      <trkpt lat="46.72519" lon="6.32183">
        <ele>1270</ele>
        <time>2014-05-21T12:27:18Z</time>
      </trkpt>
      <trkpt lat="46.72547" lon="6.32173">
        <ele>1282</ele>
        <time>2014-05-21T12:27:41Z</time>
      </trkpt>
      <trkpt lat="46.72556" lon="6.32168">
        <ele>1280</ele>
        <time>2014-05-21T12:27:55Z</time>
      </trkpt>
      <trkpt lat="46.72566" lon="6.32165">
        <ele>1281</ele>
        <time>2014-05-21T12:28:03Z</time>
      </trkpt>
      <trkpt lat="46.72575" lon="6.32163">
        <ele>1282</ele>
        <time>2014-05-21T12:28:11Z</time>
      </trkpt>
      <trkpt lat="46.72585" lon="6.3216">
        <ele>1284</ele>
        <time>2014-05-21T12:28:19Z</time>
      </trkpt>
      <trkpt lat="46.72594" lon="6.32155">
        <ele>1276</ele>
        <time>2014-05-21T12:28:36Z</time>
      </trkpt>
      <trkpt lat="46.72603" lon="6.3215">
        <ele>1273</ele>
        <time>2014-05-21T12:28:45Z</time>
      </trkpt>
      <trkpt lat="46.72625" lon="6.32122">
        <ele>1253</ele>
        <time>2014-05-21T12:29:16Z</time>
      </trkpt>
      <trkpt lat="46.72633" lon="6.32113">
        <ele>1251</ele>
        <time>2014-05-21T12:29:25Z</time>
      </trkpt>
      <trkpt lat="46.72641" lon="6.32106">
        <ele>1250</ele>
        <time>2014-05-21T12:29:34Z</time>
      </trkpt>
      <trkpt lat="46.72644" lon="6.32093">
        <ele>1247</ele>
        <time>2014-05-21T12:29:45Z</time>
      </trkpt>
      <trkpt lat="46.72652" lon="6.32087">
        <ele>1244</ele>
        <time>2014-05-21T12:29:56Z</time>
      </trkpt>
      <trkpt lat="46.7266" lon="6.3208">
        <ele>1245</ele>
        <time>2014-05-21T12:30:05Z</time>
      </trkpt>
      <trkpt lat="46.72669" lon="6.32074">
        <ele>1246</ele>
        <time>2014-05-21T12:30:13Z</time>
      </trkpt>
      <trkpt lat="46.72679" lon="6.32072">
        <ele>1247</ele>
        <time>2014-05-21T12:30:21Z</time>
      </trkpt>
      <trkpt lat="46.72689" lon="6.32068">
        <ele>1250</ele>
        <time>2014-05-21T12:30:29Z</time>
      </trkpt>
      <trkpt lat="46.72698" lon="6.32069">
        <ele>1253</ele>
        <time>2014-05-21T12:30:37Z</time>
      </trkpt>
      <trkpt lat="46.72708" lon="6.32066">
        <ele>1255</ele>
        <time>2014-05-21T12:30:44Z</time>
      </trkpt>
      <trkpt lat="46.72717" lon="6.32064">
        <ele>1257</ele>
        <time>2014-05-21T12:30:51Z</time>
      </trkpt>
      <trkpt lat="46.72727" lon="6.32063">
        <ele>1257</ele>
        <time>2014-05-21T12:30:58Z</time>
      </trkpt>
      <trkpt lat="46.72737" lon="6.32062">
        <ele>1259</ele>
        <time>2014-05-21T12:31:03Z</time>
      </trkpt>
      <trkpt lat="46.72747" lon="6.32061">
        <ele>1261</ele>
        <time>2014-05-21T12:31:09Z</time>
      </trkpt>
      <trkpt lat="46.72755" lon="6.32057">
        <ele>1265</ele>
        <time>2014-05-21T12:31:17Z</time>
      </trkpt>
      <trkpt lat="46.72764" lon="6.32058">
        <ele>1265</ele>
        <time>2014-05-21T12:31:26Z</time>
      </trkpt>
      <trkpt lat="46.7279" lon="6.32076">
        <ele>1240</ele>
        <time>2014-05-21T12:31:59Z</time>
      </trkpt>
      <trkpt lat="46.72799" lon="6.32077">
        <ele>1238</ele>
        <time>2014-05-21T12:32:08Z</time>
      </trkpt>
      <trkpt lat="46.72808" lon="6.32082">
        <ele>1235</ele>
        <time>2014-05-21T12:32:18Z</time>
      </trkpt>
      <trkpt lat="46.72816" lon="6.32089">
        <ele>1232</ele>
        <time>2014-05-21T12:32:26Z</time>
      </trkpt>
      <trkpt lat="46.72826" lon="6.32089">
        <ele>1230</ele>
        <time>2014-05-21T12:32:34Z</time>
      </trkpt>
      <trkpt lat="46.72834" lon="6.32095">
        <ele>1230</ele>
        <time>2014-05-21T12:32:44Z</time>
      </trkpt>
      <trkpt lat="46.72843" lon="6.32101">
        <ele>1228</ele>
        <time>2014-05-21T12:32:56Z</time>
      </trkpt>
      <trkpt lat="46.72848" lon="6.32104">
        <ele>1227</ele>
        <time>2014-05-21T12:33:08Z</time>
      </trkpt>
      <trkpt lat="46.72851" lon="6.32109">
        <ele>1231</ele>
        <time>2014-05-21T12:38:53Z</time>
      </trkpt>
      <trkpt lat="46.72856" lon="6.32112">
        <ele>1231</ele>
        <time>2014-05-21T12:39:03Z</time>
      </trkpt>
      <trkpt lat="46.7286" lon="6.32115">
        <ele>1231</ele>
        <time>2014-05-21T12:39:07Z</time>
      </trkpt>
      <trkpt lat="46.7287" lon="6.32111">
        <ele>1229</ele>
        <time>2014-05-21T12:39:17Z</time>
      </trkpt>
      <trkpt lat="46.72872" lon="6.32099">
        <ele>1230</ele>
        <time>2014-05-21T12:40:39Z</time>
      </trkpt>
      <trkpt lat="46.72883" lon="6.32093">
        <ele>1228</ele>
        <time>2014-05-21T12:41:00Z</time>
      </trkpt>
      <trkpt lat="46.72892" lon="6.3209">
        <ele>1227</ele>
        <time>2014-05-21T12:41:11Z</time>
      </trkpt>
      <trkpt lat="46.72901" lon="6.32088">
        <ele>1228</ele>
        <time>2014-05-21T12:41:20Z</time>
      </trkpt>
      <trkpt lat="46.72909" lon="6.32083">
        <ele>1228</ele>
        <time>2014-05-21T12:41:31Z</time>
      </trkpt>
      <trkpt lat="46.72917" lon="6.32077">
        <ele>1230</ele>
        <time>2014-05-21T12:41:41Z</time>
      </trkpt>
      <trkpt lat="46.72927" lon="6.32074">
        <ele>1231</ele>
        <time>2014-05-21T12:41:51Z</time>
      </trkpt>
      <trkpt lat="46.72936" lon="6.32073">
        <ele>1232</ele>
        <time>2014-05-21T12:42:02Z</time>
      </trkpt>
      <trkpt lat="46.72944" lon="6.32079">
        <ele>1231</ele>
        <time>2014-05-21T12:42:14Z</time>
      </trkpt>
      <trkpt lat="46.72952" lon="6.32086">
        <ele>1229</ele>
        <time>2014-05-21T12:42:27Z</time>
      </trkpt>
      <trkpt lat="46.7296" lon="6.32091">
        <ele>1228</ele>
        <time>2014-05-21T12:42:38Z</time>
      </trkpt>
      <trkpt lat="46.72968" lon="6.32098">
        <ele>1226</ele>
        <time>2014-05-21T12:42:52Z</time>
      </trkpt>
      <trkpt lat="46.72974" lon="6.32109">
        <ele>1224</ele>
        <time>2014-05-21T12:43:03Z</time>
      </trkpt>
      <trkpt lat="46.7298" lon="6.3212">
        <ele>1223</ele>
        <time>2014-05-21T12:43:12Z</time>
      </trkpt>
      <trkpt lat="46.72986" lon="6.32131">
        <ele>1222</ele>
        <time>2014-05-21T12:43:21Z</time>
      </trkpt>
      <trkpt lat="46.7299" lon="6.32144">
        <ele>1221</ele>
        <time>2014-05-21T12:43:30Z</time>
      </trkpt>
      <trkpt lat="46.72996" lon="6.32155">
        <ele>1220</ele>
        <time>2014-05-21T12:43:39Z</time>
      </trkpt>
      <trkpt lat="46.73003" lon="6.32162">
        <ele>1217</ele>
        <time>2014-05-21T12:43:49Z</time>
      </trkpt>
      <trkpt lat="46.73012" lon="6.32168">
        <ele>1216</ele>
        <time>2014-05-21T12:44:01Z</time>
      </trkpt>
      <trkpt lat="46.73016" lon="6.32181">
        <ele>1216</ele>
        <time>2014-05-21T12:44:08Z</time>
      </trkpt>
      <trkpt lat="46.73023" lon="6.32192">
        <ele>1215</ele>
        <time>2014-05-21T12:44:16Z</time>
      </trkpt>
      <trkpt lat="46.73032" lon="6.322">
        <ele>1215</ele>
        <time>2014-05-21T12:44:26Z</time>
      </trkpt>
      <trkpt lat="46.73038" lon="6.32211">
        <ele>1214</ele>
        <time>2014-05-21T12:44:34Z</time>
      </trkpt>
      <trkpt lat="46.73046" lon="6.3222">
        <ele>1213</ele>
        <time>2014-05-21T12:44:43Z</time>
      </trkpt>
      <trkpt lat="46.73056" lon="6.32219">
        <ele>1213</ele>
        <time>2014-05-21T12:44:52Z</time>
      </trkpt>
      <trkpt lat="46.73066" lon="6.32216">
        <ele>1213</ele>
        <time>2014-05-21T12:45:00Z</time>
      </trkpt>
      <trkpt lat="46.73074" lon="6.32209">
        <ele>1212</ele>
        <time>2014-05-21T12:45:10Z</time>
      </trkpt>
      <trkpt lat="46.73081" lon="6.32199">
        <ele>1213</ele>
        <time>2014-05-21T12:45:22Z</time>
      </trkpt>
      <trkpt lat="46.7309" lon="6.32197">
        <ele>1215</ele>
        <time>2014-05-21T12:45:30Z</time>
      </trkpt>
      <trkpt lat="46.73099" lon="6.32192">
        <ele>1216</ele>
        <time>2014-05-21T12:45:38Z</time>
      </trkpt>
      <trkpt lat="46.73106" lon="6.32184">
        <ele>1217</ele>
        <time>2014-05-21T12:45:48Z</time>
      </trkpt>
      <trkpt lat="46.73114" lon="6.32176">
        <ele>1216</ele>
        <time>2014-05-21T12:45:58Z</time>
      </trkpt>
      <trkpt lat="46.73121" lon="6.32166">
        <ele>1211</ele>
        <time>2014-05-21T12:46:14Z</time>
      </trkpt>
      <trkpt lat="46.7313" lon="6.32162">
        <ele>1211</ele>
        <time>2014-05-21T12:46:21Z</time>
      </trkpt>
      <trkpt lat="46.73139" lon="6.32157">
        <ele>1209</ele>
        <time>2014-05-21T12:46:36Z</time>
      </trkpt>
      <trkpt lat="46.73147" lon="6.32151">
        <ele>1208</ele>
        <time>2014-05-21T12:46:46Z</time>
      </trkpt>
      <trkpt lat="46.73155" lon="6.32143">
        <ele>1207</ele>
        <time>2014-05-21T12:46:56Z</time>
      </trkpt>
      <trkpt lat="46.73165" lon="6.32137">
        <ele>1207</ele>
        <time>2014-05-21T12:47:02Z</time>
      </trkpt>
      <trkpt lat="46.73172" lon="6.32131">
        <ele>1207</ele>
        <time>2014-05-21T12:47:13Z</time>
      </trkpt>
      <trkpt lat="46.7318" lon="6.3212">
        <ele>1207</ele>
        <time>2014-05-21T12:47:24Z</time>
      </trkpt>
      <trkpt lat="46.73186" lon="6.32108">
        <ele>1208</ele>
        <time>2014-05-21T12:47:31Z</time>
      </trkpt>
      <trkpt lat="46.73194" lon="6.32101">
        <ele>1209</ele>
        <time>2014-05-21T12:47:40Z</time>
      </trkpt>
      <trkpt lat="46.732" lon="6.32091">
        <ele>1207</ele>
        <time>2014-05-21T12:47:52Z</time>
      </trkpt>
      <trkpt lat="46.73208" lon="6.32078">
        <ele>1202</ele>
        <time>2014-05-21T12:48:08Z</time>
      </trkpt>
      <trkpt lat="46.73216" lon="6.32071">
        <ele>1203</ele>
        <time>2014-05-21T12:48:14Z</time>
      </trkpt>
      <trkpt lat="46.73224" lon="6.32065">
        <ele>1204</ele>
        <time>2014-05-21T12:48:23Z</time>
      </trkpt>
      <trkpt lat="46.73234" lon="6.32058">
        <ele>1203</ele>
        <time>2014-05-21T12:48:33Z</time>
      </trkpt>
      <trkpt lat="46.73241" lon="6.32051">
        <ele>1204</ele>
        <time>2014-05-21T12:48:40Z</time>
      </trkpt>
      <trkpt lat="46.73248" lon="6.32042">
        <ele>1203</ele>
        <time>2014-05-21T12:48:50Z</time>
      </trkpt>
      <trkpt lat="46.73255" lon="6.32032">
        <ele>1201</ele>
        <time>2014-05-21T12:49:00Z</time>
      </trkpt>
      <trkpt lat="46.73263" lon="6.32024">
        <ele>1200</ele>
        <time>2014-05-21T12:49:10Z</time>
      </trkpt>
      <trkpt lat="46.73271" lon="6.32018">
        <ele>1200</ele>
        <time>2014-05-21T12:49:18Z</time>
      </trkpt>
      <trkpt lat="46.73278" lon="6.32008">
        <ele>1198</ele>
        <time>2014-05-21T12:49:28Z</time>
      </trkpt>
      <trkpt lat="46.73284" lon="6.31999">
        <ele>1197</ele>
        <time>2014-05-21T12:49:37Z</time>
      </trkpt>
      <trkpt lat="46.73289" lon="6.31986">
        <ele>1196</ele>
        <time>2014-05-21T12:49:46Z</time>
      </trkpt>
      <trkpt lat="46.73293" lon="6.31973">
        <ele>1195</ele>
        <time>2014-05-21T12:49:58Z</time>
      </trkpt>
      <trkpt lat="46.73297" lon="6.31961">
        <ele>1194</ele>
        <time>2014-05-21T12:50:07Z</time>
      </trkpt>
      <trkpt lat="46.73302" lon="6.31949">
        <ele>1194</ele>
        <time>2014-05-21T12:50:15Z</time>
      </trkpt>
      <trkpt lat="46.73308" lon="6.31939">
        <ele>1194</ele>
        <time>2014-05-21T12:50:21Z</time>
      </trkpt>
      <trkpt lat="46.73314" lon="6.31928">
        <ele>1195</ele>
        <time>2014-05-21T12:50:28Z</time>
      </trkpt>
      <trkpt lat="46.73319" lon="6.31917">
        <ele>1195</ele>
        <time>2014-05-21T12:50:40Z</time>
      </trkpt>
      <trkpt lat="46.73318" lon="6.31902">
        <ele>1194</ele>
        <time>2014-05-21T12:50:47Z</time>
      </trkpt>
      <trkpt lat="46.73317" lon="6.31888">
        <ele>1194</ele>
        <time>2014-05-21T12:50:54Z</time>
      </trkpt>
      <trkpt lat="46.73318" lon="6.31875">
        <ele>1193</ele>
        <time>2014-05-21T12:51:01Z</time>
      </trkpt>
      <trkpt lat="46.73316" lon="6.31861">
        <ele>1192</ele>
        <time>2014-05-21T12:51:09Z</time>
      </trkpt>
      <trkpt lat="46.73313" lon="6.31848">
        <ele>1191</ele>
        <time>2014-05-21T12:51:17Z</time>
      </trkpt>
      <trkpt lat="46.73311" lon="6.31834">
        <ele>1192</ele>
        <time>2014-05-21T12:51:24Z</time>
      </trkpt>
      <trkpt lat="46.73309" lon="6.31822">
        <ele>1193</ele>
        <time>2014-05-21T12:51:30Z</time>
      </trkpt>
      <trkpt lat="46.73308" lon="6.31815">
        <ele>1194</ele>
        <time>2014-05-21T12:51:34Z</time>
      </trkpt>
      <trkpt lat="46.73307" lon="6.31809">
        <ele>1195</ele>
        <time>2014-05-21T12:51:38Z</time>
      </trkpt>
      <trkpt lat="46.73303" lon="6.31804">
        <ele>1194</ele>
        <time>2014-05-21T12:51:45Z</time>
      </trkpt>
      <trkpt lat="46.73302" lon="6.31797">
        <ele>1193</ele>
        <time>2014-05-21T12:51:50Z</time>
      </trkpt>
      <trkpt lat="46.733" lon="6.31791">
        <ele>1194</ele>
        <time>2014-05-21T12:51:55Z</time>
      </trkpt>
      <trkpt lat="46.73298" lon="6.31783">
        <ele>1195</ele>
        <time>2014-05-21T12:52:00Z</time>
      </trkpt>
      <trkpt lat="46.73296" lon="6.31776">
        <ele>1196</ele>
        <time>2014-05-21T12:52:05Z</time>
      </trkpt>
      <trkpt lat="46.73294" lon="6.31769">
        <ele>1196</ele>
        <time>2014-05-21T12:52:10Z</time>
      </trkpt>
      <trkpt lat="46.73294" lon="6.31762">
        <ele>1196</ele>
        <time>2014-05-21T12:52:14Z</time>
      </trkpt>
      <trkpt lat="46.73291" lon="6.31756">
        <ele>1196</ele>
        <time>2014-05-21T12:52:19Z</time>
      </trkpt>
      <trkpt lat="46.73288" lon="6.31749">
        <ele>1196</ele>
        <time>2014-05-21T12:52:24Z</time>
      </trkpt>
      <trkpt lat="46.73287" lon="6.31742">
        <ele>1197</ele>
        <time>2014-05-21T12:52:28Z</time>
      </trkpt>
      <trkpt lat="46.73284" lon="6.31735">
        <ele>1197</ele>
        <time>2014-05-21T12:52:32Z</time>
      </trkpt>
      <trkpt lat="46.73283" lon="6.31729">
        <ele>1197</ele>
        <time>2014-05-21T12:52:36Z</time>
      </trkpt>
      <trkpt lat="46.73281" lon="6.31722">
        <ele>1196</ele>
        <time>2014-05-21T12:52:41Z</time>
      </trkpt>
      <trkpt lat="46.73277" lon="6.31717">
        <ele>1196</ele>
        <time>2014-05-21T12:52:46Z</time>
      </trkpt>
      <trkpt lat="46.73276" lon="6.31709">
        <ele>1195</ele>
        <time>2014-05-21T12:52:51Z</time>
      </trkpt>
      <trkpt lat="46.73276" lon="6.31702">
        <ele>1195</ele>
        <time>2014-05-21T12:52:55Z</time>
      </trkpt>
      <trkpt lat="46.73275" lon="6.31695">
        <ele>1194</ele>
        <time>2014-05-21T12:52:59Z</time>
      </trkpt>
      <trkpt lat="46.73273" lon="6.31688">
        <ele>1194</ele>
        <time>2014-05-21T12:53:03Z</time>
      </trkpt>
      <trkpt lat="46.73271" lon="6.3168">
        <ele>1193</ele>
        <time>2014-05-21T12:53:07Z</time>
      </trkpt>
      <trkpt lat="46.73267" lon="6.31667">
        <ele>1188</ele>
        <time>2014-05-21T12:53:19Z</time>
      </trkpt>
      <trkpt lat="46.73267" lon="6.3166">
        <ele>1187</ele>
        <time>2014-05-21T12:53:24Z</time>
      </trkpt>
      <trkpt lat="46.73266" lon="6.31652">
        <ele>1186</ele>
        <time>2014-05-21T12:53:29Z</time>
      </trkpt>
      <trkpt lat="46.73265" lon="6.31644">
        <ele>1184</ele>
        <time>2014-05-21T12:53:33Z</time>
      </trkpt>
      <trkpt lat="46.73264" lon="6.31638">
        <ele>1183</ele>
        <time>2014-05-21T12:53:37Z</time>
      </trkpt>
      <trkpt lat="46.73261" lon="6.31632">
        <ele>1183</ele>
        <time>2014-05-21T12:53:41Z</time>
      </trkpt>
      <trkpt lat="46.73261" lon="6.31625">
        <ele>1183</ele>
        <time>2014-05-21T12:53:45Z</time>
      </trkpt>
      <trkpt lat="46.73262" lon="6.31618">
        <ele>1181</ele>
        <time>2014-05-21T12:53:49Z</time>
      </trkpt>
      <trkpt lat="46.73262" lon="6.31611">
        <ele>1182</ele>
        <time>2014-05-21T12:53:54Z</time>
      </trkpt>
      <trkpt lat="46.73264" lon="6.31605">
        <ele>1183</ele>
        <time>2014-05-21T12:53:58Z</time>
      </trkpt>
      <trkpt lat="46.73266" lon="6.31598">
        <ele>1185</ele>
        <time>2014-05-21T12:54:01Z</time>
      </trkpt>
      <trkpt lat="46.73269" lon="6.31592">
        <ele>1185</ele>
        <time>2014-05-21T12:54:06Z</time>
      </trkpt>
      <trkpt lat="46.73272" lon="6.31587">
        <ele>1184</ele>
        <time>2014-05-21T12:54:11Z</time>
      </trkpt>
      <trkpt lat="46.7328" lon="6.31577">
        <ele>1182</ele>
        <time>2014-05-21T12:54:21Z</time>
      </trkpt>
      <trkpt lat="46.73285" lon="6.31565">
        <ele>1182</ele>
        <time>2014-05-21T12:54:28Z</time>
      </trkpt>
      <trkpt lat="46.73289" lon="6.31553">
        <ele>1181</ele>
        <time>2014-05-21T12:54:35Z</time>
      </trkpt>
      <trkpt lat="46.73296" lon="6.31543">
        <ele>1179</ele>
        <time>2014-05-21T12:54:55Z</time>
      </trkpt>
      <trkpt lat="46.73305" lon="6.31536">
        <ele>1177</ele>
        <time>2014-05-21T12:55:12Z</time>
      </trkpt>
      <trkpt lat="46.73308" lon="6.31524">
        <ele>1177</ele>
        <time>2014-05-21T12:55:22Z</time>
      </trkpt>
      <trkpt lat="46.73307" lon="6.31517">
        <ele>1177</ele>
        <time>2014-05-21T12:55:27Z</time>
      </trkpt>
      <trkpt lat="46.73305" lon="6.3151">
        <ele>1177</ele>
        <time>2014-05-21T12:55:32Z</time>
      </trkpt>
      <trkpt lat="46.73302" lon="6.31503">
        <ele>1176</ele>
        <time>2014-05-21T12:55:37Z</time>
      </trkpt>
      <trkpt lat="46.73302" lon="6.31495">
        <ele>1176</ele>
        <time>2014-05-21T12:55:42Z</time>
      </trkpt>
      <trkpt lat="46.73305" lon="6.31489">
        <ele>1176</ele>
        <time>2014-05-21T12:55:46Z</time>
      </trkpt>
      <trkpt lat="46.73308" lon="6.31483">
        <ele>1176</ele>
        <time>2014-05-21T12:55:50Z</time>
      </trkpt>
      <trkpt lat="46.73313" lon="6.31472">
        <ele>1175</ele>
        <time>2014-05-21T12:55:58Z</time>
      </trkpt>
      <trkpt lat="46.73317" lon="6.31465">
        <ele>1175</ele>
        <time>2014-05-21T12:56:02Z</time>
      </trkpt>
      <trkpt lat="46.7332" lon="6.31459">
        <ele>1176</ele>
        <time>2014-05-21T12:56:06Z</time>
      </trkpt>
      <trkpt lat="46.73324" lon="6.31454">
        <ele>1176</ele>
        <time>2014-05-21T12:56:10Z</time>
      </trkpt>
      <trkpt lat="46.73328" lon="6.3145">
        <ele>1176</ele>
        <time>2014-05-21T12:56:14Z</time>
      </trkpt>
      <trkpt lat="46.73331" lon="6.31446">
        <ele>1175</ele>
        <time>2014-05-21T12:56:19Z</time>
      </trkpt>
      <trkpt lat="46.73336" lon="6.31443">
        <ele>1174</ele>
        <time>2014-05-21T12:56:25Z</time>
      </trkpt>
      <trkpt lat="46.7334" lon="6.31441">
        <ele>1171</ele>
        <time>2014-05-21T12:56:31Z</time>
      </trkpt>
      <trkpt lat="46.73343" lon="6.31437">
        <ele>1169</ele>
        <time>2014-05-21T12:56:40Z</time>
      </trkpt>
      <trkpt lat="46.73347" lon="6.31439">
        <ele>1165</ele>
        <time>2014-05-21T12:56:46Z</time>
      </trkpt>
      <trkpt lat="46.73357" lon="6.31439">
        <ele>1163</ele>
        <time>2014-05-21T12:56:57Z</time>
      </trkpt>
      <trkpt lat="46.73364" lon="6.31447">
        <ele>1163</ele>
        <time>2014-05-21T12:57:08Z</time>
      </trkpt>
      <trkpt lat="46.73374" lon="6.31446">
        <ele>1162</ele>
        <time>2014-05-21T12:57:19Z</time>
      </trkpt>
      <trkpt lat="46.7338" lon="6.31435">
        <ele>1162</ele>
        <time>2014-05-21T12:57:27Z</time>
      </trkpt>
      <trkpt lat="46.73387" lon="6.31425">
        <ele>1161</ele>
        <time>2014-05-21T12:57:38Z</time>
      </trkpt>
      <trkpt lat="46.73396" lon="6.31419">
        <ele>1161</ele>
        <time>2014-05-21T12:57:45Z</time>
      </trkpt>
      <trkpt lat="46.73405" lon="6.31415">
        <ele>1162</ele>
        <time>2014-05-21T12:57:52Z</time>
      </trkpt>
      <trkpt lat="46.73411" lon="6.31404">
        <ele>1161</ele>
        <time>2014-05-21T12:58:04Z</time>
      </trkpt>
      <trkpt lat="46.73418" lon="6.31394">
        <ele>1159</ele>
        <time>2014-05-21T12:58:13Z</time>
      </trkpt>
      <trkpt lat="46.73424" lon="6.31383">
        <ele>1158</ele>
        <time>2014-05-21T12:58:24Z</time>
      </trkpt>
      <trkpt lat="46.7343" lon="6.31372">
        <ele>1154</ele>
        <time>2014-05-21T12:58:38Z</time>
      </trkpt>
      <trkpt lat="46.73438" lon="6.31365">
        <ele>1153</ele>
        <time>2014-05-21T12:58:46Z</time>
      </trkpt>
      <trkpt lat="46.73447" lon="6.3136">
        <ele>1150</ele>
        <time>2014-05-21T12:58:58Z</time>
      </trkpt>
      <trkpt lat="46.73456" lon="6.31359">
        <ele>1149</ele>
        <time>2014-05-21T12:59:07Z</time>
      </trkpt>
      <trkpt lat="46.73466" lon="6.31355">
        <ele>1149</ele>
        <time>2014-05-21T12:59:13Z</time>
      </trkpt>
      <trkpt lat="46.73475" lon="6.31357">
        <ele>1148</ele>
        <time>2014-05-21T12:59:23Z</time>
      </trkpt>
      <trkpt lat="46.73483" lon="6.31364">
        <ele>1145</ele>
        <time>2014-05-21T12:59:39Z</time>
      </trkpt>
      <trkpt lat="46.73493" lon="6.31367">
        <ele>1143</ele>
        <time>2014-05-21T12:59:46Z</time>
      </trkpt>
      <trkpt lat="46.73503" lon="6.31362">
        <ele>1143</ele>
        <time>2014-05-21T12:59:52Z</time>
      </trkpt>
      <trkpt lat="46.73511" lon="6.31354">
        <ele>1143</ele>
        <time>2014-05-21T12:59:59Z</time>
      </trkpt>
      <trkpt lat="46.7351" lon="6.3134">
        <ele>1141</ele>
        <time>2014-05-21T13:00:10Z</time>
      </trkpt>
      <trkpt lat="46.73518" lon="6.31331">
        <ele>1139</ele>
        <time>2014-05-21T13:00:24Z</time>
      </trkpt>
      <trkpt lat="46.73519" lon="6.31321">
        <ele>1136</ele>
        <time>2014-05-21T13:00:39Z</time>
      </trkpt>
      <trkpt lat="46.73526" lon="6.31312">
        <ele>1133</ele>
        <time>2014-05-21T13:00:48Z</time>
      </trkpt>
      <trkpt lat="46.73531" lon="6.31299">
        <ele>1130</ele>
        <time>2014-05-21T13:00:56Z</time>
      </trkpt>
      <trkpt lat="46.73537" lon="6.31287">
        <ele>1129</ele>
        <time>2014-05-21T13:01:06Z</time>
      </trkpt>
      <trkpt lat="46.73543" lon="6.31277">
        <ele>1129</ele>
        <time>2014-05-21T13:01:15Z</time>
      </trkpt>
      <trkpt lat="46.73552" lon="6.31272">
        <ele>1127</ele>
        <time>2014-05-21T13:01:26Z</time>
      </trkpt>
      <trkpt lat="46.73559" lon="6.31264">
        <ele>1126</ele>
        <time>2014-05-21T13:01:35Z</time>
      </trkpt>
      <trkpt lat="46.73568" lon="6.31259">
        <ele>1121</ele>
        <time>2014-05-21T13:01:44Z</time>
      </trkpt>
      <trkpt lat="46.73571" lon="6.31247">
        <ele>1121</ele>
        <time>2014-05-21T13:01:53Z</time>
      </trkpt>
      <trkpt lat="46.7358" lon="6.3124">
        <ele>1119</ele>
        <time>2014-05-21T13:02:03Z</time>
      </trkpt>
      <trkpt lat="46.73588" lon="6.31233">
        <ele>1118</ele>
        <time>2014-05-21T13:02:16Z</time>
      </trkpt>
      <trkpt lat="46.73596" lon="6.31226">
        <ele>1119</ele>
        <time>2014-05-21T13:02:25Z</time>
      </trkpt>
      <trkpt lat="46.73603" lon="6.31208">
        <ele>1117</ele>
        <time>2014-05-21T13:02:50Z</time>
      </trkpt>
      <trkpt lat="46.73608" lon="6.31197">
        <ele>1114</ele>
        <time>2014-05-21T13:02:59Z</time>
      </trkpt>
      <trkpt lat="46.73616" lon="6.31188">
        <ele>1113</ele>
        <time>2014-05-21T13:03:10Z</time>
      </trkpt>
      <trkpt lat="46.73623" lon="6.31178">
        <ele>1111</ele>
        <time>2014-05-21T13:03:20Z</time>
      </trkpt>
      <trkpt lat="46.73632" lon="6.31175">
        <ele>1110</ele>
        <time>2014-05-21T13:03:31Z</time>
      </trkpt>
      <trkpt lat="46.73641" lon="6.31169">
        <ele>1108</ele>
        <time>2014-05-21T13:03:41Z</time>
      </trkpt>
      <trkpt lat="46.73651" lon="6.31167">
        <ele>1108</ele>
        <time>2014-05-21T13:03:47Z</time>
      </trkpt>
      <trkpt lat="46.73661" lon="6.31168">
        <ele>1107</ele>
        <time>2014-05-21T13:03:56Z</time>
      </trkpt>
      <trkpt lat="46.7367" lon="6.31167">
        <ele>1106</ele>
        <time>2014-05-21T13:04:07Z</time>
      </trkpt>
      <trkpt lat="46.7367" lon="6.31157">
        <ele>1103</ele>
        <time>2014-05-21T13:04:23Z</time>
      </trkpt>
      <trkpt lat="46.73676" lon="6.31161">
        <ele>1108</ele>
        <time>2014-05-21T13:05:02Z</time>
      </trkpt>
      <trkpt lat="46.73685" lon="6.31166">
        <ele>1107</ele>
        <time>2014-05-21T13:05:10Z</time>
      </trkpt>
      <trkpt lat="46.73692" lon="6.31167">
        <ele>1105</ele>
        <time>2014-05-21T13:05:25Z</time>
      </trkpt>
      <trkpt lat="46.73685" lon="6.31172">
        <ele>1105</ele>
        <time>2014-05-21T13:09:21Z</time>
      </trkpt>
      <trkpt lat="46.73691" lon="6.31177">
        <ele>1104</ele>
        <time>2014-05-21T13:18:51Z</time>
      </trkpt>
      <trkpt lat="46.73694" lon="6.31189">
        <ele>1104</ele>
        <time>2014-05-21T13:19:06Z</time>
      </trkpt>
      <trkpt lat="46.737" lon="6.312">
        <ele>1104</ele>
        <time>2014-05-21T13:19:16Z</time>
      </trkpt>
      <trkpt lat="46.73702" lon="6.31213">
        <ele>1104</ele>
        <time>2014-05-21T13:19:28Z</time>
      </trkpt>
      <trkpt lat="46.7371" lon="6.3122">
        <ele>1104</ele>
        <time>2014-05-21T13:19:37Z</time>
      </trkpt>
      <trkpt lat="46.73714" lon="6.31232">
        <ele>1103</ele>
        <time>2014-05-21T13:19:51Z</time>
      </trkpt>
      <trkpt lat="46.73719" lon="6.31244">
        <ele>1104</ele>
        <time>2014-05-21T13:20:00Z</time>
      </trkpt>
      <trkpt lat="46.73726" lon="6.31252">
        <ele>1103</ele>
        <time>2014-05-21T13:20:08Z</time>
      </trkpt>
      <trkpt lat="46.7373" lon="6.31265">
        <ele>1101</ele>
        <time>2014-05-21T13:20:19Z</time>
      </trkpt>
      <trkpt lat="46.73738" lon="6.31273">
        <ele>1101</ele>
        <time>2014-05-21T13:20:33Z</time>
      </trkpt>
      <trkpt lat="46.73745" lon="6.31284">
        <ele>1101</ele>
        <time>2014-05-21T13:20:43Z</time>
      </trkpt>
      <trkpt lat="46.73753" lon="6.31291">
        <ele>1101</ele>
        <time>2014-05-21T13:20:52Z</time>
      </trkpt>
      <trkpt lat="46.73759" lon="6.31304">
        <ele>1102</ele>
        <time>2014-05-21T13:21:00Z</time>
      </trkpt>
      <trkpt lat="46.73758" lon="6.31318">
        <ele>1103</ele>
        <time>2014-05-21T13:21:06Z</time>
      </trkpt>
      <trkpt lat="46.73763" lon="6.31328">
        <ele>1104</ele>
        <time>2014-05-21T13:21:25Z</time>
      </trkpt>
      <trkpt lat="46.73773" lon="6.31332">
        <ele>1103</ele>
        <time>2014-05-21T13:21:34Z</time>
      </trkpt>
      <trkpt lat="46.73781" lon="6.31341">
        <ele>1102</ele>
        <time>2014-05-21T13:21:44Z</time>
      </trkpt>
      <trkpt lat="46.73788" lon="6.3135">
        <ele>1103</ele>
        <time>2014-05-21T13:21:51Z</time>
      </trkpt>
      <trkpt lat="46.73795" lon="6.31359">
        <ele>1104</ele>
        <time>2014-05-21T13:22:03Z</time>
      </trkpt>
      <trkpt lat="46.73799" lon="6.31372">
        <ele>1104</ele>
        <time>2014-05-21T13:22:15Z</time>
      </trkpt>
      <trkpt lat="46.73798" lon="6.31385">
        <ele>1102</ele>
        <time>2014-05-21T13:22:23Z</time>
      </trkpt>
      <trkpt lat="46.73801" lon="6.31398">
        <ele>1101</ele>
        <time>2014-05-21T13:22:29Z</time>
      </trkpt>
      <trkpt lat="46.73809" lon="6.31404">
        <ele>1100</ele>
        <time>2014-05-21T13:22:42Z</time>
      </trkpt>
      <trkpt lat="46.73813" lon="6.31417">
        <ele>1100</ele>
        <time>2014-05-21T13:22:52Z</time>
      </trkpt>
      <trkpt lat="46.73823" lon="6.31416">
        <ele>1100</ele>
        <time>2014-05-21T13:23:00Z</time>
      </trkpt>
      <trkpt lat="46.73831" lon="6.31426">
        <ele>1099</ele>
        <time>2014-05-21T13:23:12Z</time>
      </trkpt>
      <trkpt lat="46.73837" lon="6.31436">
        <ele>1097</ele>
        <time>2014-05-21T13:23:24Z</time>
      </trkpt>
      <trkpt lat="46.73844" lon="6.31444">
        <ele>1098</ele>
        <time>2014-05-21T13:23:30Z</time>
      </trkpt>
      <trkpt lat="46.73854" lon="6.31449">
        <ele>1102</ele>
        <time>2014-05-21T13:23:36Z</time>
      </trkpt>
      <trkpt lat="46.73861" lon="6.31457">
        <ele>1106</ele>
        <time>2014-05-21T13:23:43Z</time>
      </trkpt>
      <trkpt lat="46.7387" lon="6.31465">
        <ele>1108</ele>
        <time>2014-05-21T13:23:52Z</time>
      </trkpt>
      <trkpt lat="46.73879" lon="6.31471">
        <ele>1111</ele>
        <time>2014-05-21T13:24:00Z</time>
      </trkpt>
      <trkpt lat="46.73887" lon="6.3148">
        <ele>1113</ele>
        <time>2014-05-21T13:24:06Z</time>
      </trkpt>
      <trkpt lat="46.73896" lon="6.31483">
        <ele>1115</ele>
        <time>2014-05-21T13:24:11Z</time>
      </trkpt>
      <trkpt lat="46.739" lon="6.31496">
        <ele>1116</ele>
        <time>2014-05-21T13:24:25Z</time>
      </trkpt>
      <trkpt lat="46.73898" lon="6.3151">
        <ele>1115</ele>
        <time>2014-05-21T13:24:33Z</time>
      </trkpt>
      <trkpt lat="46.73907" lon="6.31517">
        <ele>1113</ele>
        <time>2014-05-21T13:24:43Z</time>
      </trkpt>
      <trkpt lat="46.73913" lon="6.31528">
        <ele>1110</ele>
        <time>2014-05-21T13:24:52Z</time>
      </trkpt>
      <trkpt lat="46.73919" lon="6.31538">
        <ele>1106</ele>
        <time>2014-05-21T13:25:02Z</time>
      </trkpt>
      <trkpt lat="46.73927" lon="6.31543">
        <ele>1105</ele>
        <time>2014-05-21T13:25:11Z</time>
      </trkpt>
      <trkpt lat="46.73932" lon="6.31546">
        <ele>1104</ele>
        <time>2014-05-21T13:25:23Z</time>
      </trkpt>
      <trkpt lat="46.73932" lon="6.31554">
        <ele>1100</ele>
        <time>2014-05-21T13:25:36Z</time>
      </trkpt>
      <trkpt lat="46.73942" lon="6.31554">
        <ele>1098</ele>
        <time>2014-05-21T13:25:46Z</time>
      </trkpt>
      <trkpt lat="46.7395" lon="6.31561">
        <ele>1097</ele>
        <time>2014-05-21T13:25:51Z</time>
      </trkpt>
      <trkpt lat="46.7396" lon="6.31566">
        <ele>1097</ele>
        <time>2014-05-21T13:25:56Z</time>
      </trkpt>
      <trkpt lat="46.73968" lon="6.31574">
        <ele>1099</ele>
        <time>2014-05-21T13:26:03Z</time>
      </trkpt>
      <trkpt lat="46.73975" lon="6.31583">
        <ele>1101</ele>
        <time>2014-05-21T13:26:12Z</time>
      </trkpt>
      <trkpt lat="46.73984" lon="6.3159">
        <ele>1105</ele>
        <time>2014-05-21T13:26:20Z</time>
      </trkpt>
      <trkpt lat="46.7399" lon="6.31601">
        <ele>1107</ele>
        <time>2014-05-21T13:26:31Z</time>
      </trkpt>
      <trkpt lat="46.73993" lon="6.31614">
        <ele>1109</ele>
        <time>2014-05-21T13:26:42Z</time>
      </trkpt>
      <trkpt lat="46.73999" lon="6.31625">
        <ele>1110</ele>
        <time>2014-05-21T13:26:53Z</time>
      </trkpt>
      <trkpt lat="46.74" lon="6.31639">
        <ele>1110</ele>
        <time>2014-05-21T13:27:01Z</time>
      </trkpt>
      <trkpt lat="46.74003" lon="6.31652">
        <ele>1109</ele>
        <time>2014-05-21T13:27:10Z</time>
      </trkpt>
      <trkpt lat="46.74007" lon="6.31665">
        <ele>1111</ele>
        <time>2014-05-21T13:27:21Z</time>
      </trkpt>
      <trkpt lat="46.74011" lon="6.31677">
        <ele>1112</ele>
        <time>2014-05-21T13:27:30Z</time>
      </trkpt>
      <trkpt lat="46.74009" lon="6.31691">
        <ele>1113</ele>
        <time>2014-05-21T13:27:38Z</time>
      </trkpt>
      <trkpt lat="46.74017" lon="6.31696">
        <ele>1114</ele>
        <time>2014-05-21T13:27:52Z</time>
      </trkpt>
      <trkpt lat="46.74015" lon="6.31711">
        <ele>1116</ele>
        <time>2014-05-21T13:28:01Z</time>
      </trkpt>
      <trkpt lat="46.74008" lon="6.31722">
        <ele>1116</ele>
        <time>2014-05-21T13:28:06Z</time>
      </trkpt>
      <trkpt lat="46.7401" lon="6.31735">
        <ele>1117</ele>
        <time>2014-05-21T13:28:14Z</time>
      </trkpt>
      <trkpt lat="46.74015" lon="6.31746">
        <ele>1118</ele>
        <time>2014-05-21T13:28:22Z</time>
      </trkpt>
      <trkpt lat="46.74019" lon="6.31759">
        <ele>1119</ele>
        <time>2014-05-21T13:28:32Z</time>
      </trkpt>
      <trkpt lat="46.74016" lon="6.31773">
        <ele>1119</ele>
        <time>2014-05-21T13:28:40Z</time>
      </trkpt>
      <trkpt lat="46.74016" lon="6.31787">
        <ele>1120</ele>
        <time>2014-05-21T13:28:48Z</time>
      </trkpt>
      <trkpt lat="46.74016" lon="6.318">
        <ele>1121</ele>
        <time>2014-05-21T13:28:56Z</time>
      </trkpt>
      <trkpt lat="46.74016" lon="6.31815">
        <ele>1123</ele>
        <time>2014-05-21T13:29:07Z</time>
      </trkpt>
      <trkpt lat="46.74016" lon="6.31828">
        <ele>1124</ele>
        <time>2014-05-21T13:29:18Z</time>
      </trkpt>
      <trkpt lat="46.74011" lon="6.31839">
        <ele>1127</ele>
        <time>2014-05-21T13:29:35Z</time>
      </trkpt>
      <trkpt lat="46.74007" lon="6.31851">
        <ele>1128</ele>
        <time>2014-05-21T13:29:44Z</time>
      </trkpt>
      <trkpt lat="46.74004" lon="6.31864">
        <ele>1129</ele>
        <time>2014-05-21T13:29:54Z</time>
      </trkpt>
      <trkpt lat="46.73999" lon="6.31876">
        <ele>1129</ele>
        <time>2014-05-21T13:30:05Z</time>
      </trkpt>
      <trkpt lat="46.73992" lon="6.3189">
        <ele>1128</ele>
        <time>2014-05-21T13:30:24Z</time>
      </trkpt>
      <trkpt lat="46.73985" lon="6.31899">
        <ele>1128</ele>
        <time>2014-05-21T13:30:37Z</time>
      </trkpt>
      <trkpt lat="46.73979" lon="6.31909">
        <ele>1127</ele>
        <time>2014-05-21T13:30:47Z</time>
      </trkpt>
      <trkpt lat="46.73974" lon="6.3192">
        <ele>1128</ele>
        <time>2014-05-21T13:30:58Z</time>
      </trkpt>
      <trkpt lat="46.7397" lon="6.31932">
        <ele>1129</ele>
        <time>2014-05-21T13:31:09Z</time>
      </trkpt>
      <trkpt lat="46.73968" lon="6.31946">
        <ele>1130</ele>
        <time>2014-05-21T13:31:21Z</time>
      </trkpt>
      <trkpt lat="46.73963" lon="6.31958">
        <ele>1130</ele>
        <time>2014-05-21T13:31:32Z</time>
      </trkpt>
      <trkpt lat="46.7396" lon="6.31971">
        <ele>1130</ele>
        <time>2014-05-21T13:31:40Z</time>
      </trkpt>
      <trkpt lat="46.73955" lon="6.31982">
        <ele>1132</ele>
        <time>2014-05-21T13:31:52Z</time>
      </trkpt>
      <trkpt lat="46.73951" lon="6.31994">
        <ele>1132</ele>
        <time>2014-05-21T13:32:03Z</time>
      </trkpt>
      <trkpt lat="46.7395" lon="6.32007">
        <ele>1133</ele>
        <time>2014-05-21T13:32:10Z</time>
      </trkpt>
      <trkpt lat="46.73947" lon="6.3202">
        <ele>1134</ele>
        <time>2014-05-21T13:32:22Z</time>
      </trkpt>
      <trkpt lat="46.73941" lon="6.3203">
        <ele>1136</ele>
        <time>2014-05-21T13:32:33Z</time>
      </trkpt>
      <trkpt lat="46.73937" lon="6.32043">
        <ele>1137</ele>
        <time>2014-05-21T13:32:43Z</time>
      </trkpt>
      <trkpt lat="46.73934" lon="6.32055">
        <ele>1137</ele>
        <time>2014-05-21T13:32:54Z</time>
      </trkpt>
      <trkpt lat="46.73927" lon="6.32065">
        <ele>1139</ele>
        <time>2014-05-21T13:33:05Z</time>
      </trkpt>
      <trkpt lat="46.73925" lon="6.32078">
        <ele>1141</ele>
        <time>2014-05-21T13:33:18Z</time>
      </trkpt>
      <trkpt lat="46.73927" lon="6.32092">
        <ele>1140</ele>
        <time>2014-05-21T13:33:27Z</time>
      </trkpt>
      <trkpt lat="46.73922" lon="6.32104">
        <ele>1139</ele>
        <time>2014-05-21T13:33:37Z</time>
      </trkpt>
      <trkpt lat="46.73918" lon="6.32116">
        <ele>1140</ele>
        <time>2014-05-21T13:33:48Z</time>
      </trkpt>
      <trkpt lat="46.73911" lon="6.32128">
        <ele>1142</ele>
        <time>2014-05-21T13:33:59Z</time>
      </trkpt>
      <trkpt lat="46.73905" lon="6.32139">
        <ele>1143</ele>
        <time>2014-05-21T13:34:04Z</time>
      </trkpt>
      <trkpt lat="46.73906" lon="6.32153">
        <ele>1145</ele>
        <time>2014-05-21T13:34:10Z</time>
      </trkpt>
      <trkpt lat="46.73904" lon="6.32167">
        <ele>1150</ele>
        <time>2014-05-21T13:34:25Z</time>
      </trkpt>
      <trkpt lat="46.73899" lon="6.32179">
        <ele>1152</ele>
        <time>2014-05-21T13:34:35Z</time>
      </trkpt>
      <trkpt lat="46.73894" lon="6.3219">
        <ele>1151</ele>
        <time>2014-05-21T13:34:55Z</time>
      </trkpt>
      <trkpt lat="46.73893" lon="6.32208">
        <ele>1151</ele>
        <time>2014-05-21T13:35:08Z</time>
      </trkpt>
      <trkpt lat="46.73887" lon="6.3222">
        <ele>1151</ele>
        <time>2014-05-21T13:35:13Z</time>
      </trkpt>
      <trkpt lat="46.73886" lon="6.32234">
        <ele>1152</ele>
        <time>2014-05-21T13:35:21Z</time>
      </trkpt>
      <trkpt lat="46.73886" lon="6.32248">
        <ele>1153</ele>
        <time>2014-05-21T13:35:32Z</time>
      </trkpt>
      <trkpt lat="46.73884" lon="6.32262">
        <ele>1156</ele>
        <time>2014-05-21T13:35:39Z</time>
      </trkpt>
      <trkpt lat="46.73883" lon="6.32275">
        <ele>1158</ele>
        <time>2014-05-21T13:35:47Z</time>
      </trkpt>
      <trkpt lat="46.73877" lon="6.32283">
        <ele>1158</ele>
        <time>2014-05-21T13:36:06Z</time>
      </trkpt>
      <trkpt lat="46.7387" lon="6.32296">
        <ele>1160</ele>
        <time>2014-05-21T13:36:24Z</time>
      </trkpt>
      <trkpt lat="46.73865" lon="6.32307">
        <ele>1161</ele>
        <time>2014-05-21T13:36:36Z</time>
      </trkpt>
      <trkpt lat="46.73857" lon="6.32314">
        <ele>1162</ele>
        <time>2014-05-21T13:36:46Z</time>
      </trkpt>
      <trkpt lat="46.73849" lon="6.32323">
        <ele>1162</ele>
        <time>2014-05-21T13:36:58Z</time>
      </trkpt>
      <trkpt lat="46.73842" lon="6.32332">
        <ele>1163</ele>
        <time>2014-05-21T13:37:13Z</time>
      </trkpt>
      <trkpt lat="46.73835" lon="6.32341">
        <ele>1165</ele>
        <time>2014-05-21T13:37:25Z</time>
      </trkpt>
      <trkpt lat="46.73828" lon="6.3235">
        <ele>1170</ele>
        <time>2014-05-21T13:37:39Z</time>
      </trkpt>
      <trkpt lat="46.73823" lon="6.32355">
        <ele>1170</ele>
        <time>2014-05-21T13:37:53Z</time>
      </trkpt>
      <trkpt lat="46.73818" lon="6.32362">
        <ele>1171</ele>
        <time>2014-05-21T13:38:07Z</time>
      </trkpt>
      <trkpt lat="46.73814" lon="6.32365">
        <ele>1171</ele>
        <time>2014-05-21T13:38:15Z</time>
      </trkpt>
      <trkpt lat="46.7381" lon="6.32369">
        <ele>1172</ele>
        <time>2014-05-21T13:38:19Z</time>
      </trkpt>
      <trkpt lat="46.73806" lon="6.32374">
        <ele>1173</ele>
        <time>2014-05-21T13:38:23Z</time>
      </trkpt>
      <trkpt lat="46.73803" lon="6.32379">
        <ele>1174</ele>
        <time>2014-05-21T13:38:27Z</time>
      </trkpt>
      <trkpt lat="46.73802" lon="6.32386">
        <ele>1175</ele>
        <time>2014-05-21T13:38:32Z</time>
      </trkpt>
      <trkpt lat="46.73799" lon="6.32392">
        <ele>1176</ele>
        <time>2014-05-21T13:38:37Z</time>
      </trkpt>
      <trkpt lat="46.73796" lon="6.32397">
        <ele>1176</ele>
        <time>2014-05-21T13:38:41Z</time>
      </trkpt>
      <trkpt lat="46.73794" lon="6.32404">
        <ele>1177</ele>
        <time>2014-05-21T13:38:45Z</time>
      </trkpt>
      <trkpt lat="46.73793" lon="6.32412">
        <ele>1178</ele>
        <time>2014-05-21T13:38:50Z</time>
      </trkpt>
      <trkpt lat="46.7379" lon="6.32418">
        <ele>1177</ele>
        <time>2014-05-21T13:38:54Z</time>
      </trkpt>
      <trkpt lat="46.73789" lon="6.32424">
        <ele>1177</ele>
        <time>2014-05-21T13:38:57Z</time>
      </trkpt>
      <trkpt lat="46.73788" lon="6.32431">
        <ele>1178</ele>
        <time>2014-05-21T13:39:01Z</time>
      </trkpt>
      <trkpt lat="46.73787" lon="6.32438">
        <ele>1177</ele>
        <time>2014-05-21T13:39:06Z</time>
      </trkpt>
      <trkpt lat="46.73787" lon="6.32446">
        <ele>1178</ele>
        <time>2014-05-21T13:39:11Z</time>
      </trkpt>
      <trkpt lat="46.73786" lon="6.32453">
        <ele>1179</ele>
        <time>2014-05-21T13:39:16Z</time>
      </trkpt>
      <trkpt lat="46.73785" lon="6.3246">
        <ele>1180</ele>
        <time>2014-05-21T13:39:21Z</time>
      </trkpt>
      <trkpt lat="46.73785" lon="6.32467">
        <ele>1181</ele>
        <time>2014-05-21T13:39:26Z</time>
      </trkpt>
      <trkpt lat="46.73784" lon="6.32473">
        <ele>1182</ele>
        <time>2014-05-21T13:39:31Z</time>
      </trkpt>
      <trkpt lat="46.73782" lon="6.3248">
        <ele>1183</ele>
        <time>2014-05-21T13:39:37Z</time>
      </trkpt>
      <trkpt lat="46.73782" lon="6.32487">
        <ele>1184</ele>
        <time>2014-05-21T13:39:43Z</time>
      </trkpt>
      <trkpt lat="46.73781" lon="6.32494">
        <ele>1184</ele>
        <time>2014-05-21T13:39:49Z</time>
      </trkpt>
      <trkpt lat="46.7378" lon="6.32501">
        <ele>1184</ele>
        <time>2014-05-21T13:39:54Z</time>
      </trkpt>
      <trkpt lat="46.73778" lon="6.32507">
        <ele>1184</ele>
        <time>2014-05-21T13:40:00Z</time>
      </trkpt>
      <trkpt lat="46.73777" lon="6.32514">
        <ele>1184</ele>
        <time>2014-05-21T13:40:05Z</time>
      </trkpt>
      <trkpt lat="46.73776" lon="6.32521">
        <ele>1184</ele>
        <time>2014-05-21T13:40:10Z</time>
      </trkpt>
      <trkpt lat="46.73774" lon="6.32528">
        <ele>1184</ele>
        <time>2014-05-21T13:40:15Z</time>
      </trkpt>
      <trkpt lat="46.73773" lon="6.32536">
        <ele>1184</ele>
        <time>2014-05-21T13:40:21Z</time>
      </trkpt>
      <trkpt lat="46.73772" lon="6.32543">
        <ele>1184</ele>
        <time>2014-05-21T13:40:27Z</time>
      </trkpt>
      <trkpt lat="46.7377" lon="6.32549">
        <ele>1184</ele>
        <time>2014-05-21T13:40:32Z</time>
      </trkpt>
      <trkpt lat="46.73767" lon="6.32553">
        <ele>1186</ele>
        <time>2014-05-21T13:40:37Z</time>
      </trkpt>
      <trkpt lat="46.73766" lon="6.3256">
        <ele>1186</ele>
        <time>2014-05-21T13:40:42Z</time>
      </trkpt>
      <trkpt lat="46.73766" lon="6.32568">
        <ele>1187</ele>
        <time>2014-05-21T13:40:48Z</time>
      </trkpt>
      <trkpt lat="46.73766" lon="6.32575">
        <ele>1187</ele>
        <time>2014-05-21T13:40:54Z</time>
      </trkpt>
      <trkpt lat="46.73763" lon="6.32587">
        <ele>1188</ele>
        <time>2014-05-21T13:41:20Z</time>
      </trkpt>
      <trkpt lat="46.73759" lon="6.326">
        <ele>1191</ele>
        <time>2014-05-21T13:41:27Z</time>
      </trkpt>
      <trkpt lat="46.73755" lon="6.32612">
        <ele>1193</ele>
        <time>2014-05-21T13:41:37Z</time>
      </trkpt>
      <trkpt lat="46.7375" lon="6.32625">
        <ele>1195</ele>
        <time>2014-05-21T13:41:47Z</time>
      </trkpt>
      <trkpt lat="46.73746" lon="6.32637">
        <ele>1196</ele>
        <time>2014-05-21T13:41:58Z</time>
      </trkpt>
      <trkpt lat="46.73743" lon="6.3265">
        <ele>1196</ele>
        <time>2014-05-21T13:42:09Z</time>
      </trkpt>
      <trkpt lat="46.7374" lon="6.32662">
        <ele>1196</ele>
        <time>2014-05-21T13:42:23Z</time>
      </trkpt>
      <trkpt lat="46.73735" lon="6.32675">
        <ele>1196</ele>
        <time>2014-05-21T13:42:33Z</time>
      </trkpt>
      <trkpt lat="46.73732" lon="6.32688">
        <ele>1195</ele>
        <time>2014-05-21T13:42:49Z</time>
      </trkpt>
      <trkpt lat="46.73729" lon="6.32701">
        <ele>1196</ele>
        <time>2014-05-21T13:43:03Z</time>
      </trkpt>
      <trkpt lat="46.73726" lon="6.32714">
        <ele>1198</ele>
        <time>2014-05-21T13:43:13Z</time>
      </trkpt>
      <trkpt lat="46.73725" lon="6.32728">
        <ele>1199</ele>
        <time>2014-05-21T13:43:27Z</time>
      </trkpt>
      <trkpt lat="46.7372" lon="6.3274">
        <ele>1202</ele>
        <time>2014-05-21T13:43:50Z</time>
      </trkpt>
      <trkpt lat="46.73718" lon="6.32755">
        <ele>1204</ele>
        <time>2014-05-21T13:44:35Z</time>
      </trkpt>
      <trkpt lat="46.73717" lon="6.32769">
        <ele>1203</ele>
        <time>2014-05-21T13:44:46Z</time>
      </trkpt>
      <trkpt lat="46.73716" lon="6.32779">
        <ele>1204</ele>
        <time>2014-05-21T13:45:03Z</time>
      </trkpt>
      <trkpt lat="46.73713" lon="6.32787">
        <ele>1205</ele>
        <time>2014-05-21T13:45:20Z</time>
      </trkpt>
      <trkpt lat="46.73711" lon="6.32798">
        <ele>1204</ele>
        <time>2014-05-21T13:45:46Z</time>
      </trkpt>
      <trkpt lat="46.73712" lon="6.32812">
        <ele>1203</ele>
        <time>2014-05-21T13:45:57Z</time>
      </trkpt>
      <trkpt lat="46.73711" lon="6.32826">
        <ele>1201</ele>
        <time>2014-05-21T13:46:13Z</time>
      </trkpt>
      <trkpt lat="46.73708" lon="6.3284">
        <ele>1200</ele>
        <time>2014-05-21T13:46:21Z</time>
      </trkpt>
      <trkpt lat="46.73706" lon="6.32854">
        <ele>1199</ele>
        <time>2014-05-21T13:46:27Z</time>
      </trkpt>
      <trkpt lat="46.73706" lon="6.32868">
        <ele>1199</ele>
        <time>2014-05-21T13:46:35Z</time>
      </trkpt>
      <trkpt lat="46.73704" lon="6.32882">
        <ele>1201</ele>
        <time>2014-05-21T13:46:45Z</time>
      </trkpt>
      <trkpt lat="46.73702" lon="6.32896">
        <ele>1203</ele>
        <time>2014-05-21T13:46:52Z</time>
      </trkpt>
      <trkpt lat="46.737" lon="6.3291">
        <ele>1205</ele>
        <time>2014-05-21T13:46:58Z</time>
      </trkpt>
      <trkpt lat="46.73697" lon="6.32924">
        <ele>1206</ele>
        <time>2014-05-21T13:47:04Z</time>
      </trkpt>
      <trkpt lat="46.73695" lon="6.32938">
        <ele>1206</ele>
        <time>2014-05-21T13:47:11Z</time>
      </trkpt>
      <trkpt lat="46.73691" lon="6.32951">
        <ele>1206</ele>
        <time>2014-05-21T13:47:21Z</time>
      </trkpt>
      <trkpt lat="46.73688" lon="6.32965">
        <ele>1206</ele>
        <time>2014-05-21T13:47:29Z</time>
      </trkpt>
      <trkpt lat="46.73685" lon="6.32977">
        <ele>1207</ele>
        <time>2014-05-21T13:47:36Z</time>
      </trkpt>
      <trkpt lat="46.73682" lon="6.32991">
        <ele>1207</ele>
        <time>2014-05-21T13:47:42Z</time>
      </trkpt>
      <trkpt lat="46.73679" lon="6.33003">
        <ele>1207</ele>
        <time>2014-05-21T13:47:48Z</time>
      </trkpt>
      <trkpt lat="46.7368" lon="6.33018">
        <ele>1206</ele>
        <time>2014-05-21T13:47:57Z</time>
      </trkpt>
      <trkpt lat="46.7368" lon="6.33031">
        <ele>1206</ele>
        <time>2014-05-21T13:48:04Z</time>
      </trkpt>
      <trkpt lat="46.73681" lon="6.33045">
        <ele>1206</ele>
        <time>2014-05-21T13:48:13Z</time>
      </trkpt>
      <trkpt lat="46.73681" lon="6.3306">
        <ele>1207</ele>
        <time>2014-05-21T13:48:21Z</time>
      </trkpt>
      <trkpt lat="46.73682" lon="6.33073">
        <ele>1210</ele>
        <time>2014-05-21T13:48:28Z</time>
      </trkpt>
      <trkpt lat="46.73682" lon="6.33087">
        <ele>1212</ele>
        <time>2014-05-21T13:48:35Z</time>
      </trkpt>
      <trkpt lat="46.73681" lon="6.33101">
        <ele>1214</ele>
        <time>2014-05-21T13:48:43Z</time>
      </trkpt>
      <trkpt lat="46.73682" lon="6.33114">
        <ele>1214</ele>
        <time>2014-05-21T13:48:52Z</time>
      </trkpt>
      <trkpt lat="46.73684" lon="6.33128">
        <ele>1215</ele>
        <time>2014-05-21T13:49:01Z</time>
      </trkpt>
      <trkpt lat="46.73692" lon="6.33135">
        <ele>1216</ele>
        <time>2014-05-21T13:49:13Z</time>
      </trkpt>
      <trkpt lat="46.73702" lon="6.33135">
        <ele>1219</ele>
        <time>2014-05-21T13:49:22Z</time>
      </trkpt>
      <trkpt lat="46.73711" lon="6.33131">
        <ele>1220</ele>
        <time>2014-05-21T13:49:30Z</time>
      </trkpt>
      <trkpt lat="46.73721" lon="6.33128">
        <ele>1219</ele>
        <time>2014-05-21T13:49:37Z</time>
      </trkpt>
      <trkpt lat="46.73731" lon="6.33126">
        <ele>1218</ele>
        <time>2014-05-21T13:49:44Z</time>
      </trkpt>
      <trkpt lat="46.7374" lon="6.33128">
        <ele>1217</ele>
        <time>2014-05-21T13:49:52Z</time>
      </trkpt>
      <trkpt lat="46.7375" lon="6.33127">
        <ele>1216</ele>
        <time>2014-05-21T13:50:02Z</time>
      </trkpt>
      <trkpt lat="46.73759" lon="6.33126">
        <ele>1217</ele>
        <time>2014-05-21T13:50:13Z</time>
      </trkpt>
      <trkpt lat="46.73768" lon="6.33127">
        <ele>1219</ele>
        <time>2014-05-21T13:50:23Z</time>
      </trkpt>
      <trkpt lat="46.73778" lon="6.3313">
        <ele>1220</ele>
        <time>2014-05-21T13:50:32Z</time>
      </trkpt>
      <trkpt lat="46.73787" lon="6.33135">
        <ele>1221</ele>
        <time>2014-05-21T13:50:43Z</time>
      </trkpt>
      <trkpt lat="46.73797" lon="6.33136">
        <ele>1222</ele>
        <time>2014-05-21T13:51:01Z</time>
      </trkpt>
      <trkpt lat="46.73806" lon="6.33141">
        <ele>1223</ele>
        <time>2014-05-21T13:51:14Z</time>
      </trkpt>
      <trkpt lat="46.73814" lon="6.33147">
        <ele>1224</ele>
        <time>2014-05-21T13:51:24Z</time>
      </trkpt>
      <trkpt lat="46.73821" lon="6.33156">
        <ele>1227</ele>
        <time>2014-05-21T13:51:41Z</time>
      </trkpt>
      <trkpt lat="46.7383" lon="6.33164">
        <ele>1228</ele>
        <time>2014-05-21T13:51:49Z</time>
      </trkpt>
      <trkpt lat="46.73838" lon="6.3317">
        <ele>1227</ele>
        <time>2014-05-21T13:51:56Z</time>
      </trkpt>
      <trkpt lat="46.73843" lon="6.33183">
        <ele>1227</ele>
        <time>2014-05-21T13:52:03Z</time>
      </trkpt>
      <trkpt lat="46.73851" lon="6.3319">
        <ele>1226</ele>
        <time>2014-05-21T13:52:10Z</time>
      </trkpt>
      <trkpt lat="46.73858" lon="6.33199">
        <ele>1227</ele>
        <time>2014-05-21T13:52:18Z</time>
      </trkpt>
      <trkpt lat="46.73866" lon="6.33207">
        <ele>1230</ele>
        <time>2014-05-21T13:52:25Z</time>
      </trkpt>
      <trkpt lat="46.73874" lon="6.33216">
        <ele>1231</ele>
        <time>2014-05-21T13:52:35Z</time>
      </trkpt>
      <trkpt lat="46.7388" lon="6.33227">
        <ele>1230</ele>
        <time>2014-05-21T13:52:44Z</time>
      </trkpt>
      <trkpt lat="46.73887" lon="6.33237">
        <ele>1229</ele>
        <time>2014-05-21T13:52:51Z</time>
      </trkpt>
      <trkpt lat="46.73893" lon="6.33247">
        <ele>1230</ele>
        <time>2014-05-21T13:52:58Z</time>
      </trkpt>
      <trkpt lat="46.73898" lon="6.33258">
        <ele>1231</ele>
        <time>2014-05-21T13:53:06Z</time>
      </trkpt>
      <trkpt lat="46.73904" lon="6.33268">
        <ele>1231</ele>
        <time>2014-05-21T13:53:15Z</time>
      </trkpt>
      <trkpt lat="46.73911" lon="6.33279">
        <ele>1231</ele>
        <time>2014-05-21T13:53:22Z</time>
      </trkpt>
      <trkpt lat="46.73919" lon="6.33287">
        <ele>1234</ele>
        <time>2014-05-21T13:53:32Z</time>
      </trkpt>
      <trkpt lat="46.73928" lon="6.33295">
        <ele>1234</ele>
        <time>2014-05-21T13:53:42Z</time>
      </trkpt>
      <trkpt lat="46.73936" lon="6.33302">
        <ele>1235</ele>
        <time>2014-05-21T13:53:50Z</time>
      </trkpt>
      <trkpt lat="46.73944" lon="6.3331">
        <ele>1237</ele>
        <time>2014-05-21T13:53:59Z</time>
      </trkpt>
      <trkpt lat="46.73952" lon="6.33318">
        <ele>1238</ele>
        <time>2014-05-21T13:54:09Z</time>
      </trkpt>
      <trkpt lat="46.7396" lon="6.33325">
        <ele>1238</ele>
        <time>2014-05-21T13:54:18Z</time>
      </trkpt>
      <trkpt lat="46.73968" lon="6.33335">
        <ele>1237</ele>
        <time>2014-05-21T13:54:29Z</time>
      </trkpt>
      <trkpt lat="46.73975" lon="6.33343">
        <ele>1235</ele>
        <time>2014-05-21T13:54:39Z</time>
      </trkpt>
      <trkpt lat="46.73982" lon="6.33351">
        <ele>1232</ele>
        <time>2014-05-21T13:54:46Z</time>
      </trkpt>
      <trkpt lat="46.73987" lon="6.33365">
        <ele>1231</ele>
        <time>2014-05-21T13:54:51Z</time>
      </trkpt>
      <trkpt lat="46.73991" lon="6.33379">
        <ele>1231</ele>
        <time>2014-05-21T13:54:55Z</time>
      </trkpt>
      <trkpt lat="46.73998" lon="6.3339">
        <ele>1229</ele>
        <time>2014-05-21T13:55:04Z</time>
      </trkpt>
      <trkpt lat="46.74005" lon="6.33399">
        <ele>1227</ele>
        <time>2014-05-21T13:55:13Z</time>
      </trkpt>
      <trkpt lat="46.74013" lon="6.33407">
        <ele>1225</ele>
        <time>2014-05-21T13:55:23Z</time>
      </trkpt>
      <trkpt lat="46.74016" lon="6.33419">
        <ele>1223</ele>
        <time>2014-05-21T13:55:30Z</time>
      </trkpt>
      <trkpt lat="46.74025" lon="6.33425">
        <ele>1222</ele>
        <time>2014-05-21T13:55:37Z</time>
      </trkpt>
      <trkpt lat="46.74034" lon="6.3343">
        <ele>1223</ele>
        <time>2014-05-21T13:55:44Z</time>
      </trkpt>
      <trkpt lat="46.74043" lon="6.3343">
        <ele>1222</ele>
        <time>2014-05-21T13:55:54Z</time>
      </trkpt>
      <trkpt lat="46.74047" lon="6.33442">
        <ele>1223</ele>
        <time>2014-05-21T13:55:59Z</time>
      </trkpt>
      <trkpt lat="46.74048" lon="6.33455">
        <ele>1223</ele>
        <time>2014-05-21T13:56:07Z</time>
      </trkpt>
      <trkpt lat="46.74055" lon="6.33463">
        <ele>1222</ele>
        <time>2014-05-21T13:56:20Z</time>
      </trkpt>
      <trkpt lat="46.74062" lon="6.33476">
        <ele>1220</ele>
        <time>2014-05-21T13:56:31Z</time>
      </trkpt>
      <trkpt lat="46.74069" lon="6.33486">
        <ele>1219</ele>
        <time>2014-05-21T13:56:37Z</time>
      </trkpt>
      <trkpt lat="46.74074" lon="6.33498">
        <ele>1218</ele>
        <time>2014-05-21T13:56:42Z</time>
      </trkpt>
      <trkpt lat="46.74082" lon="6.33507">
        <ele>1219</ele>
        <time>2014-05-21T13:56:47Z</time>
      </trkpt>
      <trkpt lat="46.74088" lon="6.33518">
        <ele>1220</ele>
        <time>2014-05-21T13:56:57Z</time>
      </trkpt>
      <trkpt lat="46.74094" lon="6.33528">
        <ele>1220</ele>
        <time>2014-05-21T13:57:10Z</time>
      </trkpt>
      <trkpt lat="46.74103" lon="6.33532">
        <ele>1219</ele>
        <time>2014-05-21T13:57:23Z</time>
      </trkpt>
      <trkpt lat="46.74112" lon="6.33538">
        <ele>1219</ele>
        <time>2014-05-21T13:57:33Z</time>
      </trkpt>
      <trkpt lat="46.7412" lon="6.33543">
        <ele>1216</ele>
        <time>2014-05-21T13:57:45Z</time>
      </trkpt>
      <trkpt lat="46.74129" lon="6.33549">
        <ele>1213</ele>
        <time>2014-05-21T13:57:53Z</time>
      </trkpt>
      <trkpt lat="46.74139" lon="6.33552">
        <ele>1211</ele>
        <time>2014-05-21T13:57:59Z</time>
      </trkpt>
      <trkpt lat="46.74148" lon="6.33556">
        <ele>1209</ele>
        <time>2014-05-21T13:58:06Z</time>
      </trkpt>
      <trkpt lat="46.74155" lon="6.33567">
        <ele>1207</ele>
        <time>2014-05-21T13:58:13Z</time>
      </trkpt>
      <trkpt lat="46.74162" lon="6.33575">
        <ele>1206</ele>
        <time>2014-05-21T13:58:21Z</time>
      </trkpt>
      <trkpt lat="46.74171" lon="6.33582">
        <ele>1205</ele>
        <time>2014-05-21T13:58:28Z</time>
      </trkpt>
      <trkpt lat="46.7418" lon="6.33586">
        <ele>1205</ele>
        <time>2014-05-21T13:58:36Z</time>
      </trkpt>
      <trkpt lat="46.74188" lon="6.33592">
        <ele>1203</ele>
        <time>2014-05-21T13:58:45Z</time>
      </trkpt>
      <trkpt lat="46.74195" lon="6.33601">
        <ele>1199</ele>
        <time>2014-05-21T13:58:55Z</time>
      </trkpt>
      <trkpt lat="46.74202" lon="6.33612">
        <ele>1198</ele>
        <time>2014-05-21T13:59:06Z</time>
      </trkpt>
      <trkpt lat="46.74208" lon="6.33621">
        <ele>1198</ele>
        <time>2014-05-21T13:59:15Z</time>
      </trkpt>
      <trkpt lat="46.74214" lon="6.33633">
        <ele>1197</ele>
        <time>2014-05-21T13:59:26Z</time>
      </trkpt>
      <trkpt lat="46.74215" lon="6.33646">
        <ele>1194</ele>
        <time>2014-05-21T13:59:35Z</time>
      </trkpt>
      <trkpt lat="46.74219" lon="6.33658">
        <ele>1193</ele>
        <time>2014-05-21T13:59:41Z</time>
      </trkpt>
      <trkpt lat="46.74225" lon="6.3367">
        <ele>1191</ele>
        <time>2014-05-21T13:59:48Z</time>
      </trkpt>
      <trkpt lat="46.7423" lon="6.33682">
        <ele>1191</ele>
        <time>2014-05-21T13:59:54Z</time>
      </trkpt>
      <trkpt lat="46.74236" lon="6.33694">
        <ele>1193</ele>
        <time>2014-05-21T13:59:59Z</time>
      </trkpt>
      <trkpt lat="46.74239" lon="6.33706">
        <ele>1193</ele>
        <time>2014-05-21T14:00:06Z</time>
      </trkpt>
      <trkpt lat="46.74242" lon="6.33719">
        <ele>1195</ele>
        <time>2014-05-21T14:00:13Z</time>
      </trkpt>
      <trkpt lat="46.74245" lon="6.33732">
        <ele>1195</ele>
        <time>2014-05-21T14:00:21Z</time>
      </trkpt>
      <trkpt lat="46.74246" lon="6.33747">
        <ele>1195</ele>
        <time>2014-05-21T14:00:29Z</time>
      </trkpt>
      <trkpt lat="46.74249" lon="6.3376">
        <ele>1194</ele>
        <time>2014-05-21T14:00:39Z</time>
      </trkpt>
      <trkpt lat="46.74252" lon="6.33773">
        <ele>1192</ele>
        <time>2014-05-21T14:00:47Z</time>
      </trkpt>
      <trkpt lat="46.74256" lon="6.33786">
        <ele>1191</ele>
        <time>2014-05-21T14:00:56Z</time>
      </trkpt>
      <trkpt lat="46.74257" lon="6.338">
        <ele>1189</ele>
        <time>2014-05-21T14:01:05Z</time>
      </trkpt>
      <trkpt lat="46.74259" lon="6.33814">
        <ele>1188</ele>
        <time>2014-05-21T14:01:12Z</time>
      </trkpt>
      <trkpt lat="46.7426" lon="6.33828">
        <ele>1189</ele>
        <time>2014-05-21T14:01:19Z</time>
      </trkpt>
      <trkpt lat="46.7426" lon="6.33843">
        <ele>1191</ele>
        <time>2014-05-21T14:01:26Z</time>
      </trkpt>
      <trkpt lat="46.74258" lon="6.33857">
        <ele>1193</ele>
        <time>2014-05-21T14:01:33Z</time>
      </trkpt>
      <trkpt lat="46.74256" lon="6.33871">
        <ele>1194</ele>
        <time>2014-05-21T14:01:42Z</time>
      </trkpt>
      <trkpt lat="46.74256" lon="6.33885">
        <ele>1194</ele>
        <time>2014-05-21T14:01:49Z</time>
      </trkpt>
      <trkpt lat="46.74255" lon="6.33898">
        <ele>1196</ele>
        <time>2014-05-21T14:01:56Z</time>
      </trkpt>
      <trkpt lat="46.74253" lon="6.33912">
        <ele>1197</ele>
        <time>2014-05-21T14:02:03Z</time>
      </trkpt>
      <trkpt lat="46.74252" lon="6.33926">
        <ele>1198</ele>
        <time>2014-05-21T14:02:10Z</time>
      </trkpt>
      <trkpt lat="46.74251" lon="6.33939">
        <ele>1199</ele>
        <time>2014-05-21T14:02:19Z</time>
      </trkpt>
      <trkpt lat="46.74247" lon="6.33954">
        <ele>1197</ele>
        <time>2014-05-21T14:02:30Z</time>
      </trkpt>
      <trkpt lat="46.74242" lon="6.33965">
        <ele>1196</ele>
        <time>2014-05-21T14:02:38Z</time>
      </trkpt>
      <trkpt lat="46.74239" lon="6.33979">
        <ele>1194</ele>
        <time>2014-05-21T14:02:46Z</time>
      </trkpt>
      <trkpt lat="46.74238" lon="6.33992">
        <ele>1194</ele>
        <time>2014-05-21T14:02:55Z</time>
      </trkpt>
      <trkpt lat="46.74238" lon="6.34007">
        <ele>1194</ele>
        <time>2014-05-21T14:03:03Z</time>
      </trkpt>
      <trkpt lat="46.74234" lon="6.3402">
        <ele>1194</ele>
        <time>2014-05-21T14:03:08Z</time>
      </trkpt>
      <trkpt lat="46.74227" lon="6.34027">
        <ele>1193</ele>
        <time>2014-05-21T14:03:11Z</time>
      </trkpt>
      <trkpt lat="46.74226" lon="6.34042">
        <ele>1192</ele>
        <time>2014-05-21T14:03:18Z</time>
      </trkpt>
      <trkpt lat="46.74232" lon="6.34054">
        <ele>1191</ele>
        <time>2014-05-21T14:03:23Z</time>
      </trkpt>
      <trkpt lat="46.74238" lon="6.34066">
        <ele>1191</ele>
        <time>2014-05-21T14:03:29Z</time>
      </trkpt>
      <trkpt lat="46.74246" lon="6.34073">
        <ele>1193</ele>
        <time>2014-05-21T14:03:35Z</time>
      </trkpt>
      <trkpt lat="46.74251" lon="6.34084">
        <ele>1196</ele>
        <time>2014-05-21T14:03:43Z</time>
      </trkpt>
      <trkpt lat="46.74249" lon="6.34097">
        <ele>1195</ele>
        <time>2014-05-21T14:03:53Z</time>
      </trkpt>
      <trkpt lat="46.74252" lon="6.3411">
        <ele>1196</ele>
        <time>2014-05-21T14:04:02Z</time>
      </trkpt>
      <trkpt lat="46.74259" lon="6.34119">
        <ele>1196</ele>
        <time>2014-05-21T14:04:12Z</time>
      </trkpt>
      <trkpt lat="46.74268" lon="6.34126">
        <ele>1196</ele>
        <time>2014-05-21T14:04:19Z</time>
      </trkpt>
      <trkpt lat="46.74277" lon="6.3413">
        <ele>1195</ele>
        <time>2014-05-21T14:04:25Z</time>
      </trkpt>
      <trkpt lat="46.74286" lon="6.34132">
        <ele>1195</ele>
        <time>2014-05-21T14:04:31Z</time>
      </trkpt>
      <trkpt lat="46.74296" lon="6.34135">
        <ele>1197</ele>
        <time>2014-05-21T14:04:38Z</time>
      </trkpt>
      <trkpt lat="46.74305" lon="6.34138">
        <ele>1197</ele>
        <time>2014-05-21T14:04:46Z</time>
      </trkpt>
      <trkpt lat="46.74315" lon="6.34141">
        <ele>1197</ele>
        <time>2014-05-21T14:04:55Z</time>
      </trkpt>
      <trkpt lat="46.74323" lon="6.34148">
        <ele>1196</ele>
        <time>2014-05-21T14:05:04Z</time>
      </trkpt>
      <trkpt lat="46.74331" lon="6.34156">
        <ele>1196</ele>
        <time>2014-05-21T14:05:12Z</time>
      </trkpt>
      <trkpt lat="46.7434" lon="6.34163">
        <ele>1195</ele>
        <time>2014-05-21T14:05:19Z</time>
      </trkpt>
      <trkpt lat="46.74349" lon="6.34169">
        <ele>1193</ele>
        <time>2014-05-21T14:05:27Z</time>
      </trkpt>
      <trkpt lat="46.74358" lon="6.34175">
        <ele>1190</ele>
        <time>2014-05-21T14:05:36Z</time>
      </trkpt>
      <trkpt lat="46.74361" lon="6.34162">
        <ele>1187</ele>
        <time>2014-05-21T14:05:45Z</time>
      </trkpt>
      <trkpt lat="46.74366" lon="6.34158">
        <ele>1186</ele>
        <time>2014-05-21T14:05:58Z</time>
      </trkpt>
      <trkpt lat="46.74368" lon="6.34146">
        <ele>1193</ele>
        <time>2014-05-21T14:17:27Z</time>
      </trkpt>
      <trkpt lat="46.74369" lon="6.34145">
        <ele>1197</ele>
        <time>2014-05-21T14:22:52Z</time>
      </trkpt>
      <trkpt lat="46.74369" lon="6.34141">
        <ele>1196</ele>
        <time>2014-05-21T14:25:01Z</time>
      </trkpt>
      <trkpt lat="46.74374" lon="6.3414">
        <ele>1195</ele>
        <time>2014-05-21T14:25:16Z</time>
      </trkpt>
    </trkseg>
  </trk>
</gpx>